[[{"header":{"parameterUnit":"m.s-1","parameterCategory":1,"la1":30.6,"la2":28.766,"lo1":-90.7593,"lo2":-88.6598,"dx":0.0162,"dy":0.0183,"nx":116,"ny":114,"refTime":"2022-11-14T06:00:00:Z","depth":0,"parameterNumber":2,"parameterNumberName":"U-component_of_WINDS"},"data":[0.0,0.0,0.0,0.0,0.0,0.0,0.0,0.0,0.0,0.0,0.0,0.0,0.0,0.0,0.0,0.0,0.0,0.0,0.0,0.0,0.0,0.0,0.0,0.0,0.0,0.0,0.0,0.0,0.0,0.0,0.0,0.0,0.0,0.0,0.0,0.0,0.0,0.0,0.0,0.0,0.0,0.0,0.0,0.0,0.0,0.0,0.0,0.0,0.0,0.0,0.0,0.0,0.0,0.0,0.0,0.0,0.0,0.0,0.0,0.0,0.0,0.0,0.0,0.0,0.0,0.0,0.0,0.0,0.0,0.0,0.0,0.0,0.0,0.0,0.0,0.0,0.0,0.0,0.0,0.0,0.0,0.0,0.0,0.0,0.0,0.0,0.0,0.0,0.0,0.0,0.0,0.0,0.0,0.0,0.0,0.0,0.0,0.0,0.0,0.0,0.0,0.0,0.0,0.0,0.0,0.0,0.0,0.0,0.0,0.0,0.0,0.0,0.0,0.0,0.0,0.0,0.0,0.0,0.0,0.0,0.0,0.0,0.0,0.0,0.0,0.0,0.0,0.0,0.0,0.0,0.0,0.0,0.0,0.0,0.0,0.0,0.0,0.0,0.0,0.0,0.0,0.0,0.0,0.0,0.0,0.0,0.0,0.0,0.0,0.0,0.0,0.0,0.0,0.0,0.0,0.0,0.0,0.0,0.0,0.0,0.0,0.0,0.0,0.0,0.0,0.0,0.0,0.0,0.0,0.0,0.0,0.0,0.0,0.0,0.0,0.0,0.0,0.0,0.0,0.0,0.0,0.0,0.0,0.0,0.0,0.0,0.0,0.0,0.0,0.0,0.0,0.0,0.0,0.0,0.0,0.0,0.0,0.0,0.0,0.0,0.0,0.0,0.0,0.0,0.0,0.0,0.0,0.0,0.0,0.0,0.0,0.0,0.0,0.0,0.0,0.0,0.0,0.0,0.0,0.0,0.0,0.0,0.0,0.0,0.0,0.0,0.0,0.0,0.0,0.0,0.0,0.0,0.0,0.0,0.0,0.0,0.0,0.0,0.0,0.0,0.0,0.0,0.0,0.0,0.0,0.0,0.0,0.0,0.0,0.0,0.0,0.0,0.0,0.0,0.0,0.0,0.0,0.0,0.0,0.0,0.0,0.0,0.0,0.0,0.0,0.0,0.0,0.0,0.0,0.0,0.0,0.0,0.0,0.0,0.0,0.0,0.0,0.0,0.0,0.0,0.0,0.0,0.0,0.0,0.0,0.0,0.0,0.0,0.0,0.0,0.0,0.0,0.0,0.0,0.0,0.0,0.0,0.0,0.0,0.0,0.0,0.0,0.0,0.0,0.0,0.0,0.0,0.0,0.0,0.0,0.0,0.0,0.0,0.0,0.0,0.0,0.0,0.0,0.0,0.0,0.0,0.0,0.0,0.0,0.0,0.0,0.0,0.0,0.0,0.0,0.0,0.0,0.0,0.0,0.0,0.0,0.0,0.0,0.0,0.0,0.0,0.0,0.0,0.0,0.0,0.0,0.0,0.0,0.0,0.0,0.0,0.0,0.0,0.0,0.0,0.0,0.0,0.0,0.0,0.0,0.0,0.0,0.0,0.0,0.0,0.0,0.0,0.0,0.0,0.0,0.0,0.0,0.0,0.0,0.0,0.0,0.0,0.0,0.0,0.0,0.0,0.0,0.0,0.0,0.0,0.0,0.0,0.0,0.0,0.0,0.0,0.0,0.0,0.0,0.0,0.0,0.0,0.0,0.0,0.0,0.0,0.0,0.0,0.0,0.0,0.0,0.0,0.0,0.0,0.0,0.0,0.0,0.0,0.0,0.0,0.0,0.0,0.0,0.0,0.0,0.0,0.0,0.0,0.0,0.0,0.0,0.0,0.0,0.0,0.0,0.0,0.0,0.0,0.0,0.0,0.0,0.0,0.0,0.0,0.0,0.0,0.0,0.0,0.0,0.0,0.0,0.0,0.0,0.0,0.0,0.0,0.0,0.0,0.0,0.0,0.0,0.0,0.0,0.0,0.0,0.0,0.0,0.0,0.0,0.0,0.0,0.0,0.0,0.0,0.0,0.0,0.0,0.0,0.0,0.0,0.0,0.0,0.0,0.0,0.0,0.0,0.0,0.0,0.0,0.0,0.0,0.0,0.0,0.0,0.0,0.0,0.0,0.0,0.0,0.0,0.0,0.0,0.0,0.0,0.0,0.0,0.0,0.0,0.0,0.0,0.0,0.0,0.0,0.0,0.0,0.0,0.0,0.0,0.0,0.0,0.0,0.0,0.0,0.0,0.0,0.0,0.0,0.0,0.0,0.0,0.0,0.0,0.0,0.0,0.0,0.0,0.0,0.0,0.0,0.0,0.0,0.0,0.0,0.0,0.0,0.0,0.0,0.0,0.0,0.0,0.0,0.0,0.0,0.0,0.0,0.0,0.0,0.0,0.0,0.0,0.0,0.0,0.0,0.0,0.0,0.0,0.0,0.0,0.0,0.0,0.0,0.0,0.0,0.0,0.0,0.0,0.0,0.0,0.0,0.0,0.0,0.0,0.0,0.0,0.0,0.0,0.0,0.0,0.0,0.0,0.0,0.0,0.0,0.0,0.0,0.0,0.0,0.0,0.0,0.0,0.0,0.0,0.0,0.0,0.0,0.0,0.0,0.0,0.0,0.0,0.0,0.0,0.0,0.0,0.0,0.0,0.0,0.0,0.0,0.0,0.0,0.0,0.0,0.0,0.0,0.0,0.0,0.0,0.0,0.0,0.0,0.0,0.0,0.0,0.0,0.0,0.0,0.0,0.0,0.0,0.0,0.0,0.0,0.0,0.0,0.0,0.0,0.0,0.0,0.0,0.0,0.0,0.0,0.0,0.0,0.0,0.0,0.0,0.0,0.0,0.0,0.0,0.0,0.0,0.0,0.0,0.0,0.0,0.0,0.0,0.0,0.0,0.0,0.0,0.0,0.0,0.0,0.0,0.0,0.0,0.0,0.0,0.0,0.0,0.0,0.0,0.0,0.0,0.0,0.0,0.0,0.0,0.0,0.0,0.0,0.0,0.0,0.0,0.0,0.0,0.0,0.0,0.0,0.0,0.0,0.0,0.0,0.0,0.0,0.0,0.0,0.0,0.0,0.0,0.0,0.0,0.0,0.0,0.0,0.0,0.0,0.0,0.0,0.0,0.0,0.0,0.0,0.0,0.0,0.0,0.0,0.0,0.0,0.0,0.0,0.0,0.0,0.0,0.0,0.0,0.0,0.0,0.0,0.0,0.0,0.0,0.0,0.0,0.0,0.0,0.0,0.0,0.0,0.0,0.0,0.0,0.0,0.0,0.0,0.0,0.0,0.0,0.0,0.0,0.0,0.0,0.0,0.0,0.0,0.0,0.0,0.0,0.0,0.0,0.0,0.0,0.0,0.0,0.0,0.0,0.0,0.0,0.0,0.0,0.0,0.0,0.0,0.0,0.0,0.0,0.0,0.0,0.0,0.0,0.0,0.0,0.0,0.0,0.0,0.0,0.0,0.0,0.0,0.0,0.0,0.0,0.0,0.0,0.0,0.0,0.0,0.0,0.0,0.0,0.0,0.0,0.0,0.0,0.0,0.0,0.0,0.0,0.0,0.0,0.0,0.0,0.0,0.0,0.0,0.0,0.0,0.0,0.0,0.0,0.0,0.0,0.0,0.0,0.0,0.0,0.0,0.0,0.0,0.0,0.0,0.0,0.0,0.0,0.0,0.0,0.0,0.0,0.0,0.0,0.0,0.0,0.0,0.0,0.0,0.0,0.0,0.0,0.0,0.0,0.0,0.0,0.0,0.0,0.0,0.0,0.0,0.0,0.0,0.0,0.0,0.0,0.0,0.0,0.0,0.0,0.0,0.0,0.0,0.0,0.0,0.0,0.0,0.0,0.0,0.0,0.0,0.0,0.0,0.0,0.0,0.0,0.0,0.0,0.0,0.0,0.0,0.0,0.0,0.0,0.0,0.0,0.0,0.0,0.0,0.0,0.0,0.0,0.0,0.0,0.0,0.0,0.0,0.0,0.0,0.0,0.0,0.0,0.0,0.0,0.0,0.0,0.0,0.0,0.0,0.0,0.0,0.0,0.0,0.0,0.0,0.0,0.0,0.0,0.0,0.0,0.0,0.0,0.0,0.0,0.0,0.0,0.0,0.0,0.0,0.0,0.0,0.0,0.0,0.0,0.0,0.0,0.0,0.0,0.0,0.0,0.0,0.0,0.0,0.0,0.0,0.0,0.0,0.0,0.0,0.0,0.0,0.0,0.0,0.0,0.0,0.0,0.0,0.0,0.0,0.0,0.0,0.0,0.0,0.0,0.0,0.0,0.0,0.0,0.0,0.0,0.0,0.0,0.0,0.0,0.0,0.0,0.0,0.0,0.0,0.0,0.0,0.0,0.0,0.0,0.0,0.0,0.0,0.0,0.0,0.0,0.0,0.0,0.0,0.0,0.0,0.0,0.0,0.0,0.0,0.0,0.0,0.0,0.0,0.0,0.0,0.0,0.0,0.0,0.0,0.0,0.0,0.0,0.0,0.0,0.0,0.0,0.0,0.0,0.0,0.0,0.0,0.0,0.0,0.0,0.0,0.0,0.0,0.0,0.0,0.0,0.0,0.0,0.0,0.0,0.0,0.0,0.0,0.0,0.0,0.0,0.0,0.0,0.0,0.0,0.0,0.0,0.0,0.0,0.0,0.0,0.0,0.0,0.0,0.0,0.0,0.0,0.0,0.0,0.0,0.0,0.0,0.0,0.0,0.0,0.0,0.0,0.0,0.0,0.0,0.0,0.0,0.0,0.0,0.0,0.0,0.0,0.0,0.0,0.0,0.0,0.0,0.0,0.0,0.0,0.0,0.0,0.0,0.0,0.0,0.0,0.0,0.0,0.0,0.0,0.0,0.0,0.0,0.0,0.0,0.0,0.0,0.0,0.0,0.0,0.0,0.0,0.0,0.0,0.0,0.0,0.0,0.0,0.0,0.0,0.0,0.0,0.0,0.0,0.0,0.0,0.0,0.0,0.0,0.0,0.0,0.0,0.0,0.0,0.0,0.0,0.0,0.0,0.0,0.0,0.0,0.0,0.0,0.0,0.0,0.0,0.0,0.0,0.0,0.0,0.0,0.0,0.0,0.0,0.0,0.0,0.0,0.0,0.0,0.0,0.0,0.0,0.0,0.0,0.0,0.0,0.0,0.0,0.0,0.0,0.0,0.0,0.0,0.0,0.0,0.0,0.0,0.0,0.0,0.0,0.0,0.0,0.0,0.0,0.0,0.0,0.0,0.0,0.0,0.0,0.0,0.0,0.0,0.0,0.0,0.0,0.0,0.0,0.0,0.0,0.0,0.0,0.0,0.0,0.0,0.0,0.0,0.0,0.0,0.0,0.0,0.0,0.0,0.0,0.0,0.0,0.0,0.0,0.0,0.0,0.0,0.0,0.0,0.0,0.0,0.0,0.0,0.0,0.0,0.0,0.0,0.0,0.0,0.0,0.0,0.0,0.0,0.0,0.0,0.0,0.0,0.0,0.0,0.0,0.0,0.0,0.0,0.0,0.0,0.0,0.0,0.0,0.0,0.0,0.0,0.0,0.0,0.0,0.0,0.0,0.0,0.0,0.0,0.0,0.0,0.0,0.0,0.0,0.0,0.0,0.0,0.0,0.0,0.0,0.0,0.0,0.0,0.0,0.0,0.0,0.0,0.0,0.0,0.0,0.0,0.0,0.0,0.0,0.0,0.0,0.0,0.0,0.0,0.0,0.0,0.0,0.0,0.0,0.0,0.0,0.0,0.0,0.0,0.0,0.0,0.0,0.0,0.0,0.0,0.0,0.0,0.0,0.0,0.0,0.0,0.0,0.0,0.0,0.0,0.0,0.0,0.0,0.0,0.0,0.0,0.0,0.0,0.0,0.0,0.0,0.0,0.0,0.0,0.0,0.0,0.0,0.0,0.0,0.0,0.0,0.0,0.0,0.0,0.0,0.0,0.0,0.0,0.0,0.0,0.0,0.0,0.0,0.0,0.0,0.0,0.0,0.0,0.0,0.0,0.0,0.0,0.0,0.0,0.0,0.0,0.0,0.0,0.0,0.0,0.0,0.0,4.8924,0.0,0.0,0.0,0.0,0.0,0.0,0.0,0.0,0.0,0.0,0.0,0.0,0.0,0.0,0.0,0.0,0.0,0.0,0.0,0.0,0.0,0.0,0.0,0.0,2.5346,2.5557,2.5557,2.5557,0.0,0.0,0.0,0.0,0.0,0.0,0.0,0.0,0.0,2.7604,2.8315,3.0137,3.3108,3.7105,3.4776,3.2708,3.0949,0.0,0.0,0.0,0.0,0.0,0.0,0.0,0.0,0.0,0.0,0.0,0.0,0.0,0.0,0.0,0.0,0.0,0.0,0.0,0.0,0.0,0.0,0.0,0.0,0.0,0.0,0.0,0.0,0.0,0.0,0.0,0.0,0.0,0.0,0.0,0.0,0.0,0.0,0.0,0.0,0.0,0.0,0.0,0.0,0.0,0.0,0.0,0.0,0.0,0.0,0.0,0.0,0.0,0.0,0.0,0.0,0.0,0.0,0.0,0.0,0.0,0.0,0.0,0.0,0.0,0.0,0.0,0.0,0.0,0.0,0.0,4.8876,0.0,0.0,0.0,0.0,0.0,0.0,0.0,0.0,0.0,0.0,0.0,0.0,0.0,0.0,0.0,0.0,0.0,0.0,0.0,0.0,0.0,2.5837,2.5968,2.6522,2.6966,2.7106,2.7106,2.7106,2.7106,2.7106,0.0,0.0,0.0,0.0,2.8191,2.8996,3.0016,3.1253,3.4883,3.8537,4.2185,4.2313,4.0386,3.671,3.3485,0.0,0.0,0.0,0.0,0.0,0.0,0.0,0.0,0.0,0.0,0.0,0.0,0.0,0.0,0.0,0.0,0.0,0.0,0.0,0.0,0.0,0.0,0.0,0.0,0.0,0.0,0.0,0.0,0.0,0.0,0.0,0.0,0.0,0.0,0.0,0.0,0.0,0.0,0.0,0.0,0.0,0.0,0.0,0.0,0.0,0.0,0.0,0.0,0.0,0.0,0.0,0.0,0.0,0.0,0.0,0.0,0.0,0.0,0.0,0.0,0.0,0.0,0.0,5.7162,5.7491,5.7627,5.7627,5.7627,5.7457,5.4456,5.4346,5.5868,5.06,0.0,0.0,0.0,0.0,0.0,0.0,0.0,0.0,0.0,0.0,0.0,0.0,0.0,0.0,0.0,0.0,0.0,0.0,0.0,2.6788,2.7452,2.7587,2.7934,2.8633,2.8705,2.8705,2.8705,2.8705,0.0,0.0,0.0,0.0,2.9794,3.0519,3.2554,3.591,4.213,4.5473,4.6082,4.6703,4.6703,4.5959,4.163,3.8294,3.5876,0.0,0.0,0.0,0.0,0.0,0.0,0.0,0.0,0.0,0.0,0.0,0.0,0.0,0.0,0.0,0.0,0.0,0.0,0.0,0.0,0.0,0.0,0.0,0.0,0.0,0.0,0.0,0.0,0.0,0.0,0.0,0.0,0.0,0.0,0.0,0.0,0.0,0.0,0.0,0.0,0.0,4.184,4.5609,0.0,0.0,0.0,0.0,0.0,0.0,0.0,0.0,0.0,0.0,0.0,0.0,0.0,5.5809,5.8761,5.9776,6.1603,6.4251,6.4353,6.4715,6.5337,6.5337,6.5337,6.5178,6.2212,0.0,5.8607,5.9056,0.0,0.0,0.0,0.0,0.0,0.0,0.0,0.0,0.0,0.0,0.0,0.0,0.0,0.0,0.0,0.0,0.0,0.0,0.0,0.0,0.0,2.9963,3.1253,3.2012,3.3642,3.4071,3.2775,3.2713,0.0,0.0,0.0,3.1958,3.1958,3.4336,3.8233,4.3646,4.7428,5.0127,5.1818,5.2114,5.2283,5.2216,5.022,4.6312,4.1088,3.9884,0.0,0.0,0.0,0.0,0.0,0.0,0.0,0.0,0.0,0.0,0.0,0.0,0.0,0.0,0.0,0.0,0.0,0.0,0.0,0.0,0.0,0.0,0.0,0.0,0.0,0.0,0.0,0.0,0.0,0.0,0.0,0.0,0.0,0.0,0.0,0.0,0.0,0.0,0.0,4.1176,4.4797,4.9357,4.8436,4.7184,0.0,0.0,0.0,0.0,0.0,0.0,0.0,0.0,0.0,5.8254,5.8684,6.0477,6.3825,6.4647,6.5865,6.7601,6.7601,6.7793,6.8087,6.8087,6.8087,6.8019,6.6711,6.5595,6.4536,6.2685,6.1501,6.0655,0.0,0.0,0.0,0.0,5.3991,5.4236,0.0,0.0,0.0,0.0,0.0,0.0,0.0,0.0,0.0,0.0,0.0,0.0,3.0586,3.3355,3.5481,3.6406,3.8734,3.9106,3.6625,3.6659,3.5447,3.2476,3.3756,3.4562,3.4562,3.8971,4.4012,4.9552,5.1438,5.3501,5.5699,5.5699,5.5699,5.5699,5.5699,5.219,4.6218,4.506,4.276,3.9777,0.0,0.0,0.0,0.0,0.0,0.0,0.0,0.0,0.0,0.0,0.0,0.0,0.0,0.0,0.0,0.0,0.0,0.0,0.0,0.0,0.0,0.0,0.0,0.0,0.0,0.0,0.0,0.0,0.0,0.0,0.0,0.0,0.0,0.0,0.0,0.0,0.0,4.5609,4.8357,5.3145,5.2325,5.137,0.0,0.0,0.0,0.0,0.0,0.0,5.8118,5.7906,5.9428,6.3193,6.3463,6.4884,6.7647,6.8199,6.8876,6.9654,6.9485,6.9485,6.9654,6.9654,6.9654,6.9654,6.9654,6.9654,6.9383,6.5639,6.4116,6.4048,6.327,6.1579,5.965,5.9829,5.9896,6.0056,0.0,0.0,0.0,0.0,0.0,0.0,0.0,0.0,0.0,0.0,0.0,3.3683,3.5098,3.7972,4.0345,4.1785,4.2686,4.1935,3.9011,3.9491,3.8543,3.5504,3.6862,3.7674,3.7674,4.4099,4.8665,5.11,5.4042,5.5564,5.5699,5.5699,5.5699,5.5699,5.5699,5.3906,5.0863,5.0795,4.8638,4.5053,4.2144,0.0,0.0,0.0,0.0,0.0,0.0,0.0,0.0,0.0,0.0,0.0,0.0,0.0,0.0,0.0,0.0,0.0,0.0,0.0,0.0,0.0,0.0,0.0,0.0,0.0,0.0,0.0,0.0,0.0,0.0,0.0,0.0,0.0,0.0,0.0,0.0,0.0,0.0,5.718,5.9404,0.0,0.0,0.0,0.0,5.553,5.6215,5.8287,6.1917,6.2753,6.484,6.8605,6.9394,6.9834,7.0037,7.0071,7.0466,7.1199,7.0466,7.05,7.1199,7.1199,7.1199,7.1199,7.1199,7.1199,7.1064,6.944,6.8774,6.847,6.5595,6.441,6.4343,6.5063,6.5311,6.5909,0.0,0.0,0.0,0.0,0.0,2.5443,2.6188,2.7152,2.8162,2.9147,3.2494,3.5402,3.6896,4.1468,4.5026,4.6481,4.8638,4.9044,4.6974,4.5763,4.3768,4.0745,4.0244,4.1603,4.4986,4.9281,5.2833,5.5513,5.7061,5.7682,5.7375,5.7375,5.6961,5.624,5.702,5.6768,5.5733,5.5079,5.2934,4.989,4.9349,4.5459,0.0,0.0,0.0,0.0,0.0,0.0,0.0,0.0,0.0,0.0,0.0,0.0,0.0,0.0,0.0,0.0,0.0,0.0,0.0,0.0,0.0,0.0,0.0,0.0,0.0,0.0,0.0,0.0,0.0,0.0,0.0,0.0,0.0,0.0,0.0,0.0,0.0,5.746,5.9032,0.0,6.0443,6.0655,6.096,6.14,6.3463,6.5493,6.733,6.7218,6.7929,6.9766,7.0071,7.0432,7.0894,7.1379,7.2,7.2699,7.2439,7.2473,7.271,7.271,7.271,7.271,7.271,7.271,7.2665,7.2169,7.1379,7.0421,6.9339,6.8899,6.8933,6.9214,6.9316,6.9542,0.0,0.0,0.0,0.0,2.5274,2.5939,2.6924,2.7731,2.9021,3.1292,3.5036,3.835,4.0656,4.5771,4.956,5.0777,5.3416,5.3687,5.0668,4.9544,4.721,4.3186,4.3064,4.5662,5.1141,5.2824,5.5082,5.8025,5.8119,5.8109,5.8025,5.8025,5.7732,5.7187,5.7774,5.8025,5.798,5.707,5.5858,5.449,5.378,4.9619,4.3775,0.0,0.0,0.0,0.0,0.0,0.0,0.0,0.0,0.0,0.0,0.0,0.0,0.0,0.0,0.0,0.0,0.0,0.0,0.0,0.0,0.0,0.0,0.0,0.0,0.0,0.0,0.0,0.0,0.0,0.0,0.0,0.0,0.0,0.0,5.2866,5.5683,5.8703,6.0351,6.1873,6.3396,6.3981,6.4759,6.6034,6.8199,6.9789,7.0534,7.0331,7.0534,7.1289,7.1323,7.1413,7.1672,7.2394,7.2868,7.3116,7.3387,7.3488,7.3488,7.3488,7.3488,7.3488,7.3488,7.3488,7.3488,7.3488,7.2902,7.2056,7.2056,7.2056,7.209,7.2315,7.2417,7.245,0.0,0.0,0.0,2.5364,2.5634,2.6104,2.7583,2.8484,3.0359,3.4077,3.8497,4.2726,4.6488,5.0879,5.3856,5.4642,5.6673,5.5412,4.9554,5.0483,4.8623,4.2719,4.5389,4.9734,5.5501,5.4521,5.5394,5.8322,5.7152,5.6888,5.7522,5.7522,5.7871,5.8419,5.7819,5.7522,5.7502,5.6867,5.7529,5.8683,5.5037,5.1812,4.8795,0.0,0.0,0.0,0.0,0.0,0.0,0.0,0.0,0.0,0.0,0.0,0.0,0.0,0.0,0.0,0.0,0.0,0.0,0.0,0.0,0.0,0.0,0.0,0.0,0.0,0.0,0.0,0.0,0.0,0.0,0.0,0.0,0.0,5.5462,5.7694,5.9631,6.1298,6.3981,6.6282,6.776,6.7929,6.8301,6.9113,6.9868,7.0601,7.1334,7.209,7.28,7.3522,7.3522,7.3218,7.2496,7.3184,7.3184,7.2496,7.3218,7.3556,7.3556,7.3556,7.3556,7.3556,7.359,7.359,7.359,7.3624,7.3624,7.3624,7.3556,7.3522,7.3624,7.4345,7.4649,7.475,0.0,0.0,0.0,2.5533,2.6044,2.6721,2.7655,2.8949,3.1331,3.5605,4.0054,4.4444,4.8721,5.224,5.5015,5.6842,5.7552,5.6473,5.3126,5.2329,5.0153,4.6038,4.9778,5.255,5.3842,5.5121,5.668,5.8537,5.8206,5.8179,5.8525,5.8525,5.8164,5.7524,5.8206,5.8525,5.8542,5.8689,5.8725,5.855,5.6611,5.4174,5.1673,0.0,0.0,0.0,0.0,0.0,0.0,0.0,0.0,0.0,0.0,0.0,0.0,0.0,0.0,0.0,0.0,0.0,0.0,0.0,0.0,0.0,0.0,0.0,0.0,0.0,0.0,0.0,0.0,0.0,0.0,0.0,5.635,5.8152,5.9564,5.9766,6.1153,6.484,6.5527,6.6282,6.776,6.8921,6.9891,7.0624,7.1853,7.2676,7.2879,7.3612,7.4074,7.4289,7.4289,7.4458,7.4796,7.4458,7.4458,7.4796,7.4999,7.5112,7.5112,7.5112,7.5112,7.5146,7.5709,7.598,7.6026,7.6533,7.677,7.6601,7.4931,7.4289,7.439,7.5134,7.5405,7.5439,0.0,0.0,0.0,2.6015,2.6425,2.7063,2.8146,2.9059,3.1804,3.7867,4.1136,4.5121,5.0913,5.3653,5.5818,5.7721,5.6991,5.5457,5.3169,5.1142,5.0063,5.0144,5.2902,5.5037,5.6258,5.7071,5.8157,5.9558,5.906,5.9011,5.9404,5.9404,5.9031,5.8374,5.8793,5.8825,5.8558,5.856,5.832,5.7877,5.6898,5.5387,5.3677,5.3428,5.1837,4.9645,4.9044,4.8545,4.7876,4.5812,0.0,0.0,0.0,0.0,0.0,0.0,0.0,0.0,0.0,0.0,0.0,0.0,0.0,0.0,0.0,0.0,0.0,0.0,0.0,0.0,0.0,0.0,0.0,0.0,5.9674,6.21,6.3835,6.3125,6.3632,6.6869,6.7184,6.7567,6.8751,6.9958,7.0973,7.1706,7.2845,7.3759,7.4402,7.5134,7.5562,7.5562,7.5562,7.5608,7.5709,7.5608,7.5777,7.6217,7.6533,7.6669,7.6669,7.6669,7.6669,7.6702,7.7176,7.7367,7.7401,7.7819,7.7988,0.0,0.0,0.0,0.0,0.0,7.6669,7.6669,2.5605,2.5736,2.5943,2.6594,2.67,2.7211,2.8768,2.9077,3.2046,4.025,4.1988,4.5331,5.2934,5.4792,5.6235,5.7983,5.5729,5.3298,5.1157,4.8978,4.9679,5.3935,5.5001,5.7015,6.0254,5.9278,5.9396,6.0797,5.975,5.9578,6.034,6.034,6.037,6.04,5.9727,5.9115,5.8504,5.7752,5.7393,5.7287,5.6658,5.5918,5.5149,5.4459,5.3684,5.2809,5.1549,5.109,5.0955,5.0067,0.0,0.0,0.0,0.0,0.0,0.0,0.0,0.0,0.0,0.0,0.0,0.0,0.0,0.0,0.0,0.0,0.0,0.0,0.0,0.0,0.0,0.0,0.0,0.0,6.1535,6.4908,6.7523,6.6857,6.6586,6.7895,6.8741,6.9485,7.0139,7.1007,7.1808,7.2462,7.3387,7.4503,7.589,7.6724,0.0,0.0,0.0,7.6826,7.6082,7.6724,7.7029,7.7029,7.7684,7.7988,7.7988,7.7988,7.7988,7.7988,7.809,7.8157,7.8259,7.8327,7.8428,7.8462,7.8225,7.8157,7.8259,7.8259,7.8259,7.8259,2.6458,2.6492,2.6526,2.6661,2.67,2.7211,2.8768,2.9504,3.2814,4.1007,4.2719,4.6264,5.438,5.4692,5.5764,5.9372,5.5607,5.2327,5.0635,5.2219,5.3312,5.3619,5.5973,5.7715,5.8546,5.8333,5.889,6.0242,6.0014,6.0519,6.1702,6.1702,6.2016,6.2509,6.1822,6.1463,6.1253,6.0027,5.9189,5.865,5.8008,5.7217,5.6427,5.6101,5.648,5.7153,5.7257,5.7264,5.6984,5.5056,5.3509,5.2131,5.0413,4.9398,0.0,0.0,0.0,0.0,0.0,0.0,0.0,0.0,0.0,0.0,0.0,0.0,0.0,0.0,0.0,0.0,0.0,0.0,0.0,6.1545,6.4613,6.7252,6.7827,6.8199,6.8538,6.8842,6.953,7.0037,7.0172,7.1932,7.3116,7.3285,7.51,7.6623,7.7515,7.828,7.8945,7.9532,7.8978,7.8606,7.8437,7.801,7.7785,7.7785,0.0,0.0,7.7988,7.7988,7.7988,7.8022,7.8619,7.9228,7.9803,8.0424,8.1021,8.138,7.9587,7.9261,7.9769,7.9769,7.9769,7.9769,2.67,2.67,2.67,2.67,2.67,2.7211,2.8768,2.9305,3.2075,3.9174,4.0419,4.3191,4.9914,5.0446,5.1411,5.4199,5.2278,5.0309,4.8944,5.2054,5.4364,5.5262,5.7309,5.8805,5.9564,5.9594,6.0252,6.1597,6.1268,6.1627,6.2584,6.2241,6.2285,6.2614,6.2614,6.2225,6.1553,6.0894,6.0206,5.9548,5.8876,5.8138,5.7452,5.7548,5.8055,5.888,5.9377,5.9327,5.8887,5.8143,5.7399,5.6596,5.5446,5.4093,5.2393,0.0,0.0,0.0,0.0,0.0,0.0,0.0,0.0,0.0,0.0,0.0,0.0,0.0,0.0,5.8896,5.8524,0.0,6.3937,6.3565,6.6305,6.8639,6.8988,6.9722,7.006,6.9688,7.0297,7.0906,7.1289,7.2969,7.4187,7.4559,7.6724,7.8314,7.9071,7.9803,8.0209,8.0209,7.9486,7.9114,7.9114,7.8708,7.8936,7.9646,7.9646,7.9849,8.0209,8.0209,8.0209,8.0209,8.0602,8.094,8.1325,8.1697,8.2069,8.2293,8.1177,8.0974,8.1291,8.1291,8.1528,8.1799,2.67,2.67,2.67,2.67,2.67,2.7211,2.8768,2.901,3.1104,3.6907,3.7685,3.959,4.4632,4.5601,4.629,4.7271,4.9102,4.9378,4.7436,5.1595,5.5017,5.7017,5.8261,5.9594,6.106,6.109,6.1762,6.3108,6.2435,6.2375,6.2884,6.2211,6.1972,6.2121,6.2674,6.2315,6.1299,6.115,6.0715,6.004,5.9368,5.8786,5.835,5.8719,5.9166,5.9687,6.0316,5.9868,5.9148,6.0037,5.9945,5.9539,5.9945,5.8278,5.5631,5.3239,5.104,0.0,0.0,0.0,0.0,0.0,0.0,0.0,0.0,5.6621,5.8389,5.9413,6.0689,6.1603,6.1603,6.3734,6.5459,6.5459,6.7749,6.9722,7.0342,7.1176,7.1605,7.1323,7.1785,7.2383,7.2969,7.439,7.5506,7.6082,7.8111,7.9553,8.0175,8.0898,8.1101,8.0648,7.9904,7.9587,7.9756,7.9756,8.0344,8.1507,8.1507,8.1832,8.2395,8.2395,8.2395,8.2395,8.253,8.2598,8.2631,8.2767,8.263,8.238,8.2501,8.2362,8.2121,8.249,8.2983,8.3422,2.67,2.67,2.67,2.67,2.67,2.7211,2.8768,2.901,3.0905,3.6214,3.6914,3.8666,4.3249,4.3489,4.302,4.2283,4.9546,5.2198,4.7591,5.3678,5.7363,5.7129,5.7799,5.9102,6.106,6.109,6.1762,6.3108,6.2435,6.2121,6.2181,6.1523,6.1523,6.2091,6.2195,6.2121,6.1942,6.1359,6.0715,6.004,5.9368,5.9069,5.9037,5.9573,6.0176,6.084,6.1808,6.0791,5.9216,6.068,5.9404,5.7509,5.9471,5.8964,5.7079,5.4194,5.2224,5.0457,4.8157,4.9755,5.2097,5.2266,5.4668,5.762,0.0,6.1627,6.3342,6.5381,6.6474,6.7015,6.7015,6.7895,6.8605,6.8605,6.9981,7.1097,7.1165,7.236,7.3725,7.4931,7.5168,7.5236,7.5303,7.6736,7.765,7.7751,7.9194,8.0107,8.0209,8.0898,8.1575,8.2124,8.1426,8.1359,8.2022,8.2022,8.2124,8.2259,8.2259,8.2327,8.2395,8.2395,8.2395,8.2428,8.3084,8.3389,8.3422,8.4086,8.3488,8.2293,8.2878,8.2206,8.1072,8.2748,8.3422,8.3592,2.67,2.67,2.67,2.67,2.67,2.7211,2.8768,2.901,3.0262,3.3715,3.4217,3.5284,3.7952,3.8799,3.9299,3.9628,4.5896,4.9142,4.7404,5.3343,5.6995,5.709,5.7739,5.8876,6.0475,6.088,6.1583,6.2525,6.2255,6.2315,6.2674,6.1613,6.1672,6.2674,6.2674,6.2465,6.2091,6.1792,6.1074,6.004,5.9368,5.9099,5.9282,6.1039,6.1884,6.1979,6.0968,6.0195,0.0,6.0917,6.0443,5.9742,6.1525,6.0747,5.8592,5.564,5.4016,5.345,5.4659,5.4659,5.5234,5.9133,6.0327,6.1105,6.3338,6.4671,6.5787,6.714,6.8064,6.8605,6.8605,6.8876,6.9372,7.0252,7.0894,7.1909,7.36,7.439,7.5349,7.6872,7.7435,7.7502,7.7075,7.801,7.8653,7.8653,8.0412,8.1481,8.1481,8.2171,8.2712,8.3016,8.2306,8.2103,8.2395,8.2395,8.2631,8.305,8.305,8.324,8.3667,8.3667,8.3667,8.37,8.4018,8.4153,8.4187,8.4979,8.4296,8.2865,8.3556,8.2795,8.1386,8.2171,8.2738,8.3081,2.67,2.67,2.67,2.67,2.67,2.7139,2.8459,2.887,2.9653,3.1476,3.1947,3.2631,3.4076,3.5622,3.6917,3.7795,4.2579,4.5953,4.6961,5.1929,5.5431,5.6778,5.7483,5.8457,5.9787,6.0475,6.1164,6.1822,6.1822,6.1986,6.2269,6.1283,6.1343,6.2255,6.2255,6.1986,6.1567,6.1567,6.0878,5.9787,5.9308,5.9298,5.9825,6.174,6.2512,6.2386,6.0741,5.999,5.9834,6.0216,5.9945,5.9742,6.1424,6.0544,5.8481,5.6341,5.5166,5.5319,5.8601,5.8549,5.8819,6.4082,6.4827,6.4624,6.5977,6.688,6.758,6.8132,6.8707,6.9147,6.9383,6.9586,7.0117,7.1402,7.1943,7.3025,7.5371,7.5879,7.6589,7.8111,7.8957,7.9099,7.8316,7.9137,7.9803,7.9993,8.1684,8.2598,8.2395,8.3084,8.349,8.349,8.2983,8.28,8.3003,8.3003,8.3274,8.3795,8.3795,8.4086,8.4614,8.483,8.4931,8.4931,8.5168,8.5134,8.4938,8.524,8.438,8.2865,8.3099,8.2139,8.0637,8.0825,8.171,8.2748,2.67,2.67,2.67,2.67,2.67,2.6966,2.7722,2.8484,2.9271,3.0069,3.0867,3.1897,3.3355,3.5436,3.6663,3.6562,4.0873,4.4382,4.6204,4.9471,5.2815,5.6072,5.6808,5.7752,5.9099,5.9801,6.0446,6.112,6.112,6.0805,6.019,6.016,6.016,6.019,6.019,6.019,6.016,6.016,5.9771,5.9129,5.9129,5.9838,6.0938,6.1027,6.1313,6.1705,6.2136,6.0897,5.8921,5.8229,5.6571,5.5184,5.7383,5.7036,5.5834,5.5733,5.5166,5.5082,5.7349,6.0022,6.2594,6.4241,6.6779,6.8707,6.7996,6.8436,6.9045,6.9079,6.9079,6.9316,7.0037,7.0737,7.147,7.2225,7.3567,7.4784,7.5574,7.6352,7.7401,7.8877,7.9735,7.9841,7.8954,8.0285,8.1541,8.2259,8.3016,8.3152,8.2428,8.3084,8.349,8.349,8.349,8.3828,8.4512,8.4512,8.4546,8.458,8.458,8.458,8.4614,8.5418,8.577,8.5804,8.6535,8.6433,8.5696,8.4741,8.3383,8.1837,8.0812,7.9417,7.7991,7.8651,8.0559,8.2923,2.67,2.67,2.67,2.67,2.67,2.6763,2.7029,2.7702,2.8644,2.9929,3.119,0.0,0.0,0.0,0.0,0.0,3.9829,4.2299,4.4323,4.8262,5.1445,5.3456,5.5431,5.6898,5.7752,5.886,5.9548,5.9774,6.0671,6.097,6.0731,6.031,6.034,6.0745,6.031,5.9861,5.9428,5.9428,5.88,5.7782,5.7782,5.7624,5.7509,5.8362,5.835,5.7821,0.0,5.734,5.75,5.7239,5.6664,5.6528,5.9302,5.8761,5.734,5.8312,5.8457,5.9176,6.3396,6.529,6.6542,6.8527,6.9451,6.9766,6.9496,6.9248,6.9113,6.9113,6.988,7.0624,7.0861,7.1921,7.3003,7.3736,7.4695,7.5777,7.7041,7.7874,7.8493,7.8923,8.0118,8.0354,7.8838,8.0718,8.1236,7.9284,8.1857,8.2945,8.1604,8.2248,8.3136,8.4194,8.319,8.3283,8.458,8.4614,8.4614,8.4614,8.5148,8.5071,8.4399,8.4679,8.4184,8.3072,8.3348,8.3316,8.3075,8.3227,8.2318,8.086,8.0977,7.9982,7.8489,7.8717,7.9382,8.0176,2.67,2.67,2.67,2.67,2.67,0.0,0.0,0.0,0.0,0.0,0.0,0.0,0.0,0.0,0.0,0.0,0.0,4.0578,4.2295,4.5789,4.8473,5.0032,5.2199,5.3558,5.3964,5.5042,5.5688,5.5914,5.7979,5.9129,5.9368,6.0116,6.0685,6.106,6.0386,5.9861,5.9455,5.9398,5.8884,5.8044,5.7464,5.6924,5.6545,5.684,5.6197,0.0,5.4719,5.4702,5.4828,5.5108,5.5378,5.608,5.8829,5.9066,5.8727,6.1028,6.1163,6.1603,6.6576,6.8098,6.8808,7.0793,7.1142,7.0917,7.0635,7.0432,7.0297,7.0297,7.1436,7.2417,7.2112,7.3274,7.4537,7.5292,7.6048,7.7041,7.8563,7.8712,7.8713,7.8892,7.9555,7.943,7.7891,7.9997,8.0603,7.8487,8.0712,8.175,8.0685,8.1098,8.1824,8.2839,8.2444,8.243,8.2886,8.3448,8.3568,8.3223,8.3953,8.413,8.3759,8.3759,8.3134,8.2093,8.2396,8.2364,8.211,8.2236,8.1653,8.0673,8.0533,7.9786,7.8807,7.8807,7.8807,7.8807,2.67,2.67,2.67,0.0,0.0,0.0,0.0,0.0,0.0,0.0,0.0,0.0,0.0,0.0,0.0,0.0,0.0,0.0,4.0178,4.2185,4.4197,4.6077,4.748,4.824,4.8325,4.8921,4.9535,5.0088,5.3324,5.5222,5.5923,5.9039,6.0492,6.0462,5.9872,5.9586,5.9507,5.9456,5.9383,5.9198,5.7637,5.7292,5.7551,5.6142,5.4584,5.3247,5.4,5.2875,5.1201,5.2021,5.2976,5.4152,5.6393,5.8109,5.9994,6.37,6.3294,6.2584,6.6948,6.8619,6.9488,7.0929,7.1818,7.2156,7.1469,7.1796,7.2293,7.2293,7.3375,7.4108,7.3387,7.4559,7.5879,7.6657,7.742,7.8431,7.9871,7.8783,7.8061,7.8693,7.8157,7.7305,7.6234,7.8281,7.9635,7.9559,7.9696,7.9757,7.9666,7.9666,7.9727,7.9802,8.1209,8.1271,7.9867,8.138,8.1709,8.0766,8.1454,8.211,8.278,8.278,8.2765,8.2748,8.3482,8.3386,8.262,8.175,8.1382,8.1193,7.9566,7.8878,7.8878,7.8878,7.8878,7.8849,0.0,0.0,0.0,0.0,0.0,0.0,0.0,0.0,0.0,0.0,0.0,0.0,0.0,0.0,0.0,0.0,0.0,0.0,3.8307,4.0148,4.2108,4.4188,4.5906,4.7342,4.8496,4.853,4.8637,4.8775,5.0133,5.0905,5.1085,5.1911,5.23,5.2336,5.2749,5.2346,5.1388,5.2593,5.2505,5.15,5.1726,5.1411,5.0761,5.0401,4.9518,4.862,4.9349,4.9586,4.9822,5.1683,5.4659,5.8008,6.0259,6.1975,6.369,6.6305,6.6677,6.6948,7.0331,7.0617,7.0132,7.106,7.1425,7.1536,7.1325,7.1019,7.0748,7.0748,7.0635,7.0432,7.0263,7.2755,7.4953,7.5156,7.6266,7.7397,7.8285,7.7553,7.693,7.6879,7.7774,7.7525,7.5459,7.6855,7.745,7.6233,7.8424,7.925,7.8012,7.7948,7.8518,7.9757,7.8987,7.9162,8.0462,8.1375,8.1744,8.1595,8.2204,8.2505,8.2492,8.2492,8.2083,8.1304,8.1522,8.1504,8.1299,8.1045,8.0955,8.09,8.0468,8.0285,8.0285,8.0285,7.9986,7.9548,0.0,0.0,0.0,0.0,0.0,0.0,0.0,0.0,0.0,0.0,0.0,0.0,0.0,0.0,0.0,0.0,0.0,0.0,0.0,3.8616,4.0095,4.0972,4.2575,4.3982,4.5181,4.4739,4.4788,4.5394,4.6533,4.7271,4.757,4.8738,4.9288,4.9333,5.0151,5.0026,4.9385,5.0941,5.1106,0.0,0.0,4.9428,4.8522,4.7882,4.708,4.6413,4.7158,4.8308,4.9999,5.3551,5.7103,6.0443,6.3033,6.4647,6.6058,6.8639,6.8933,6.9011,7.1684,7.1787,7.1264,7.1692,7.1578,7.1251,7.0884,7.0502,7.0092,6.978,6.9654,6.9868,7.0849,7.3003,7.5156,7.678,7.7429,7.7874,7.8269,7.7242,7.6272,7.5818,7.6224,7.6125,7.5001,7.5712,7.5866,7.4971,7.6615,7.724,7.6302,7.6235,7.6667,7.7611,7.7434,7.8052,7.9637,7.9883,8.0174,8.0535,8.1186,8.1571,8.1695,8.1695,8.1365,8.0794,0.0,8.0794,8.0794,8.0794,8.0794,8.0794,8.0794,8.0794,8.0794,8.0794,8.0554,8.0237,0.0,0.0,0.0,0.0,0.0,0.0,0.0,0.0,0.0,3.0606,3.1021,3.1674,0.0,0.0,0.0,0.0,0.0,0.0,0.0,0.0,3.8218,3.7851,3.8929,3.9952,4.0875,4.0067,4.0278,4.1586,4.2995,4.4068,4.4911,4.7127,4.8232,4.8354,4.9168,4.9471,4.9471,5.0925,5.1474,5.1244,4.9904,4.8992,4.8274,0.0,4.6116,4.5669,4.6488,4.8146,5.0785,5.6233,5.9573,6.2009,6.5165,6.6606,6.7669,7.0478,7.0344,6.9715,7.1704,7.2202,7.2104,7.2011,7.1557,7.0898,7.0074,6.9821,6.9559,6.8816,6.9011,7.0003,7.2203,7.3146,7.4774,7.8327,7.8093,7.7617,7.7934,7.6612,7.5468,7.508,7.4423,7.4257,7.4826,7.4886,7.4886,7.4886,7.4886,7.4886,7.4886,7.4886,7.4946,7.5035,7.6541,7.7656,7.824,7.8216,7.846,7.8938,7.9608,8.0266,8.0943,8.0943,8.0973,8.1063,8.1063,8.1063,8.1063,8.1063,8.1063,8.1063,8.1063,8.1063,8.1063,8.1063,8.1003,8.0943,0.0,0.0,0.0,0.0,0.0,0.0,0.0,0.0,0.0,0.0,3.2418,3.2627,0.0,0.0,0.0,0.0,0.0,0.0,0.0,0.0,0.0,3.8631,3.8287,3.897,4.0943,4.0193,4.019,4.1039,4.0628,4.1153,4.2577,4.2319,4.2581,4.3289,4.4178,4.4161,4.3587,4.5269,4.5583,4.4945,4.5383,4.5488,4.5352,4.5082,0.0,0.0,4.6319,4.7834,5.0168,5.6655,6.0317,6.2966,6.7184,6.8651,6.9111,7.0804,7.0728,7.0292,7.1245,7.1093,7.0513,6.9909,6.9666,6.9352,6.8563,6.7906,6.7263,6.6457,6.5425,6.5347,6.7546,6.8205,6.9237,7.1772,7.103,7.0711,7.2397,7.215,7.2395,7.3944,7.4457,7.4766,7.4886,7.4886,7.4886,7.4886,7.4886,7.4886,7.4886,7.4886,7.5155,7.5707,7.7022,7.775,7.7871,7.9472,8.0075,7.9638,8.0315,8.0973,8.162,8.162,8.1919,8.2447,8.2447,0.0,8.2447,8.2447,8.2447,8.2447,8.2447,8.2447,8.2447,8.2447,8.2099,8.162,0.0,0.0,0.0,0.0,0.0,0.0,0.0,3.2293,3.2694,3.3834,3.3665,3.3704,3.4415,3.4511,3.481,0.0,0.0,0.0,0.0,0.0,0.0,3.7776,3.7819,3.8652,4.0494,3.9703,3.9822,4.0954,0.0,4.0087,4.0863,4.0443,4.0673,4.1469,4.2354,4.2505,4.2192,4.3432,4.3728,4.3382,4.3798,4.4228,4.4608,0.0,0.0,0.0,4.6252,4.7496,4.9273,5.4837,5.8195,6.1173,6.7624,6.9731,6.9637,6.8914,6.9468,7.0075,6.8983,6.9478,7.0113,6.9389,6.8619,6.7748,6.6538,6.6001,6.5413,6.4223,6.3439,6.3529,6.5495,6.6455,6.7531,6.9272,6.999,7.0406,7.0742,7.1767,7.2684,7.3313,7.4287,7.4886,7.4886,7.4886,7.4886,7.4886,7.4886,7.4886,7.4886,7.4886,7.5365,7.6347,7.7305,7.816,7.883,8.0135,8.0823,8.0853,8.1171,8.168,8.2309,8.2309,8.2507,8.2806,8.2806,8.2806,8.2806,8.2806,8.2806,8.2806,8.2806,8.2806,8.2806,8.2806,8.2597,8.2309,0.0,0.0,0.0,0.0,0.0,0.0,3.2418,3.2666,3.3236,3.4573,3.4748,3.4748,3.4748,3.4748,3.4974,0.0,0.0,0.0,0.0,0.0,0.0,0.0,0.0,0.0,3.9838,0.0,0.0,4.1028,4.023,0.0,0.0,0.0,0.0,0.0,4.1928,4.2211,4.2254,4.2912,4.3152,0.0,0.0,4.3639,0.0,0.0,0.0,0.0,0.0,4.7158,4.8402,5.3213,5.6199,5.9176,6.6485,6.8536,6.8021,6.662,6.7433,6.8459,6.6895,6.8145,6.971,6.9071,6.8076,6.6776,6.5082,6.4684,6.4155,6.23,6.1917,6.2434,6.4189,6.5023,6.5847,6.7115,6.8654,6.9594,6.9214,7.1182,7.2684,7.2877,7.4061,7.4886,7.4886,7.4886,7.4886,7.4886,7.5035,7.5095,7.5095,7.5245,7.5886,7.7185,7.8023,7.9028,8.0225,8.0883,8.15,8.2009,8.2009,8.2297,8.2806,8.2806,8.2806,8.2806,8.2806,8.2806,8.2806,8.2806,8.2806,8.2806,8.2806,8.2806,8.2806,8.2937,8.2997,8.2997,0.0,0.0,0.0,0.0,0.0,0.0,3.3186,3.3863,3.4579,3.5402,3.5504,3.5504,3.5504,3.5504,3.5538,0.0,0.0,0.0,0.0,0.0,0.0,0.0,0.0,0.0,0.0,0.0,0.0,4.1194,4.0328,0.0,0.0,0.0,0.0,0.0,0.0,4.2294,4.2301,4.2368,0.0,0.0,0.0,0.0,0.0,0.0,0.0,0.0,0.0,4.6827,4.7808,5.3644,5.6621,5.8635,6.2811,6.3032,6.2318,6.5107,6.4988,6.4384,6.6475,6.7694,6.8362,6.8152,6.8006,6.7336,6.5099,6.4627,6.3782,6.0928,6.0317,6.0876,6.2679,6.1913,6.1401,6.2688,6.2351,6.275,6.5153,6.7256,6.9618,7.2548,7.4061,7.4886,7.4886,7.4886,7.4886,7.4886,7.5467,7.5826,7.5826,7.6317,7.7245,7.8579,7.9866,8.0883,8.162,8.2297,8.2657,8.2717,8.2717,8.2747,8.2806,8.2806,8.2806,8.2806,8.2806,8.2806,0.0,8.2806,8.2806,8.2806,8.2806,8.2806,8.2866,8.3408,8.3617,8.3707,0.0,0.0,0.0,0.0,0.0,0.0,3.3283,3.4037,3.4776,3.5504,3.56,3.56,3.56,3.56,3.56,3.56,0.0,0.0,0.0,0.0,0.0,0.0,0.0,0.0,0.0,0.0,3.9073,4.054,4.0203,0.0,0.0,0.0,0.0,0.0,0.0,4.1644,4.1644,4.1644,0.0,0.0,0.0,0.0,0.0,0.0,0.0,0.0,0.0,0.0,4.7368,5.1082,5.3315,5.504,5.7906,5.8169,5.7887,6.0357,6.2572,6.3932,6.2619,6.5157,6.8116,6.8013,6.7373,6.6429,6.4941,6.3444,6.1761,5.9587,5.8593,5.8109,5.8107,5.8502,5.8798,5.8651,6.0239,6.2601,6.5772,6.8256,7.0845,7.3778,7.4929,7.5018,7.3821,7.4437,7.5065,7.5467,7.5736,7.6425,7.7562,7.7484,7.8202,7.9956,8.0524,8.1321,8.2387,8.2657,8.2806,8.2806,8.2806,8.2806,8.2806,8.2806,8.2806,8.2806,8.2806,8.2806,0.0,8.2806,8.2806,8.2806,8.2806,8.3027,8.3367,8.3617,8.3688,8.3707,0.0,0.0,0.0,0.0,0.0,3.2853,3.3626,3.4365,3.5008,3.5532,3.56,3.56,3.56,3.56,3.56,3.56,3.56,0.0,0.0,0.0,0.0,0.0,0.0,0.0,0.0,0.0,3.8842,4.0113,4.0113,4.0113,0.0,0.0,4.0371,4.0865,0.0,0.0,0.0,0.0,0.0,0.0,0.0,0.0,0.0,0.0,0.0,0.0,0.0,0.0,0.0,0.0,0.0,5.263,5.4456,5.5295,5.5964,5.7759,6.0122,6.1928,6.0763,6.334,6.66,6.7725,6.6685,6.5117,6.4014,6.1813,5.9496,5.7706,5.6706,5.5855,5.4867,5.6218,5.7186,5.6355,5.9074,6.257,6.6207,6.8794,7.1248,7.3719,7.4796,7.4689,7.3057,7.4091,7.5185,7.5856,7.6048,7.7006,7.8998,7.8849,7.9417,8.1033,8.1291,8.183,8.2776,8.2806,8.2806,8.2806,8.2806,8.2806,8.2806,8.2806,8.2806,8.2806,8.2806,8.2806,0.0,8.2806,8.2806,8.2806,8.2806,8.3158,8.3688,8.3688,8.3688,8.3647,0.0,0.0,0.0,0.0,0.0,0.0,3.4381,3.5103,3.5605,3.56,3.56,3.56,3.56,3.56,3.56,3.56,3.56,0.0,0.0,0.0,0.0,0.0,0.0,0.0,0.0,0.0,3.9356,4.0113,4.0113,4.0113,4.0113,4.0113,4.0113,4.0106,0.0,0.0,0.0,0.0,0.0,0.0,0.0,0.0,4.2469,0.0,0.0,0.0,0.0,0.0,0.0,0.0,0.0,0.0,0.0,5.5031,5.7086,5.8713,5.7689,5.7107,6.2245,6.2911,6.3108,6.7029,6.5997,6.362,6.2156,5.9752,5.7236,5.5081,5.4642,5.4476,5.4001,5.5468,5.6593,5.6252,5.8276,6.1353,6.5442,6.7747,6.9752,7.1713,7.3103,7.3642,7.2967,7.4091,7.5185,7.5856,7.6467,7.7664,7.9668,8.0405,8.1063,8.177,8.2428,8.2776,8.2806,8.2806,8.2806,8.2806,8.2806,8.2806,8.2806,8.2806,8.2806,8.2806,8.2806,8.2806,0.0,8.2806,8.2806,8.2806,8.2806,8.3158,8.3688,8.3688,8.3688,8.3688,0.0,0.0,0.0,0.0,0.0,0.0,3.4376,3.5143,3.56,3.56,3.56,3.56,3.56,3.56,3.56,3.56,3.56,0.0,0.0,0.0,0.0,0.0,0.0,0.0,0.0,0.0,3.9356,4.0113,4.0113,4.0377,4.0832,4.0832,4.1109,4.1589,4.1589,4.1312,0.0,0.0,0.0,0.0,0.0,4.2293,4.2462,0.0,0.0,0.0,0.0,0.0,0.0,0.0,0.0,0.0,0.0,0.0,0.0,5.7118,5.8168,5.9046,5.9902,6.0675,6.1621,6.3348,6.1863,5.98,5.9184,5.7142,5.497,5.3697,5.2812,5.236,5.2667,5.3605,5.4732,5.599,5.7609,6.0565,6.5922,6.8016,7.0231,7.3569,7.3522,7.3492,7.4197,7.4257,7.4869,7.6407,7.7125,7.8352,8.0375,8.0674,8.1321,8.2447,8.2687,8.2806,8.2806,8.2806,8.2806,8.2806,8.2806,8.2806,8.2806,8.2806,8.2806,8.2806,8.2806,8.2806,8.2806,8.2806,8.2806,8.2806,8.2806,8.3158,8.3628,8.3247,8.3087,8.2967,0.0,0.0,0.0,0.0,0.0,0.0,0.0,3.5143,3.56,3.56,3.56,3.56,3.56,3.56,3.56,3.56,3.56,0.0,0.0,0.0,0.0,0.0,0.0,0.0,0.0,3.9309,4.006,4.0506,4.0777,4.1183,4.161,4.161,4.1853,4.2293,4.2293,4.2056,0.0,0.0,0.0,0.0,4.1515,4.2219,4.2861,0.0,0.0,0.0,0.0,0.0,0.0,0.0,0.0,0.0,0.0,0.0,0.0,0.0,5.7586,5.8962,5.909,5.954,6.0179,6.1175,5.949,5.7463,5.6939,5.4854,5.29,5.2353,5.1915,5.1696,5.2127,5.3156,5.4773,5.727,5.8321,6.0954,6.6909,6.8271,6.9917,7.3359,7.3253,7.3223,7.4061,7.445,7.524,7.6689,7.7424,7.8699,8.0704,8.0794,8.1411,8.2747,8.2806,8.2806,8.2806,8.2806,8.2806,8.2806,8.2806,8.2806,8.2806,8.2806,8.2806,8.2806,8.2806,8.2806,0.0,8.2806,8.2806,8.2806,8.2806,8.3027,8.3277,8.2638,8.2249,8.189,0.0,0.0,0.0,0.0,0.0,0.0,0.0,3.5075,3.5538,3.56,3.56,3.56,3.56,3.56,3.56,3.56,0.0,0.0,0.0,0.0,0.0,0.0,0.0,0.0,3.9051,4.046,4.1238,4.1271,4.1948,4.2327,4.2394,4.2394,4.2394,4.2469,4.2469,4.2428,0.0,0.0,0.0,0.0,4.1271,4.2138,0.0,0.0,0.0,0.0,0.0,0.0,0.0,0.0,0.0,0.0,0.0,0.0,0.0,0.0,0.0,0.0,0.0,5.9155,5.8648,6.0011,5.8449,5.6227,5.5168,5.3025,0.0,5.1265,5.1786,5.2276,5.2336,5.4012,5.6419,5.9472,6.016,6.2285,6.7926,6.8451,6.9199,7.1743,7.2624,7.3057,7.3116,7.4822,7.6228,7.6826,7.7484,7.8759,8.0764,8.0823,8.1411,8.2747,8.2806,8.2806,8.2806,8.2806,8.2806,8.2806,8.2806,8.2806,8.2806,8.2806,8.2806,0.0,8.2806,8.2806,8.2806,8.2806,8.2806,8.2806,8.2806,8.2776,8.2657,8.1979,8.1302,8.0644,0.0,0.0,0.0,0.0,0.0,0.0,0.0,0.0,0.0,0.0,3.56,3.56,3.56,3.56,3.56,0.0,0.0,0.0,0.0,0.0,0.0,0.0,0.0,0.0,3.9802,4.073,4.1474,4.2056,4.2232,4.2597,4.3152,4.3152,4.347,4.4066,4.4066,4.3714,0.0,0.0,0.0,0.0,4.2056,4.2584,0.0,0.0,0.0,0.0,4.4608,4.4709,0.0,0.0,0.0,0.0,0.0,0.0,0.0,0.0,5.5344,5.693,5.7446,0.0,5.6629,5.6164,5.4914,5.351,0.0,5.2055,5.1977,5.1977,5.2498,5.3126,5.3653,5.5765,5.7679,5.8457,6.0715,6.3213,6.5607,6.8854,7.1593,7.3223,7.4018,7.4629,7.5168,7.6048,7.6856,7.7514,7.819,7.9417,8.1471,8.1063,8.1411,8.2747,8.2806,8.2806,8.2806,8.2806,8.2806,8.2806,8.2806,8.2806,8.2806,8.2806,8.2806,8.2806,8.2806,8.2806,8.2806,8.2806,8.2806,8.2806,8.2806,8.2507,8.1949,8.1272,8.0614,7.9937,0.0,0.0,0.0,0.0,0.0,0.0,0.0,0.0,0.0,0.0,0.0,3.56,3.56,3.56,0.0,0.0,0.0,0.0,0.0,0.0,0.0,0.0,0.0,3.9451,4.0567,4.1671,4.2415,4.2787,4.3173,4.3545,4.3944,4.3944,4.4188,4.4608,4.4608,4.4154,0.0,0.0,0.0,4.2794,4.2428,0.0,0.0,0.0,0.0,0.0,4.4608,4.4608,0.0,4.5913,4.6515,4.7131,0.0,0.0,0.0,0.0,5.46,5.5953,5.663,5.6514,5.5949,5.4879,5.3742,5.267,5.184,5.1947,5.2276,5.2618,5.3426,5.4234,5.4581,5.6782,5.9265,6.1389,6.3258,6.5293,6.7791,7.0859,7.309,7.3821,7.4749,7.5395,7.5455,7.6258,7.7095,7.7753,7.843,7.9675,8.168,8.1153,8.1411,8.2747,8.2806,8.2806,8.2806,8.2806,8.2806,8.2806,8.2806,8.2806,8.2806,8.2806,8.2806,8.2806,8.2806,8.2627,8.2357,8.2357,8.2159,8.189,8.189,8.1471,8.0823,8.0464,7.9926,7.9297,0.0,0.0,0.0,0.0,0.0,0.0,0.0,0.0,0.0,0.0,0.0,0.0,0.0,0.0,0.0,0.0,0.0,0.0,0.0,0.0,0.0,0.0,3.9423,4.0506,4.1339,4.2713,4.3457,4.3592,4.4262,4.4608,4.4608,4.4608,4.4608,4.4608,4.4608,4.4222,0.0,0.0,4.2895,4.3531,4.276,0.0,0.0,0.0,0.0,0.0,0.0,0.0,0.0,4.5466,4.6177,4.703,4.8409,0.0,0.0,0.0,0.0,0.0,5.608,5.6179,5.5806,5.5192,5.3941,5.2855,5.2683,5.2486,5.2576,5.3336,5.4743,5.588,5.6209,5.856,6.1732,6.5682,6.6535,6.7926,7.1294,7.2984,7.3881,7.3881,7.4988,7.5557,7.5095,7.6108,7.7095,7.7753,7.8519,7.9794,8.171,8.1242,8.153,8.2747,8.2806,8.2806,8.2806,8.2806,8.2806,8.2806,8.2806,8.2747,8.2657,8.2657,8.2597,8.2488,0.0,0.0,8.165,8.165,8.1302,8.0794,8.0794,8.0405,7.9788,7.9788,7.9387,7.8807,0.0,0.0,0.0,0.0,0.0,0.0,0.0,0.0,0.0,0.0,0.0,0.0,0.0,0.0,0.0,0.0,0.0,0.0,0.0,0.0,0.0,3.9697,3.9999,4.0749,4.209,4.2949,4.3734,4.4432,4.454,4.4608,4.4608,4.4608,4.4608,4.4608,4.4608,4.4533,4.4364,4.3565,4.3707,4.4364,4.3565,0.0,0.0,0.0,0.0,0.0,0.0,0.0,0.0,4.5466,4.6177,4.6962,4.7793,0.0,0.0,0.0,0.0,0.0,5.4623,5.463,5.5203,5.6667,5.4956,5.3213,5.4458,5.3875,5.3408,5.4653,5.6825,5.9009,6.0715,6.4111,6.688,6.7583,6.9079,7.038,7.0979,7.2684,7.3881,7.3881,7.4587,7.5245,7.5707,7.6377,7.7095,7.7753,7.895,8.0285,8.171,8.171,8.2009,8.2776,8.2806,8.2806,8.2806,8.2806,8.2806,8.2806,8.2806,8.2507,8.1949,8.1949,8.165,8.1093,0.0,8.1033,8.0943,8.0943,8.0883,8.0794,8.0794,8.0405,7.9788,7.9788,7.9387,7.8807,0.0,0.0,0.0,0.0,0.0,0.0,0.0,0.0,0.0,0.0,0.0,0.0,0.0,0.0,0.0,0.0,0.0,0.0,0.0,0.0,3.8553,4.0035,4.0865,4.1785,4.2855,4.3639,4.4228,4.4608,4.4608,4.4608,4.4608,4.4608,4.4608,4.4608,4.4608,4.4608,4.4574,4.4228,4.4255,4.4574,0.0,0.0,0.0,0.0,0.0,0.0,0.0,0.0,0.0,0.0,4.5846,4.6861,4.7192,0.0,0.0,0.0,0.0,0.0,5.4197,5.4016,5.4783,5.7949,5.6405,5.451,5.5918,5.6855,5.7124,5.597,5.8394,6.1014,6.1942,6.4141,6.6775,6.9648,7.1773,7.3283,7.3984,7.4582,7.4988,7.4988,7.5557,7.6066,7.6347,7.7275,7.831,7.9357,7.9967,8.0913,8.2268,8.2009,8.2099,8.2776,8.2806,8.2806,8.2806,8.2806,8.2806,8.2806,8.2806,8.2447,8.18,8.18,8.1422,8.0794,0.0,8.0584,8.0266,8.0644,8.0375,7.9746,8.0135,7.9866,7.9267,7.9267,7.9058,7.8807,0.0,0.0,0.0,0.0,0.0,0.0,0.0,0.0,0.0,0.0,0.0,0.0,0.0,0.0,0.0,0.0,0.0,0.0,0.0,3.7584,3.8728,4.0548,4.1711,4.2658,4.3382,4.4188,4.4608,4.4608,4.4608,4.4709,4.4871,4.4871,4.4871,4.4838,4.4675,4.4608,0.0,4.4608,4.4608,4.4608,0.0,0.0,0.0,0.0,0.0,0.0,0.0,0.0,0.0,0.0,0.0,0.0,0.0,0.0,0.0,5.1404,5.3551,5.5595,5.4237,5.4442,5.5651,5.8307,5.7049,5.582,5.8171,5.9953,6.0551,5.8664,6.1058,6.3662,6.429,6.5443,6.7657,7.1713,7.3659,7.5125,7.6407,7.6198,7.5856,7.5677,7.6198,7.6647,7.6779,7.8011,7.9297,8.0494,8.0853,8.15,8.2507,8.2238,8.2249,8.2776,8.2806,8.2806,8.2806,8.2806,8.2806,8.2806,8.2627,8.2189,8.156,8.1411,8.0992,8.0315,8.0315,8.0135,7.9818,8.0195,7.9806,7.9058,7.9447,7.9267,7.8807,7.8807,7.8807,7.8807,0.0,0.0,0.0,0.0,0.0,0.0,0.0,0.0,0.0,0.0,0.0,0.0,0.0,0.0,0.0,0.0,0.0,0.0,0.0,3.7883,3.9174,4.2022,4.2225,4.2658,4.3382,4.4188,4.4608,4.4608,4.4608,4.4939,4.5628,4.5628,4.5628,4.5594,4.4905,0.0,0.0,0.0,4.4608,4.4608,4.4608,0.0,0.0,0.0,0.0,0.0,0.0,0.0,0.0,0.0,0.0,0.0,0.0,0.0,5.1336,5.2021,5.5784,5.8786,5.4675,5.6467,5.9029,5.6975,5.5837,5.6658,6.2241,6.2271,6.1718,6.3917,6.6071,6.8317,7.0755,7.2312,7.3313,7.3702,7.3881,7.445,7.5796,7.5946,7.5677,7.5035,7.5557,7.6168,7.6766,7.8011,7.9088,7.9818,8.1003,8.177,8.186,8.2417,8.2747,8.2806,8.2806,8.2806,8.2806,8.2806,8.2806,8.2776,8.2159,8.153,8.0853,8.0207,7.9597,7.8956,7.8956,7.9267,7.9758,7.9178,7.9238,7.9668,7.9088,7.8819,7.8807,7.8807,7.8807,7.8807,0.0,0.0,0.0,0.0,0.0,0.0,0.0,0.0,0.0,0.0,0.0,0.0,0.0,0.0,0.0,0.0,0.0,0.0,0.0,3.7916,3.9208,4.2158,4.2293,4.2868,4.412,4.4432,4.4608,4.4608,4.5074,4.5676,4.638,4.5899,4.5696,4.5662,0.0,0.0,0.0,0.0,0.0,4.4608,4.4608,4.4608,0.0,0.0,0.0,0.0,0.0,0.0,0.0,0.0,4.5582,4.6793,4.6793,4.8808,5.1214,5.1293,5.3684,5.5736,5.3164,5.5478,5.8622,5.8631,5.9395,6.0579,6.2391,6.5084,6.6774,6.5293,6.7552,7.0127,7.1098,7.2385,7.3402,7.3821,7.3552,7.3762,7.5095,7.5275,7.5185,7.4916,7.5497,7.6455,7.7921,7.8878,8.0045,8.156,8.2129,8.2417,8.2417,8.2657,8.2806,8.2806,8.2806,8.2806,8.2806,8.2806,8.2597,8.2159,8.1919,8.1231,8.0177,7.9907,7.9429,7.8807,7.8807,7.8938,7.9178,7.9357,7.9327,7.9148,7.8878,7.8807,7.8807,7.8807,7.7967,7.6811,0.0,0.0,0.0,0.0,0.0,0.0,0.0,0.0,0.0,0.0,0.0,0.0,0.0,0.0,0.0,0.0,0.0,0.0,3.7815,3.8119,3.9445,4.2191,4.2293,4.301,4.4574,4.4608,4.4608,4.4608,4.5575,4.6406,4.7124,4.638,4.6041,0.0,0.0,0.0,0.0,0.0,0.0,0.0,4.4608,4.4608,0.0,0.0,0.0,0.0,0.0,0.0,0.0,0.0,4.5582,4.6793,4.6793,4.8808,5.1183,5.1091,5.3132,5.4946,5.275,5.5743,5.9477,5.9208,6.1746,6.4261,6.4021,6.6759,6.8884,6.7223,6.9692,7.2086,7.1876,7.2428,7.3057,7.3522,7.3206,7.3373,7.4706,7.4886,7.4886,7.4886,7.5647,7.6856,7.8627,7.9597,8.0853,8.2657,8.2806,8.2806,8.2806,8.2806,8.2806,8.2806,8.2806,8.2806,8.2806,8.2597,8.2129,8.15,8.1272,8.0704,7.9788,7.9578,7.9238,7.8807,7.9028,7.9118,7.9148,7.9608,7.9417,7.8807,7.8807,7.8397,7.7791,7.7791,7.6446,7.4629,0.0,0.0,0.0,0.0,0.0,0.0,0.0,0.0,0.0,0.0,0.0,0.0,0.0,0.0,0.0,0.0,0.0,0.0,3.7849,3.8599,3.9992,4.2198,4.2293,4.301,4.4574,4.4608,4.4608,4.4608,4.6082,4.7192,4.7879,4.7158,0.0,0.0,0.0,0.0,0.0,0.0,0.0,0.0,4.4608,4.4608,4.4608,0.0,0.0,0.0,0.0,0.0,0.0,0.0,4.5582,4.6793,4.6793,4.8808,5.1276,5.1702,5.4993,5.7665,5.3954,5.8037,6.2332,5.819,6.2165,6.7194,6.7868,6.7014,6.6969,7.0231,7.306,7.4706,7.4048,7.3373,7.2907,7.2937,7.2907,7.3373,7.4706,7.4886,7.4886,7.4886,7.6036,7.7335,7.8669,8.0016,8.1351,8.2687,8.2806,8.2806,8.2806,8.2806,8.2806,8.2806,8.2806,8.2806,8.2806,8.2129,8.1471,8.0794,8.0117,7.9788,7.9758,7.9088,7.8807,7.8867,7.9489,7.9788,7.9788,7.9788,7.9399,7.8771,7.8771,7.745,7.5562,7.5562,7.4235,7.2466,0.0,0.0,0.0,0.0,0.0,0.0,0.0,0.0,0.0,0.0,0.0,0.0,0.0,0.0,0.0,0.0,0.0,0.0,3.7849,3.8599,3.9992,4.2198,4.2293,4.301,4.4574,4.4608,4.5115,4.6157,4.6597,4.7436,4.8638,4.7402,0.0,0.0,0.0,0.0,0.0,0.0,0.0,0.0,4.4608,4.4608,4.4608,0.0,0.0,0.0,0.0,0.0,0.0,0.0,0.0,0.0,4.6793,4.8808,5.1505,5.2984,5.5098,5.7014,5.7203,6.0805,6.4301,6.3554,6.6206,6.9227,6.9901,6.9722,6.9706,7.0709,7.3762,7.5749,7.418,7.3732,7.3911,7.4869,7.3804,7.3373,7.4706,7.4886,7.4886,7.4886,7.5647,7.6874,7.8627,7.9597,8.0853,8.2657,8.2806,8.2806,8.2806,8.2806,8.2806,8.2806,8.2806,8.2806,8.2806,8.2129,8.1471,8.0794,8.0117,7.9548,7.9088,7.8878,7.9058,7.9489,7.9698,7.9788,7.9758,7.9297,7.8108,7.6539,7.6539,7.5259,7.3401,7.3401,7.2082,7.0258,0.0,0.0,0.0,0.0,0.0,0.0,0.0,0.0,3.56,3.56,3.56,3.56,0.0,0.0,0.0,3.56,3.6597,0.0,3.7883,3.887,4.0168,4.1779,4.2124,4.301,4.4574,4.4608,4.5176,4.6346,4.6346,4.6955,4.8105,0.0,0.0,0.0,0.0,0.0,0.0,0.0,0.0,0.0,4.4608,4.4608,4.4608,0.0,0.0,0.0,0.0,0.0,0.0,0.0,0.0,0.0,4.6793,4.9262,5.2201,5.2449,5.4954,5.7686,5.7902,6.1598,6.5577,6.6221,6.8555,7.0889,7.1531,7.168,7.177,7.2026,7.4403,7.6078,7.4899,7.448,7.4646,7.5736,7.4659,7.4061,7.5155,7.5065,7.5006,7.5275,7.5886,7.6916,7.8627,7.9656,8.0823,8.2297,8.2657,8.2806,8.2806,8.2806,8.2806,8.2806,8.2806,8.2806,8.2806,8.186,8.1183,8.0794,7.9866,7.9327,7.9208,7.9208,7.9399,7.9788,7.9788,7.9937,8.0062,7.8279,7.6773,7.5505,7.4705,7.3088,7.1222,7.1222,6.987,6.8048,0.0,0.0,3.481,0.0,0.0,0.0,0.0,3.56,3.56,3.56,3.56,3.56,0.0,0.0,0.0,3.56,3.6963,3.7815,3.7916,3.922,4.0371,4.1163,4.1982,4.3044,4.4465,4.4574,4.4939,4.5594,4.5662,4.6075,4.6793,0.0,4.5696,0.0,0.0,0.0,0.0,0.0,0.0,0.0,4.4709,4.4675,4.4608,4.4608,0.0,0.0,0.0,0.0,0.0,0.0,0.0,0.0,4.6793,4.9784,5.2896,5.1024,5.4648,5.8929,5.7419,6.1343,6.6161,6.7194,6.9798,7.2312,7.3086,7.3206,7.3266,7.3642,7.4958,7.6006,7.5766,7.5335,7.5215,7.5886,7.5407,7.5215,7.5826,7.5395,7.5215,7.5826,7.6437,7.7335,7.8669,8.0016,8.1063,8.174,8.2417,8.2806,8.2806,8.2806,8.2806,8.2806,8.2806,8.2776,8.2717,8.1441,8.0764,8.0704,7.9417,7.9148,7.9788,7.9788,7.9738,7.9662,7.9603,7.9838,7.9946,7.6669,7.5202,7.4859,7.2951,7.0907,6.9011,6.9011,6.7822,6.6262,0.0,0.0,3.5402,3.5571,0.0,0.0,3.56,3.56,3.56,3.56,3.56,3.56,3.56,3.56,0.0,3.56,3.6468,3.7285,3.7843,3.8734,3.9823,4.113,4.2442,4.3321,4.3666,4.4296,4.4675,4.4838,4.5432,4.6075,0.0,0.0,0.0,4.5696,0.0,4.5466,0.0,0.0,0.0,0.0,4.5466,4.5135,4.4608,4.4608,4.4608,0.0,0.0,0.0,0.0,0.0,0.0,0.0,4.6793,4.8516,5.0876,5.2716,5.444,5.6861,6.1757,6.4141,6.6116,6.9901,7.2192,7.3911,7.557,7.5599,7.4719,7.2731,7.5018,7.6766,7.4719,7.5078,7.5886,7.6527,7.6078,7.5736,7.5886,7.5766,7.5736,7.5886,7.6437,7.7335,7.8669,8.0016,8.1063,8.174,8.2417,8.2806,8.2806,8.2806,8.2806,8.2806,8.2806,8.2567,8.2009,8.1212,8.0554,7.9997,7.9178,7.9148,7.9788,7.9788,7.9396,7.8688,7.8262,7.7181,7.5562,7.3874,7.2181,7.0617,7.015,6.8685,6.6788,6.6788,6.6793,6.6836,0.0,0.0,0.0,0.0,0.0,0.0,0.0,0.0,3.56,3.56,3.56,3.56,3.56,3.56,0.0,0.0,3.6671,3.7483,3.7883,3.891,4.0026,4.1163,4.1935,4.2679,4.3382,4.3802,4.4222,4.4608,4.5007,4.5372,0.0,0.0,0.0,4.5696,0.0,4.5899,0.0,0.0,0.0,0.0,0.0,4.6015,4.565,4.565,4.565,4.565,4.565,0.0,0.0,0.0,0.0,0.0,0.0,0.0,5.0989,5.1767,5.4048,5.739,6.2263,6.453,6.6595,7.1218,7.3389,7.4779,7.6437,7.6347,7.5587,7.448,7.5677,7.6365,7.4706,7.4946,7.5617,7.6258,7.6125,7.5988,7.6288,7.6078,7.6125,7.6754,7.6796,7.7335,7.8669,8.0016,8.0943,8.1272,8.2238,8.2806,8.2806,8.2806,8.2806,8.2806,8.2806,8.2477,8.18,8.1123,8.0464,7.9788,7.9447,7.9233,7.9138,7.9138,7.9035,7.8804,7.7117,7.5755,7.4511,7.2267,7.068,6.9546,6.8272,6.726,6.6538,6.6538,6.689,6.7439,0.0,0.0,0.0,0.0,0.0,0.0,0.0,0.0,0.0,3.56,3.56,3.56,3.56,3.56,3.56,0.0,0.0,0.0,3.7883,3.9288,4.0377,4.0967,4.113,4.184,4.3186,4.3315,4.3802,4.4608,4.4608,4.4608,0.0,0.0,0.0,4.5696,0.0,0.0,0.0,0.0,0.0,0.0,0.0,0.0,0.0,0.0,4.6894,4.6996,4.6996,4.6996,4.6996,4.6996,0.0,0.0,0.0,0.0,5.118,5.004,5.2971,5.7261,6.0386,6.3737,6.7448,7.195,7.3911,7.5065,7.6347,7.6168,7.5916,7.6527,7.6258,7.5707,7.5006,7.4886,7.5125,7.5796,7.6006,7.6228,7.6719,7.6557,7.6754,7.7694,7.7424,7.7574,7.8687,8.0016,8.0794,8.0794,8.2039,8.2806,8.2806,8.2806,8.2806,8.2806,8.2806,8.2417,8.165,8.1063,8.0239,7.9084,7.8941,7.8488,7.7831,7.754,7.7741,7.8123,7.5646,7.4346,7.3766,7.0878,6.97,6.9483,6.7271,6.6689,6.7138,6.7138,6.7467,6.7995,0.0,0.0,0.0,0.0,0.0,0.0,0.0,0.0,0.0,0.0,3.56,3.56,3.56,3.56,3.56,3.56,3.6434,3.7218,3.7849,0.0,0.0,4.0242,4.0872,4.1603,4.2428,4.3051,4.3802,4.4608,4.4608,4.4608,0.0,0.0,0.0,4.573,0.0,0.0,0.0,0.0,0.0,0.0,0.0,0.0,0.0,0.0,0.0,4.7752,4.7752,4.7752,4.7752,4.7752,4.7819,0.0,0.0,0.0,4.8752,4.9502,5.0059,5.1552,5.6449,6.2644,6.869,7.2744,7.3881,7.439,7.5736,7.5497,7.5215,7.5886,7.5976,7.5707,7.5006,7.4886,7.5125,7.5796,7.6347,7.6706,7.6779,7.7741,7.825,7.7861,7.822,7.8579,7.8759,8.0016,8.0794,8.0794,8.2039,8.2806,8.2806,8.2806,8.2806,8.2806,8.2806,8.2189,8.0943,8.0853,7.9226,7.615,7.5402,7.5218,7.5499,7.4152,7.3604,7.363,7.2723,7.1226,6.9409,6.8466,6.8104,6.806,6.7703,6.7618,6.7693,6.7693,6.8045,6.85,0.0,0.0,0.0,0.0,0.0,0.0,0.0,0.0,0.0,0.0,0.0,3.6428,3.6828,3.6896,3.6896,3.6896,3.7584,3.834,3.9085,3.9734,4.0113,4.0113,4.0405,4.1109,4.2259,4.2625,4.3376,4.4608,4.4608,4.4608,0.0,4.4608,4.521,0.0,0.0,0.0,0.0,0.0,0.0,0.0,4.9747,4.9544,0.0,0.0,0.0,0.0,0.0,0.0,0.0,4.9747,4.9373,4.8854,4.8573,0.0,0.0,0.0,4.9624,5.0858,5.5777,6.2959,6.9393,7.0799,7.3103,7.5168,7.5766,7.5677,7.5527,7.5856,7.5916,7.5707,7.5006,7.4886,7.5006,7.5305,7.6168,7.6779,7.6779,7.7951,7.8819,7.889,7.8849,7.8938,7.9327,8.0225,8.0794,8.0794,8.2039,8.2806,8.2806,8.2806,8.2806,8.2806,8.2447,8.177,8.0823,7.9239,7.724,7.4851,7.3527,7.3227,7.375,7.1791,7.1593,7.2714,7.118,6.9936,6.9027,6.8475,6.8249,6.8221,6.7919,6.7995,6.8249,6.8249,6.8575,6.9029,0.0,0.0,0.0,0.0,0.0,0.0,0.0,0.0,0.0,0.0,0.0,3.7285,3.7849,0.0,0.0,0.0,3.8565,3.9322,4.0045,4.0113,4.0113,4.0113,4.0113,4.0783,4.2266,4.2293,4.3044,4.4608,4.4608,4.4608,4.4608,4.4608,4.5379,0.0,4.6793,0.0,0.0,0.0,0.0,0.0,5.1404,5.148,0.0,0.0,0.0,0.0,0.0,0.0,0.0,0.0,0.0,0.0,4.9861,4.9292,0.0,0.0,0.0,5.1463,5.6094,6.2017,6.7283,6.8838,7.1727,7.442,7.5407,7.5527,7.5497,7.5826,7.5916,7.5736,7.5245,7.5006,7.4886,7.4886,7.5976,7.6779,7.6779,7.8083,7.9238,7.9728,7.9507,7.9507,7.9997,8.0674,8.1033,8.1033,8.2129,8.2806,8.2806,8.2806,8.2806,8.2806,8.2129,8.1228,7.999,7.6636,7.4509,7.365,7.183,7.1327,7.1874,7.0162,7.0318,7.183,7.0142,6.9406,6.9356,6.8977,6.8801,6.8776,6.8349,6.845,6.8801,6.8801,6.9077,6.9406,0.0,0.0,0.0,0.0,0.0,0.0,0.0,0.0,0.0,0.0,0.0,3.7849,3.7916,3.7916,3.7916,3.7916,3.8565,3.9322,4.0045,4.0113,4.0113,4.0113,4.0113,0.0,4.2266,4.2293,4.3044,4.4608,4.4608,4.4608,4.4608,4.4608,4.5379,4.6793,4.6793,4.8045,5.0109,0.0,0.0,0.0,5.1953,5.2232,0.0,0.0,0.0,0.0,0.0,0.0,0.0,0.0,0.0,0.0,0.0,0.0,4.8901,0.0,0.0,0.0,5.6799,5.8354,6.0508,6.8001,6.9586,7.035,7.4108,7.4467,7.436,7.5647,7.5916,7.5886,7.5856,7.5335,7.4886,7.4886,7.5976,7.6779,7.6779,7.8501,7.9758,7.9788,8.0345,8.0704,8.0734,8.1351,8.174,8.174,8.2417,8.2806,8.2806,8.2806,8.2806,8.2806,8.2129,8.051,7.779,7.2878,7.0957,7.1903,6.9783,6.9055,6.9561,6.9451,6.9474,6.9561,6.9451,6.9406,6.9406,6.9356,6.9356,6.9356,6.9331,6.9331,6.9356,6.9356,6.9381,6.9406,0.0,0.0,0.0,0.0,0.0,0.0,0.0,0.0,0.0,0.0,0.0,0.0,0.0,0.0,0.0,0.0,3.9559,3.9836,4.0072,4.0113,4.0113,4.0113,4.0113,4.0783,4.2266,4.2293,4.3044,4.4608,4.4608,4.4608,4.4608,4.4608,4.5379,4.6793,4.6793,4.8282,5.0803,5.0803,0.0,0.0,0.0,0.0,0.0,0.0,0.0,0.0,0.0,0.0,0.0,0.0,0.0,0.0,0.0,0.0,0.0,5.0622,5.0996,5.1666,5.376,5.6483,5.9534,6.278,6.5682,6.8211,7.0053,7.1593,7.2761,7.324,7.5001,7.6347,7.5976,7.5707,7.5395,7.4976,7.5976,7.6779,7.6779,7.8531,7.9788,7.9788,8.0405,8.0794,8.0794,8.1411,8.18,8.18,8.2417,8.2806,8.2806,8.2806,8.2806,8.2806,8.174,7.9132,7.4858,7.2078,7.0366,6.9743,6.9307,6.9205,6.9406,6.9406,6.9406,6.9406,6.9406,6.9406,6.9406,6.9406,6.9406,6.9406,6.9406,6.9406,6.9406,6.9406,6.9406,6.9406,0.0,0.0,0.0,0.0,0.0,0.0,0.0,0.0,0.0,0.0,0.0,0.0,0.0,0.0,0.0,0.0,0.0,4.0851,4.0851,4.0608,4.0472,4.0472,4.0472,4.1048,4.2266,4.253,4.3308,4.4608,4.4608,4.4608,4.4608,4.4608,4.5379,4.6827,4.7064,4.8672,0.0,0.0,0.0,5.4846,0.0,0.0,5.9945,0.0,0.0,0.0,0.0,0.0,0.0,0.0,0.0,0.0,0.0,0.0,0.0,0.0,5.1206,5.1367,5.2007,5.461,5.7543,5.9322,6.2255,6.5158,6.6924,6.9349,7.1368,7.1803,7.436,7.6437,7.6228,7.6198,7.6048,7.5617,7.6437,7.7155,7.7155,7.8471,7.9548,7.9788,8.0177,8.0644,8.1093,8.153,8.189,8.2099,8.2567,8.2806,8.2806,8.2806,8.2264,8.1074,7.969,7.6887,7.2566,7.0984,6.9742,6.8876,6.923,6.9406,6.9381,6.9205,6.923,6.9381,6.9205,6.923,6.9406,6.9406,6.9406,6.9406,6.9406,6.9406,6.9406,6.9406,6.9406,6.9406,0.0,0.0,0.0,0.0,0.0,0.0,0.0,0.0,0.0,0.0,0.0,0.0,0.0,0.0,0.0,0.0,0.0,4.2293,4.2293,4.1644,4.1231,4.1231,4.1231,4.1576,4.2333,4.3017,4.3802,0.0,0.0,0.0,4.4608,0.0,4.5413,4.6827,4.759,4.9164,5.1269,0.0,5.3247,5.4812,0.0,5.7076,5.7581,0.0,0.0,0.0,6.6034,6.676,0.0,0.0,0.0,0.0,0.0,0.0,0.0,0.0,0.0,5.1337,0.0,0.0,0.0,5.7992,5.9488,6.1058,6.5024,6.7881,7.0125,7.1607,7.3971,7.6006,7.6659,7.6826,7.6826,7.6826,7.7365,7.7801,7.7801,7.837,7.9028,7.9698,7.9788,8.0296,8.162,8.177,8.2039,8.2717,8.2776,8.2776,8.2806,8.275,8.1123,7.7703,7.6036,7.3839,7.1026,6.9396,6.8876,6.9406,6.9406,6.9406,6.9381,6.8829,6.8879,6.9356,6.8826,6.8876,6.9356,6.9381,6.9406,6.9406,6.9406,6.9406,6.9406,6.9406,6.9406,6.9406,0.0,0.0,0.0,0.0,0.0,4.2056,4.2266,4.2293,0.0,0.0,0.0,0.0,0.0,0.0,0.0,0.0,0.0,4.2293,4.2293,4.2124,4.1988,4.1988,4.1988,4.2354,4.3085,0.0,0.0,0.0,0.0,0.0,0.0,0.0,0.0,4.6861,4.8139,4.9924,5.2063,5.2833,0.0,5.6664,6.1931,6.4005,0.0,0.0,0.0,0.0,0.0,6.7839,0.0,0.0,6.5002,5.9187,0.0,0.0,0.0,0.0,0.0,0.0,5.1427,0.0,0.0,0.0,0.0,0.0,6.3003,6.447,6.643,7.1577,7.2834,7.3791,7.6347,7.7215,7.7514,7.7514,7.7664,7.7801,7.7801,7.837,7.8867,7.9058,7.9489,7.9937,8.0315,8.0794,8.1351,8.2009,8.2069,8.2297,8.2776,8.1223,7.9511,7.7664,7.4485,7.2255,7.1005,6.9396,6.8876,6.9406,6.9406,6.9406,6.9381,6.8829,6.8675,6.8801,6.8249,6.812,6.8299,6.908,6.9406,6.9406,6.9406,6.9406,6.9406,6.9406,6.9406,6.9406,0.0,0.0,4.2394,4.2726,4.276,4.2861,4.3213,4.3247,0.0,0.0,0.0,0.0,0.0,0.0,0.0,0.0,0.0,4.3579,4.3281,4.2963,4.276,4.276,4.276,4.2956,4.3389,4.3734,0.0,0.0,0.0,0.0,0.0,0.0,0.0,0.0,4.8646,5.071,5.2875,0.0,0.0,0.0,6.1683,0.0,0.0,6.864,6.9729,0.0,0.0,0.0,7.0553,7.1433,6.8106,0.0,0.0,0.0,0.0,0.0,0.0,0.0,0.0,0.0,0.0,5.3635,0.0,0.0,5.9951,6.1687,6.4171,6.9363,7.0366,7.1294,7.4552,7.4822,7.4852,7.6006,7.6395,7.6963,7.8071,7.8549,7.8807,7.8807,7.9148,7.9489,7.9788,8.0147,8.0674,8.1332,8.165,8.2069,8.2747,8.0649,7.8545,7.6714,7.379,7.1541,7.001,6.9292,6.908,6.9406,6.9155,6.8929,6.8701,6.7922,6.7671,6.7894,6.7342,6.7367,6.7844,6.8475,6.8726,6.8726,6.8726,6.8876,6.908,6.9306,6.9406,6.9406,0.0,0.0,4.276,4.343,4.3524,4.3802,4.4601,4.4702,4.4973,0.0,0.0,0.0,0.0,0.0,0.0,0.0,0.0,4.5635,4.4871,4.4106,4.366,4.366,4.3592,4.3524,4.3524,4.4222,4.4608,0.0,0.0,0.0,0.0,0.0,0.0,0.0,4.9263,5.1431,5.3525,5.5047,0.0,6.098,5.904,6.01,0.0,0.0,6.7899,6.8527,7.3322,7.4681,7.3967,7.2504,6.9901,0.0,0.0,0.0,0.0,0.0,5.2606,0.0,0.0,0.0,0.0,0.0,0.0,0.0,5.7107,5.9561,6.257,6.6266,6.7194,6.8361,7.1727,7.0962,7.0573,7.2984,7.4227,7.5694,7.8058,7.8448,7.8477,7.8477,7.8477,7.8789,7.9608,7.9698,7.9967,8.0644,8.1302,8.1856,8.2305,8.0181,7.7682,7.5007,7.3299,7.1202,6.8622,6.913,6.9356,6.9306,6.8826,6.8324,6.7769,6.6689,6.6488,6.6962,6.6363,6.6667,6.7618,6.7543,6.7643,6.7794,6.7794,6.8095,6.8575,6.9029,6.9255,6.9306,4.3186,4.3714,4.4195,4.433,4.4364,4.4628,4.5365,4.55,4.5737,0.0,0.0,0.0,0.0,0.0,0.0,0.0,0.0,0.0,4.6421,4.5669,4.5249,4.5249,4.4695,4.4364,4.4364,4.4506,4.4608,4.4608,0.0,0.0,0.0,0.0,0.0,0.0,5.0262,5.1749,5.3132,5.4925,5.7452,6.0519,6.3549,0.0,7.0243,7.2612,7.3459,7.3435,7.3957,7.4055,7.3192,0.0,6.7462,6.7478,0.0,0.0,0.0,0.0,0.0,0.0,0.0,0.0,0.0,0.0,0.0,0.0,5.8993,5.8783,5.9757,6.5787,6.5009,6.441,6.8241,6.9064,6.9363,6.9871,7.2731,7.5065,7.5574,7.6143,7.6485,7.6485,7.6485,7.7143,7.8819,7.8998,7.9267,7.9937,8.0614,8.0502,7.9308,7.7146,7.4911,7.2648,7.0934,6.9598,6.86,6.913,6.918,6.8751,6.865,6.8324,6.7769,6.7116,6.6887,6.6962,6.6363,6.6237,6.6413,6.5961,6.6589,6.7794,6.7794,6.7869,6.797,6.807,6.8374,6.8776,4.4012,4.433,4.4608,4.4608,4.4905,4.5263,4.5628,4.6331,0.0,0.0,0.0,0.0,0.0,0.0,0.0,0.0,0.0,0.0,4.8485,4.7428,4.6805,4.6805,4.6082,4.5514,4.5169,4.5135,4.4973,4.4608,0.0,0.0,0.0,0.0,0.0,0.0,0.0,5.1564,5.2822,5.6133,5.9675,6.3068,6.3434,0.0,6.8855,7.1169,7.2397,7.303,7.4048,7.4407,7.3689,6.9064,6.8585,0.0,0.0,6.1912,6.0386,0.0,5.6765,5.4054,0.0,0.0,0.0,5.3635,0.0,0.0,0.0,5.7377,5.8065,6.3019,6.1957,6.1224,6.4889,6.5009,6.4994,6.6281,6.8465,6.9961,6.9961,7.421,7.7352,7.7352,7.7352,7.7711,7.8717,7.8807,7.9088,7.9758,7.9111,7.8497,7.8039,7.465,7.2346,7.155,6.9352,6.8221,6.8221,6.8475,6.8475,6.8221,6.7919,6.7367,6.6538,6.6262,6.6007,6.5731,6.5731,6.586,6.6086,6.581,6.6187,6.6965,6.6965,6.7141,6.7417,6.7693,6.797,6.8221,4.4642,4.4709,4.4811,4.4811,4.5534,4.6169,4.6305,4.7582,4.8901,0.0,0.0,0.0,0.0,0.0,0.0,0.0,0.0,0.0,0.0,0.0,4.8329,4.8522,4.7556,4.6644,4.5868,4.5699,4.5256,4.4465,4.4334,0.0,0.0,0.0,0.0,0.0,0.0,5.1487,5.3228,5.7566,6.1775,6.5327,0.0,6.4147,6.7181,6.948,7.0739,7.1607,7.4018,7.4886,7.4467,7.1534,0.0,7.1278,6.7867,6.5233,0.0,0.0,0.0,0.0,0.0,0.0,0.0,0.0,0.0,5.467,0.0,0.0,0.0,5.9578,5.8846,5.859,6.1417,6.0729,6.0266,6.2032,6.3723,6.4665,6.4306,7.1577,7.6831,7.6562,7.6652,7.7131,7.813,7.8926,7.9331,7.9196,7.7703,7.6587,7.6188,7.2301,7.023,7.0474,6.8212,6.7263,6.7794,6.7794,6.7744,6.7643,6.7087,6.6338,6.5434,6.5333,6.5128,6.4827,6.5279,6.571,6.609,6.609,6.609,6.609,6.609,6.6388,6.6887,6.7317,6.7543,6.7643,4.4845,4.5142,4.5568,4.5568,4.6744,4.7853,4.8537,4.989,5.1573,0.0,0.0,0.0,0.0,0.0,0.0,0.0,0.0,0.0,5.3087,0.0,0.0,5.0789,4.8868,4.7342,4.6416,4.5772,4.4997,4.4086,4.405,4.486,0.0,0.0,0.0,0.0,5.0042,5.2154,5.5473,5.8245,6.0963,6.3756,6.7259,7.0481,0.0,7.4627,7.4121,7.2864,7.4377,7.4886,7.4646,0.0,7.3821,7.4659,0.0,6.8914,6.7508,0.0,0.0,0.0,0.0,0.0,0.0,0.0,5.464,0.0,0.0,0.0,5.5581,5.6551,0.0,5.6701,5.7616,0.0,0.0,5.6436,6.0655,6.3528,6.1778,6.6475,6.9662,6.8481,6.887,7.1055,7.5766,7.9387,8.0224,7.718,7.727,7.5574,7.1207,6.9966,6.9034,6.8205,6.7419,6.7263,6.7794,6.7794,6.7543,6.7087,6.6488,6.6137,6.599,6.5509,6.5534,6.5936,6.5986,6.604,6.609,6.609,6.609,6.609,6.609,6.614,6.6212,6.6266,6.6639,6.7087,4.5988,4.6116,4.6481,4.6906,4.7853,4.8935,5.0093,5.1919,5.3822,0.0,0.0,0.0,0.0,0.0,0.0,0.0,0.0,5.8507,0.0,0.0,0.0,5.8147,5.2675,4.9787,5.0196,4.766,4.5928,4.5118,4.4989,4.5579,0.0,0.0,0.0,0.0,5.1832,5.3978,5.6354,6.2001,6.4098,6.4095,6.9418,7.1153,0.0,7.2395,7.2967,7.3176,7.5258,7.5988,7.5916,0.0,7.5228,0.0,0.0,0.0,0.0,0.0,0.0,0.0,0.0,0.0,0.0,0.0,0.0,0.0,5.6658,0.0,5.5863,0.0,0.0,0.0,0.0,0.0,0.0,0.0,5.8381,5.9697,5.889,6.103,6.4052,6.7717,6.875,7.0935,7.5467,7.5028,7.4695,7.5168,7.3117,7.0759,6.8308,6.7422,6.6785,6.6356,6.5832,6.5807,6.6338,6.6664,6.6714,6.6463,6.6237,6.5936,6.5634,6.5735,6.571,6.566,6.5939,6.609,6.609,6.609,6.609,6.609,6.609,6.609,6.609,6.609,6.6262,6.6488,0.0,0.0,0.0,4.8097,4.9315,5.0803,5.2486,5.4126,5.5716,0.0,0.0,0.0,6.51,6.2013,0.0,0.0,0.0,6.1812,0.0,0.0,5.9366,0.0,0.0,0.0,0.0,5.0192,4.7709,4.6022,4.5686,4.6003,4.6929,0.0,0.0,0.0,0.0,5.4855,5.7689,6.4006,6.6565,6.6849,7.1547,7.1787,6.9498,7.0919,7.2039,7.3236,7.5851,7.6467,7.6138,7.7035,7.6604,0.0,7.5856,0.0,0.0,0.0,0.0,0.0,6.3871,0.0,0.0,0.0,0.0,0.0,0.0,0.0,0.0,0.0,0.0,0.0,0.0,0.0,0.0,0.0,0.0,5.6316,0.0,5.6543,5.9474,6.5323,6.7567,6.9901,0.0,7.1212,7.0451,7.2092,6.9167,6.6905,6.6009,6.5096,6.4881,6.5484,6.5003,6.4978,6.5509,6.5911,6.609,6.609,6.5961,6.576,6.5534,6.5785,6.576,6.5534,6.5936,6.609,6.609,6.609,6.609,6.609,6.609,6.609,6.609,6.609,6.609,6.609,0.0,4.9924,0.0,4.8943,5.1412,5.4084,5.6292,5.6697,5.7264,0.0,0.0,0.0,0.0,0.0,0.0,0.0,0.0,6.0179,6.3252,0.0,5.9083,0.0,0.0,0.0,0.0,0.0,5.0422,4.6306,4.5636,4.5799,4.6706,0.0,0.0,0.0,4.9845,5.3935,6.013,6.2315,6.6894,7.2727,7.4257,7.4018,7.2757,0.0,7.2847,7.3236,7.5851,0.0,0.0,7.7652,7.828,0.0,0.0,0.0,0.0,0.0,0.0,0.0,0.0,0.0,0.0,6.6176,0.0,0.0,0.0,0.0,5.6898,0.0,0.0,0.0,0.0,0.0,0.0,0.0,0.0,0.0,0.0,0.0,0.0,0.0,0.0,0.0,0.0,6.9625,7.0068,0.0,6.669,6.5613,6.3899,6.3219,6.3856,6.599,6.5559,6.5534,6.6086,6.609,6.609,6.609,6.5559,6.5584,6.604,6.5559,6.5584,6.6086,6.609,6.609,6.609,6.609,6.609,6.609,6.609,6.609,6.609,6.609,6.609,6.609,0.0,0.0,0.0,5.1995,5.2833,5.4262,5.6452,5.7636,5.8795,0.0,0.0,0.0,0.0,6.6099,6.5935,0.0,0.0,6.6717,6.9756,6.7246,0.0,0.0,0.0,6.0458,0.0,0.0,5.188,4.8278,4.8049,4.8115,4.841,4.8574,0.0,0.0,0.0,5.6213,6.1014,6.4739,6.8151,7.1128,0.0,7.2535,7.1308,0.0,7.4941,7.4527,7.6676,7.7322,0.0,7.8448,7.8938,7.889,7.7574,7.6425,7.5108,7.2894,7.1308,0.0,0.0,0.0,7.0247,7.0247,0.0,0.0,0.0,0.0,0.0,0.0,0.0,0.0,0.0,0.0,0.0,0.0,0.0,0.0,0.0,0.0,0.0,0.0,0.0,0.0,0.0,0.0,0.0,0.0,6.2363,0.0,6.1456,6.2697,6.4053,6.5509,6.5383,6.5383,6.5559,6.5936,6.609,6.609,6.5936,6.5936,6.609,6.5911,6.5936,6.609,6.609,6.609,6.609,6.609,6.609,6.609,6.609,6.609,6.609,6.609,6.609,6.609,5.279,0.0,5.4118,5.3577,5.416,5.5674,5.8718,5.9525,6.0436,0.0,6.3105,0.0,6.9303,0.0,6.796,0.0,7.0647,6.9931,7.3281,7.0724,0.0,7.3373,6.8206,0.0,0.0,0.0,0.0,5.1743,5.0096,4.9288,4.9288,4.9505,4.9841,0.0,5.2965,5.6346,6.0312,6.4739,6.7493,6.9109,0.0,7.1816,0.0,0.0,7.5168,7.4197,0.0,7.7981,7.7861,7.8549,7.9088,7.9297,7.843,7.7592,7.6724,7.5617,7.436,7.3552,7.4403,7.445,0.0,7.4629,7.2176,0.0,6.8136,0.0,0.0,0.0,0.0,0.0,0.0,0.0,0.0,0.0,0.0,0.0,0.0,0.0,0.0,0.0,0.0,0.0,0.0,0.0,0.0,0.0,0.0,0.0,0.0,6.1893,6.3651,6.5534,6.5584,6.5584,6.5584,6.5936,6.609,6.609,6.609,6.609,6.609,6.609,6.609,6.609,6.609,6.609,6.609,6.609,6.609,6.609,6.609,6.609,6.609,6.609,6.609,6.609,0.0,5.5618,5.5229,5.3897,5.5552,5.8515,6.2769,6.2244,6.2189,0.0,6.5309,6.6481,6.9005,6.7388,6.8544,7.4608,7.0899,0.0,7.3582,7.0396,0.0,0.0,7.0306,6.8227,6.7987,0.0,0.0,0.0,0.0,4.9438,4.9408,4.9991,5.0267,5.0327,5.1606,5.4389,5.8354,6.2211,6.5173,6.7493,6.9588,7.2222,7.4916,7.5035,7.3838,7.2701,7.719,7.7622,7.6335,7.8178,7.8807,7.8807,7.8807,7.8807,7.8669,7.8041,7.7861,7.7825,7.7676,7.6315,7.564,7.8697,0.0,0.0,0.0,0.0,6.7998,0.0,0.0,0.0,0.0,0.0,0.0,0.0,0.0,0.0,0.0,0.0,0.0,0.0,0.0,0.0,0.0,0.0,0.0,0.0,0.0,0.0,0.0,6.0788,6.2642,6.5886,6.5965,6.5965,6.5965,6.5965,6.5965,6.5965,6.604,6.609,6.609,6.609,6.609,6.609,6.609,6.609,6.609,6.609,6.609,6.609,6.609,6.609,6.609,6.609,6.609,6.609,5.4441,5.4602,5.5029,5.6086,5.8764,6.1189,6.2364,6.2786,0.0,0.0,6.5944,6.6574,6.8833,6.9833,7.0971,7.2623,7.2095,0.0,0.0,0.0,0.0,7.3163,7.315,7.152,6.8077,6.4275,0.0,5.6868,0.0,0.0,5.072,5.0888,5.0936,5.0966,5.1816,5.4389,5.8264,6.0791,6.5518,7.1697,7.5155,7.5874,7.5095,0.0,7.6592,7.5228,7.7879,7.8477,7.813,7.8627,7.8807,7.8807,7.8807,7.8807,7.8777,7.8579,7.8519,7.8094,7.6058,7.5478,7.5224,7.4446,7.1991,6.993,0.0,0.0,0.0,0.0,0.0,0.0,0.0,0.0,0.0,0.0,0.0,0.0,0.0,0.0,0.0,0.0,0.0,0.0,0.0,0.0,0.0,0.0,0.0,0.0,5.7688,0.0,6.1672,6.4228,6.4304,6.4304,6.4304,6.4304,6.4304,6.4329,6.5534,6.609,6.609,6.609,6.609,6.609,6.609,6.609,6.609,6.609,6.609,6.609,6.609,6.609,6.609,6.609,6.609,6.609,5.5882,5.58,5.6093,5.7148,6.0392,6.3163,6.4146,6.6156,0.0,6.9756,6.9853,0.0,7.0237,7.2042,7.321,7.321,7.3821,0.0,7.5437,0.0,0.0,7.5031,7.4659,7.3389,7.1071,6.7209,0.0,6.0116,0.0,0.0,5.2067,5.2067,5.2067,5.2127,5.3084,5.491,5.7543,6.1539,6.6804,7.2714,7.5527,7.6275,0.0,7.7382,7.7801,7.7753,7.8849,7.9058,7.8807,7.8807,7.8168,7.7395,7.7395,7.6773,7.6053,7.6053,7.6053,7.5703,7.4174,7.4207,7.4388,7.3143,7.2001,7.1214,7.1383,6.981,6.8004,0.0,0.0,0.0,0.0,0.0,0.0,0.0,0.0,0.0,0.0,0.0,0.0,0.0,0.0,0.0,0.0,0.0,0.0,0.0,0.0,0.0,0.0,5.856,6.0512,6.3224,6.355,6.335,6.2596,6.4028,6.4404,6.3701,6.5333,6.609,6.609,6.609,6.609,6.609,6.609,6.609,6.609,6.609,6.609,6.609,6.609,6.609,6.609,6.609,6.609,6.609,5.8084,5.7751,5.748,5.7627,6.11,6.4607,6.6804,6.9907,0.0,7.3847,0.0,7.3748,7.2072,7.3778,7.5006,7.4916,0.0,7.6754,7.843,7.6412,7.5903,7.7622,7.5437,7.442,7.5006,7.0666,0.0,0.0,0.0,0.0,5.3468,5.3468,5.3468,5.3528,5.4773,5.609,5.7766,6.4006,6.8944,7.2671,7.418,7.5826,7.7299,7.7003,7.8015,7.9586,7.9278,7.9139,7.9022,7.8738,7.743,7.5898,7.5517,7.4217,7.2817,7.2735,7.2652,7.2537,7.2259,7.2569,7.2906,7.2706,7.2673,7.2817,7.3418,7.3029,7.2212,7.0937,6.942,6.7277,0.0,0.0,0.0,0.0,0.0,0.0,0.0,0.0,0.0,0.0,0.0,0.0,0.0,0.0,0.0,0.0,0.0,0.0,0.0,0.0,5.9131,6.2074,6.2948,6.2672,6.121,0.0,6.5082,6.3701,6.5333,6.609,6.609,6.609,6.609,6.609,6.609,6.609,6.609,6.609,6.609,6.609,6.609,6.609,6.609,6.609,6.609,6.609,5.7062,5.7113,5.7466,5.8405,6.2008,6.5469,6.7502,6.8377,6.9863,7.2754,7.2237,7.1683,7.1893,7.418,7.5497,7.4946,7.5976,0.0,0.0,0.0,0.0,7.6976,7.6048,7.5617,7.5707,7.2206,6.8555,0.0,0.0,0.0,5.4862,5.4862,5.4862,5.4892,5.5683,5.877,6.3752,6.815,7.2309,7.6168,7.8609,7.9806,7.9892,7.8078,7.7886,7.8319,7.6505,7.7837,8.0176,7.8342,7.7771,7.7426,7.5092,7.4463,7.447,7.3987,7.351,7.2763,7.1001,7.0302,6.973,6.8458,6.8142,6.8402,6.9381,6.9155,6.8816,6.8985,6.8424,6.7429,6.5838,0.0,0.0,0.0,0.0,0.0,0.0,0.0,0.0,0.0,0.0,0.0,0.0,0.0,0.0,0.0,0.0,0.0,0.0,0.0,5.7656,0.0,6.0613,0.0,0.0,0.0,6.3977,6.3701,6.5333,6.609,6.609,6.609,6.609,6.609,6.609,6.609,6.609,6.609,6.609,6.609,6.609,6.609,6.609,6.609,6.609,6.609,5.8113,5.8341,0.0,5.9846,6.3075,6.6295,6.869,7.0187,7.2252,7.5527,7.5407,7.5108,7.5455,7.6305,7.6754,7.6425,7.7293,7.7861,7.7861,7.7514,7.7305,7.7305,7.6706,0.0,7.6377,7.4792,7.1531,6.655,0.0,0.0,5.7214,5.7214,5.7214,5.7334,5.9697,6.272,6.64,7.171,0.0,7.7574,8.0614,8.0923,7.9457,7.8706,7.787,7.6959,7.62,7.7375,7.8983,7.721,7.6048,7.5131,7.3746,7.2761,7.2029,7.174,7.1477,7.1,6.9687,6.8918,6.8271,6.7248,6.6739,6.6739,6.7593,6.7794,6.7945,6.8475,6.8374,6.7618,6.5634,6.2873,0.0,0.0,0.0,0.0,0.0,0.0,0.0,0.0,0.0,0.0,0.0,0.0,0.0,0.0,0.0,0.0,0.0,0.0,5.6671,0.0,0.0,0.0,5.9904,0.0,0.0,6.2441,6.4931,6.609,6.609,6.609,6.609,6.609,6.609,6.609,6.609,6.609,6.609,6.609,6.609,6.609,6.609,6.609,6.609,6.609,6.1884,6.2255,6.2734,6.3124,6.5308,6.7956,7.0636,7.2791,7.5185,7.819,7.846,7.843,7.8579,7.813,7.7801,7.7801,7.84,7.8807,7.8807,7.831,7.8011,7.8011,7.7365,7.7006,7.7006,7.7006,7.4463,0.0,0.0,0.0,5.9757,6.0446,6.1164,6.1972,6.5069,6.7432,0.0,0.0,7.7444,7.8373,8.0993,8.0474,7.8061,7.8091,7.712,7.5769,7.5762,7.618,7.6559,7.5477,7.426,7.305,7.2462,7.1196,6.9908,6.9782,6.9679,6.9504,6.9077,6.8572,6.802,6.7467,6.689,6.6589,6.7062,6.7514,6.7945,6.8475,6.86,6.7945,6.5781,6.4551,0.0,0.0,0.0,0.0,0.0,0.0,0.0,0.0,0.0,0.0,0.0,0.0,0.0,0.0,0.0,0.0,5.4303,0.0,5.581,0.0,0.0,6.0105,5.9226,0.0,6.4454,6.227,6.4856,6.609,6.609,6.609,6.609,6.609,6.609,6.609,6.609,6.609,6.609,6.609,6.609,6.609,6.609,6.609,6.609,6.609,7.0143,7.0755,7.0636,7.0081,7.026,7.1338,7.4018,7.4646,7.5544,7.7622,7.7365,7.7215,7.7831,7.7861,7.7801,7.7801,7.84,7.8807,7.8807,7.8747,7.8699,7.8699,7.8071,7.7694,7.7694,7.7694,7.6275,0.0,0.0,0.0,0.0,6.4874,6.7852,7.0726,7.1085,0.0,0.0,7.7185,7.8305,7.9283,7.9592,7.8646,7.6842,7.4885,7.465,7.5092,7.3069,7.2716,7.3149,7.3024,7.391,7.4587,7.2044,7.1444,7.1585,7.1083,7.0604,7.0202,7.0152,6.9702,6.9105,6.8575,6.8023,6.7668,6.7719,6.7769,6.7945,6.8475,6.86,6.8525,6.8249,6.6158,6.3672,0.0,0.0,0.0,0.0,0.0,0.0,0.0,0.0,0.0,0.0,0.0,0.0,0.0,0.0,0.0,0.0,0.0,5.4845,5.7161,5.7876,5.91,6.0959,6.2923,6.4505,6.5638,6.5939,6.609,6.609,6.609,6.609,6.609,6.609,6.609,6.609,6.609,6.609,6.609,6.609,6.609,6.609,6.609,6.609,6.609,7.0799,7.1308,7.1338,7.1474,7.2491,7.3808,7.5258,7.6844,7.813,7.889,7.8771,7.8711,7.898,7.9339,7.9597,7.9597,7.9836,7.9986,7.9986,7.9986,7.9836,7.9417,7.913,7.8801,7.84,7.84,7.7113,0.0,0.0,0.0,0.0,6.8136,6.9752,7.2595,0.0,7.6185,7.7473,7.8358,7.9027,7.932,7.8305,7.6703,7.4847,7.4284,7.3541,7.2647,7.1732,7.156,7.1736,7.1736,7.2617,7.3526,7.2442,7.2213,7.234,7.2114,7.1912,7.1661,7.1334,7.0857,7.0305,6.9752,6.92,6.8675,6.8349,6.8525,6.8726,6.8625,6.8876,6.908,6.908,6.8173,6.6614,0.0,0.0,0.0,0.0,0.0,0.0,0.0,0.0,0.0,0.0,0.0,0.0,0.0,0.0,0.0,0.0,0.0,0.0,5.9433,5.9734,6.111,6.3646,6.3697,6.4028,6.468,6.5634,6.609,6.609,6.609,6.609,6.609,6.609,6.609,6.609,6.609,6.609,6.609,6.609,6.609,6.609,6.609,6.609,6.609,7.3642,7.3941,7.3971,7.442,7.5544,7.6592,7.7233,7.8908,8.0087,8.0087,8.0285,8.0296,8.0117,8.0524,8.0794,8.0794,8.0794,8.0794,8.0794,8.0794,8.0584,8.0117,8.0087,0.0,7.9387,7.9178,7.828,7.6622,7.4048,0.0,0.0,7.0979,7.2475,7.6133,7.743,7.8053,7.8025,7.8152,7.7808,7.7107,7.6086,7.4444,7.2675,7.3042,7.2343,7.1106,7.1106,7.1106,7.1106,7.1106,7.161,7.2215,7.2215,7.2215,7.2215,7.2215,7.234,7.2365,7.2012,7.1736,7.1435,7.0905,7.033,6.9755,6.9225,6.9253,6.928,6.8926,6.913,6.9406,6.9406,6.9255,6.8324,6.571,0.0,0.0,0.0,0.0,0.0,0.0,0.0,0.0,0.0,0.0,0.0,0.0,0.0,0.0,0.0,0.0,0.0,0.0,0.0,0.0,6.4073,6.3324,6.345,6.4429,6.5559,6.609,6.609,6.609,6.609,6.609,6.609,6.609,6.609,6.609,6.609,6.609,6.609,6.609,6.609,6.609,6.609,6.609,8.1022,8.1123,8.0674,8.0704,8.0147,7.9967,8.0644,8.0764,8.0794,8.0794,8.1381,8.153,8.0853,8.0794,8.0794,8.0794,8.0794,8.0794,8.0794,8.0794,8.0794,0.0,0.0,8.0794,8.0764,8.0117,8.0087,8.0734,0.0,0.0,7.2907,7.3552,7.7305,8.3432,8.0065,7.8588,7.8451,7.6272,7.4028,7.202,7.2633,7.1819,7.0346,7.0346,7.0652,7.1106,7.1106,7.1106,7.1106,7.1106,7.1106,7.1131,7.1131,7.1131,7.1131,7.1131,7.1485,7.1912,7.1912,7.2265,7.2541,7.2012,7.146,7.093,7.0378,6.9828,6.9406,6.9381,6.9406,6.9406,6.9406,6.8977,6.7872,6.566,0.0,0.0,0.0,0.0,0.0,0.0,0.0,5.8698,5.8685,0.0,0.0,0.0,0.0,0.0,0.0,0.0,0.0,5.7851,5.6319,0.0,6.121,6.1235,6.2847,6.6065,6.609,6.609,6.609,6.609,6.609,6.609,6.609,6.609,6.609,6.609,6.609,6.609,6.609,6.609,6.609,6.609,6.609,6.609,8.0644,8.0943,8.0794,8.0794,8.0614,8.0554,8.0764,8.1183,8.165,8.2099,8.2709,8.3168,8.3408,8.2679,8.2159,0.0,8.2159,8.2159,0.0,8.2159,8.1949,8.15,8.15,8.1291,8.0823,8.0584,8.0584,8.0794,0.0,0.0,0.0,7.7185,7.8508,7.9462,7.7925,7.6685,7.5607,7.3755,7.2563,7.1859,7.1314,7.078,7.03,7.03,7.0629,7.1056,7.0679,7.078,7.1056,7.0679,7.0554,7.0478,7.0056,7.048,7.1106,7.1106,7.1232,7.1334,7.1334,7.146,7.156,7.1384,7.1232,7.1056,7.088,7.0104,6.9406,6.9406,6.8826,6.8299,6.8299,6.817,6.7342,6.5103,6.543,0.0,0.0,0.0,0.0,0.0,0.0,5.9684,0.0,5.8956,0.0,0.0,0.0,0.0,0.0,0.0,0.0,0.0,6.1537,0.0,6.566,6.3847,6.3977,6.609,6.609,6.609,6.609,6.609,6.609,6.609,6.609,6.609,6.609,6.609,6.609,6.609,6.609,6.609,6.609,6.609,6.609,6.609,8.0554,8.0794,8.0883,8.1123,8.1362,8.1631,8.1852,8.2469,8.3038,8.3446,8.3827,8.4245,8.4634,8.3995,0.0,8.3506,8.3506,8.3506,8.3506,8.3506,8.3206,8.2529,8.2499,8.22,8.156,8.1302,0.0,8.0794,7.886,7.7497,7.6764,7.8268,7.8056,7.633,7.4873,7.3723,7.275,7.1078,7.0356,7.033,7.0059,7.0102,7.03,7.03,7.0629,7.1056,7.0729,7.0805,7.1056,7.0704,7.0604,7.0503,6.9928,7.0229,7.0755,7.0531,7.0606,7.0805,7.0805,7.0956,7.1106,7.1106,7.1106,7.1056,7.0855,7.0255,6.9604,6.9203,6.8575,6.8045,6.7844,6.7618,6.7062,6.5656,6.6133,6.5584,6.2566,0.0,0.0,0.0,0.0,0.0,0.0,6.1165,6.0512,0.0,0.0,0.0,0.0,0.0,0.0,6.3194,6.2943,0.0,6.6237,6.4555,6.4505,6.609,6.609,6.609,6.609,6.609,6.609,6.609,6.609,6.609,6.609,6.609,6.609,6.609,6.609,6.609,6.609,6.609,6.609,6.609,8.1063,8.1063,8.1272,8.189,8.2518,8.3117,8.3617,8.4245,8.4634,8.4634,8.4634,8.4634,8.4694,8.4694,8.4694,8.4694,0.0,0.0,8.4634,8.4574,8.4275,8.3658,8.3647,8.3367,8.2806,8.2129,8.1366,8.05,7.9885,7.8459,7.632,7.6914,7.6079,7.3981,7.137,7.0171,7.0031,6.8507,6.7869,6.7995,6.9052,6.9828,7.0376,7.0401,7.0729,7.1232,7.1257,7.1307,7.1332,7.1282,7.1257,7.1131,7.0579,7.0376,7.0177,6.9579,6.9803,7.0227,7.0227,7.0604,7.0958,7.0958,7.1031,7.0905,7.0426,7.0275,6.9926,6.8876,6.8575,6.8324,6.7844,6.7314,6.6937,6.6937,6.6463,6.5534,6.3927,0.0,0.0,0.0,0.0,0.0,0.0,6.2576,6.2446,0.0,0.0,0.0,0.0,0.0,6.2144,6.1562,6.1537,6.229,6.3852,6.3852,6.463,6.609,6.609,6.609,6.609,6.609,6.609,6.609,6.609,6.609,6.609,6.609,6.609,6.609,6.609,6.609,6.609,6.609,6.609,6.609,8.3767,8.3767,8.3846,8.3995,8.4145,8.4145,8.3767,8.3837,8.3946,8.3946,8.3946,8.4126,8.4634,8.4694,8.4694,8.4694,8.4245,8.3946,8.3946,8.3517,8.3177,8.3027,8.2997,8.2937,8.2806,8.2129,8.0413,7.7601,7.7456,7.6033,7.3468,7.3114,7.2302,7.1074,6.9894,6.8991,6.8402,6.8392,6.865,6.9077,6.9803,7.0428,7.0956,7.1382,7.1861,7.2365,7.2841,7.3268,7.3569,7.3142,7.2715,7.2215,7.1686,7.0956,7.0177,6.9579,6.9481,6.9604,6.9604,6.9705,6.9805,6.9805,7.0154,7.0476,7.035,6.9928,6.9554,6.9255,6.8224,6.7339,6.7213,6.6714,6.6312,6.6312,6.6187,6.5534,6.3927,6.4028,0.0,0.0,6.3324,6.3977,6.5186,6.5186,6.468,0.0,0.0,6.4781,6.1939,6.4731,6.5961,6.4982,6.4931,6.5132,6.5534,6.5534,6.5735,6.609,6.609,6.609,6.609,6.609,6.609,6.609,6.609,6.609,6.609,6.609,6.609,6.609,6.609,6.609,6.609,6.609,6.609,6.609,8.4694,8.4694,8.4694,8.4694,8.4694,8.4664,8.4604,8.4604,8.4604,8.4604,8.4893,8.4983,8.4724,8.4963,8.5023,8.4724,8.4365,8.4156,8.4156,8.3846,8.3536,8.3217,8.3217,8.3087,8.2806,8.1408,7.9114,7.5919,7.5608,7.4211,7.1819,7.1427,7.0473,6.9055,6.8918,6.8481,6.7894,6.92,6.9777,6.9903,7.0958,7.1759,7.2263,7.2565,7.3016,7.352,7.387,7.4171,7.4372,7.4071,7.3746,7.3344,7.2516,7.1711,7.088,7.0054,6.9629,6.9406,6.9406,6.9406,6.9406,6.9406,6.9654,6.9878,6.9878,6.9629,6.9331,6.908,6.8123,6.7288,6.7037,6.6513,6.609,6.609,6.5484,6.4705,6.3827,6.3701,6.3701,6.3701,6.4354,6.5132,6.6036,6.609,6.5735,6.4856,6.5484,0.0,6.3525,6.5007,6.5634,6.5032,6.5735,6.609,6.609,6.609,6.609,6.609,6.609,6.609,6.609,6.609,6.609,6.609,6.609,6.609,6.609,6.609,6.609,6.609,6.609,6.609,6.609,6.609,6.609,6.609,8.5013,8.5013,8.5013,8.5013,8.5013,8.5162,8.5611,8.5701,8.5671,8.5551,8.603,8.594,8.4814,8.5222,8.5312,8.4754,8.4694,8.4664,8.4545,8.4545,8.411,8.3096,8.3047,8.2664,8.1802,7.9778,7.7336,7.4479,7.3972,7.2667,7.0653,7.081,6.9958,6.8321,6.8851,6.8876,6.8673,7.0531,7.1131,7.0905,7.2288,7.3168,7.372,7.382,7.4097,7.4524,7.4623,7.4674,7.4674,7.4674,7.4599,7.4348,7.3394,7.2541,7.1736,7.0805,7.0003,6.9406,6.9406,6.9406,6.9406,6.9406,6.9406,6.9406,6.9406,6.9406,6.9255,6.8826,6.8274,6.7769,6.7213,6.6639,6.6137,6.5789,6.458,6.3601,6.335,0.0,6.3701,6.3701,6.5132,6.609,6.609,6.609,6.609,6.609,6.4831,6.4555,6.5685,6.468,6.3952,6.3701,6.5258,6.609,6.609,6.609,6.609,6.609,6.609,6.609,6.609,6.609,6.609,6.609,6.609,6.609,6.609,6.609,6.609,6.609,6.609,6.609,6.609,6.609,6.609,6.609,8.6379,8.6379,8.6379,8.6379,8.6379,8.6229,8.5761,8.5701,8.5492,8.4923,8.4953,8.4923,8.4724,8.4784,8.4814,8.4694,8.4694,8.4455,8.3886,8.3856,8.2728,8.0186,8.0078,7.9158,7.7168,7.6236,7.441,7.1639,7.1995,7.1056,6.8982,6.9963,7.0468,7.0629,7.1158,7.1587,7.1964,7.2315,7.2715,7.3092,7.3368,7.3795,7.4323,7.4775,7.5001,7.5151,7.5652,7.5828,7.5828,7.5828,7.5502,7.5027,7.4875,7.347,7.1887,7.1711,7.0583,6.9406,6.9406,6.9406,6.9406,6.9406,6.9406,6.9406,6.9406,6.9406,6.9381,6.928,6.8851,6.8299,6.7769,6.7216,6.6259,6.4379,6.3852,6.3199,6.1788,6.2818,6.3701,6.3701,6.5132,6.609,6.609,6.609,6.609,6.609,6.5886,6.5233,6.4128,6.5132,6.5107,6.3726,6.5258,6.609,6.609,6.609,6.609,6.609,6.609,6.609,6.609,6.609,6.609,6.609,6.609,6.609,6.609,6.609,6.609,6.609,6.609,6.609,6.609,6.609,6.609,6.609,8.6708,8.6708,8.6708,8.6708,8.6409,8.617,8.6229,8.591,8.5581,8.5282,8.5551,8.503,8.3044,8.313,8.2707,8.1136,8.1292,8.1206,8.0563,8.2841,8.3076,8.0478,8.0378,7.8734,7.5262,7.4885,7.3501,7.1041,7.1301,7.107,7.0405,7.0907,7.1435,7.1987,7.2565,7.2767,7.2767,7.3647,7.4047,7.4096,7.4698,7.51,7.5351,7.5578,7.5678,7.5703,7.5979,7.6104,7.6104,7.6104,7.5904,7.5628,7.5302,7.3896,7.2265,7.1964,7.0709,6.9406,6.9406,6.9406,6.9406,6.9406,6.9406,6.9406,6.9406,6.9406,6.9406,6.9406,6.8954,6.8525,6.8274,6.7543,6.6359,6.445,6.3898,6.3099,6.1436,6.2642,6.3701,6.3701,6.5132,6.609,6.609,6.609,6.609,6.609,6.609,6.5785,6.5032,6.571,6.576,6.5032,6.571,6.609,6.609,6.609,6.609,6.609,6.609,6.609,6.609,6.609,6.609,6.609,6.609,6.609,6.609,6.609,6.609,6.609,6.609,6.609,6.609,6.609,6.609,6.609,8.6708,8.6708,8.6708,8.6708,8.6289,8.611,8.6619,8.5814,8.5119,8.5119,8.5084,8.3995,8.1163,8.1311,8.0707,7.8432,7.8662,7.8745,7.8282,8.155,8.2378,7.9726,7.9142,7.7209,7.3701,7.3638,7.2863,7.1307,7.141,7.1761,7.2313,7.2565,7.2892,7.3319,7.392,7.392,7.357,7.485,7.5151,7.4875,7.5753,7.6104,7.6104,7.6104,7.6104,7.6104,7.6104,7.6104,7.6104,7.6104,7.6104,7.6029,7.5578,7.4248,7.2792,7.224,7.0809,6.9406,6.9406,6.9406,6.9406,6.9406,6.9406,6.9406,6.9406,6.9406,6.9406,6.9406,6.9055,6.8751,6.8625,6.7819,6.6585,6.4777,6.4048,6.3249,6.1964,6.2873,6.3827,6.4203,6.5358,6.609,6.609,6.609,6.609,6.609,6.609,6.609,6.609,6.609,6.609,6.609,6.609,6.609,6.609,6.609,6.609,6.609,6.609,6.609,6.609,6.609,6.609,6.609,6.609,6.609,6.609,6.609,6.609,6.609,6.609,6.609,6.609,6.609,6.609,6.609,8.6708,8.6708,8.6708,8.6708,8.6648,8.6648,8.6678,8.4815,8.3386,8.3386,8.1534,8.0093,7.9837,7.9843,7.9806,7.9577,7.9605,7.9605,7.9577,7.988,7.8539,7.5057,7.2944,7.1677,7.1335,7.1335,7.1519,7.1836,7.234,7.2892,7.3494,7.4499,7.5001,7.5027,7.5652,7.5903,7.5878,7.5978,7.6004,7.5978,7.6079,7.6104,7.6104,7.6104,7.6104,7.6104,7.6104,7.6104,7.6104,7.6104,7.6104,7.6104,7.6054,7.4874,7.3418,7.2817,7.1087,6.9406,6.9406,6.9406,6.9406,6.9406,6.9406,6.9406,6.9406,6.9406,6.9406,6.9406,6.9356,6.918,6.8701,6.8145,6.7037,6.4852,6.4048,6.3651,6.3525,6.3626,6.4254,6.576,6.6036,6.609,6.609,6.609,6.609,6.609,6.609,6.609,6.609,6.609,6.609,6.609,6.609,6.609,6.609,6.609,6.609,6.609,6.609,6.609,6.609,6.609,6.609,6.609,6.609,6.609,6.609,6.609,6.609,6.609,6.609,6.609,6.609,6.609,6.609,6.609,8.4538,8.334,8.2351,8.2351,8.2351,8.2351,8.2351,8.1584,8.103,8.103,8.0257,7.917,7.769,7.7539,7.6934,7.5467,7.5378,7.5378,7.5378,7.5378,7.5421,7.5514,7.3314,7.2263,7.264,7.264,7.2916,7.3445,7.3645,7.4047,7.4599,7.5026,7.5402,7.5778,7.5979,7.6104,7.6104,7.6104,7.6104,7.6104,7.6104,7.6104,7.6104,7.6104,7.6104,7.6104,7.6104,7.6104,7.6104,7.6104,7.6104,7.6104,7.6104,7.4949,7.3268,7.1684,7.0332,6.9406,6.9406,6.9406,6.9406,6.9406,6.9406,6.9406,6.9406,6.9406,6.9406,6.9406,6.9406,6.9331,6.913,6.865,6.7568,6.5354,6.543,6.5279,6.3877,6.4555,6.5434,6.6036,6.609,6.609,6.609,6.609,6.609,6.609,6.609,6.609,6.609,6.609,6.609,6.609,6.609,6.609,6.609,6.609,6.609,6.609,6.609,6.609,6.609,6.609,6.609,6.609,6.609,6.609,6.609,6.609,6.609,6.609,6.609,6.609,6.609,6.609,6.609,6.609,8.2099,8.0816,7.9687,7.9687,7.9687,7.9687,7.9687,7.9082,7.8599,7.8599,7.7957,7.6889,7.5286,7.5103,7.4462,7.2833,7.2717,7.2717,7.2717,7.2867,7.3697,7.5296,7.3838,7.3268,7.3845,7.3845,7.4121,7.4649,7.4649,7.4925,7.5478,7.5478,7.5703,7.6104,7.6104,7.6104,7.6104,7.6104,7.6104,7.6104,7.6104,7.6104,7.6104,7.6104,7.6104,7.6104,7.6104,7.6104,7.6104,7.6104,7.6104,7.6104,7.6104,7.4949,7.3216,7.1156,7.0129,6.9629,6.9456,6.9406,6.9406,6.9406,6.9406,6.9406,6.9406,6.9406,6.9406,6.9406,6.9406,6.9406,6.9406,6.8977,6.8098,6.6589,6.684,6.666,6.4957,6.5685,6.6312,6.6115,6.609,6.609,6.609,6.609,6.609,6.609,6.609,6.609,6.609,6.609,6.609,6.609,6.609,6.609,6.609,6.609,6.609,6.609,6.609,6.609,6.609,6.609,6.609,6.609,6.609,6.609,6.609,6.609,6.609,6.609,6.609,6.609,6.609,6.609,6.609,6.609,7.9666,7.9644,7.9644,7.9644,7.9644,7.9644,7.9644,7.7668,7.6169,7.6169,7.4137,7.2717,7.2717,7.2717,7.2717,7.2717,7.2717,7.2717,7.2717,7.3268,7.3594,7.3619,7.3594,7.387,7.4373,7.4398,7.4674,7.5202,7.5202,7.5527,7.6104,7.6104,7.6104,7.6104,7.6104,7.6104,7.6104,7.6104,7.6104,7.6104,7.6104,7.6104,7.6104,7.6104,7.6104,7.6104,7.6104,7.6104,7.6104,7.6104,7.6104,7.6104,7.6104,7.4949,7.3268,7.1609,7.0729,7.0177,6.9579,6.9406,6.9406,6.9406,6.9406,6.9406,6.9406,6.9406,6.9406,6.9406,6.9406,6.9406,6.9406,6.8977,6.86,6.86,6.817,6.7618,6.7087,6.6987,6.6786,6.6187,6.609,6.609,6.609,6.609,6.609,6.609,6.609,6.609,6.609,6.609,6.609,6.609,6.609,6.609,6.609,6.609,6.609,6.609,6.609,6.609,6.609,6.609,6.609,6.609,6.609,6.609,6.609,6.609,6.609,6.609,6.609,6.609,6.609,6.609,6.609,6.609,7.7248,7.5923,7.4783,7.4783,7.4783,7.4783,7.4783,7.4184,7.3746,7.3746,7.3114,7.2717,7.2717,7.2717,7.2717,7.2717,7.2717,7.2867,7.3318,7.3494,7.3946,7.47,7.4348,7.4398,7.4951,7.4976,7.5252,7.5828,7.5828,7.5904,7.6104,7.6104,7.6104,7.6104,7.6104,7.6104,7.6104,7.6104,7.6104,7.6104,7.6104,7.6104,7.6104,7.6104,7.6104,7.6104,7.6104,7.6104,7.6104,7.6104,7.6104,7.6029,7.5603,7.4623,7.3343,7.2037,7.1006,7.0177,6.9579,6.9406,6.9406,6.9406,6.9406,6.9406,6.9406,6.9406,6.9406,6.9406,6.9406,6.9406,6.9406,6.9255,6.9029,6.8675,6.8475,6.8173,6.7643,6.7238,6.6937,6.6739,6.6363,6.609,6.609,6.609,6.609,6.609,6.609,6.609,6.609,6.609,6.609,6.609,6.609,6.609,6.609,6.609,6.609,6.609,6.609,6.609,6.609,6.609,6.609,6.609,6.609,6.609,6.609,6.609,6.609,6.609,6.609,6.609,6.609,6.609,6.609,6.609,7.4829,7.3675,7.2717,7.2717,7.2717,7.2717,7.2717,7.2717,7.2717,7.2717,7.2717,7.2717,7.2717,7.2717,7.2717,7.2717,7.2917,7.3217,7.3569,7.3996,7.4524,7.5152,7.5126,7.5226,7.5552,7.5578,7.5728,7.6104,7.6104,7.6104,7.6104,7.6104,7.6104,7.6104,7.6104,7.6104,7.6104,7.6104,7.6104,7.6104,7.6104,7.6104,7.6104,7.6104,7.6104,7.6104,7.6104,7.6104,7.6104,7.6104,7.6104,7.5979,7.5377,7.475,7.3947,7.2616,7.161,7.078,6.9978,6.9579,6.9406,6.9406,6.9406,6.9406,6.9406,6.9406,6.9406,6.9406,6.9406,6.9406,6.9406,6.9406,6.928,6.8977,6.8926,6.8726,6.8173,6.7844,6.7543,6.7339,6.6789,6.6463,6.6463,6.6237,6.609,6.609,6.609,6.609,6.609,6.609,6.609,6.609,6.609,6.609,6.609,6.609,6.609,6.609,6.609,6.609,6.609,6.609,6.609,6.609,6.609,6.609,6.609,6.609,6.609,6.609,6.609,6.609,6.609,6.609,6.609,6.609,7.2717,7.2717,7.2717,7.2717,7.2717,7.2717,7.2717,7.2717,7.2717,7.2767,7.2792,7.2792,7.2842,7.2867,7.2867,7.2867,7.3344,7.3694,7.3745,7.4649,7.5202,7.5277,7.5828,7.6104,7.6104,7.6104,7.6104,7.6104,7.6104,7.6104,7.6104,7.6104,7.6104,7.6104,7.6104,7.6104,7.6104,7.6104,7.6104,7.6104,7.6104,7.6104,7.6104,7.6104,7.6104,7.6104,7.6104,7.6104,7.6104,7.6104,7.6104,7.5979,7.5453,7.5252,7.4876,7.3269,7.2365,7.1661,7.0579,6.9853,6.9406,6.9406,6.9406,6.9406,6.9406,6.9406,6.9406,6.9406,6.9406,6.9406,6.9406,6.9406,6.9406,6.9406,6.9406,6.923,6.8751,6.8625,6.8424,6.7919,6.7414,6.7062,6.7012,6.6438,6.609,6.609,6.609,6.609,6.609,6.609,6.609,6.609,6.609,6.609,6.609,6.609,6.609,6.609,6.609,6.609,6.609,6.609,6.609,6.609,6.609,6.609,6.609,6.609,6.609,6.609,6.609,6.609,6.609,6.609,6.609,6.609,7.2717,7.2717,7.2717,7.2717,7.2717,7.2717,7.2717,7.2717,7.2867,7.3343,7.3393,7.3569,7.3972,7.4022,7.4022,7.4022,7.4147,7.4398,7.4825,7.5052,7.5402,7.5878,7.6029,7.6104,7.6104,7.6104,7.6104,7.6104,7.6104,7.6104,7.6104,7.6104,7.6104,7.6104,7.6104,7.6104,7.6104,7.6104,7.6104,7.6104,7.6104,7.6104,7.6104,7.6104,7.6104,7.6104,7.6104,7.6104,7.6104,7.6104,7.6104,7.6079,7.5954,7.5578,7.4951,7.377,7.269,7.1661,7.0579,6.9853,6.9406,6.9406,6.9406,6.9406,6.9406,6.9406,6.9406,6.9406,6.9406,6.9406,6.9406,6.9406,6.9406,6.9406,6.9406,6.9356,6.923,6.8876,6.855,6.8424,6.7945,6.7442,6.7037,6.6438,6.609,6.609,6.609,6.609,6.609,6.609,6.609,6.609,6.609,6.609,6.609,6.609,6.609,6.609,6.609,6.609,6.609,6.609,6.609,6.609,6.609,6.609,6.609,6.609,6.609,6.609,6.609,6.609,6.609,6.609,6.609,6.609,7.3068,7.3118,7.3194,7.347,7.352,7.352,7.352,7.352,7.362,7.3946,7.3996,7.4096,7.4348,7.4398,7.4398,7.4398,7.4624,7.49,7.5177,7.5453,7.5778,7.6104,7.6104,7.6104,7.6104,7.6104,7.6104,7.6104,7.6104,7.6104,7.6104,7.6104,7.6104,7.6104,7.6104,7.6104,7.6104,7.6104,7.6104,7.6104,7.6104,7.6104,7.6104,7.6104,7.6104,7.6104,7.6104,7.6104,7.6104,7.6104,7.6104,7.6104,7.6104,7.5878,7.5402,7.4322,7.3368,7.2414,7.1056,7.0255,6.9755,6.9456,6.9406,6.9406,6.9406,6.9406,6.9406,6.9406,6.9406,6.9406,6.9406,6.9406,6.9406,6.9406,6.9406,6.9406,6.9406,6.9155,6.8979,6.8979,6.85,6.797,6.7417,6.6865,6.6538,6.6538,6.6262,6.609,6.609,6.609,6.609,6.609,6.609,6.609,6.609,6.609,6.609,6.609,6.609,6.609,6.609,6.609,6.609,6.609,6.609,6.609,6.609,6.609,6.609,6.609,6.609,6.609,6.609,6.609,6.609,6.614,7.3494,7.3669,7.387,7.4298,7.4398,7.4398,7.4398,7.4398,7.4423,7.4524,7.4524,7.4574,7.4674,7.4699,7.4699,7.4699,7.5101,7.5352,7.5352,7.5828,7.6104,7.6104,7.6104,7.6104,7.6104,7.6104,7.6104,7.6104,7.6104,7.6104,7.6104,7.6104,7.6104,7.6104,7.6104,7.6104,7.6104,7.6104,7.6104,7.6104,7.6104,7.6104,7.6104,7.6104,7.6104,7.6104,7.6104,7.6104,7.6104,7.6104,7.6104,7.6104,7.6104,7.6104,7.5878,7.4849,7.4171,7.3368,7.1686,7.0855,7.0277,6.9556,6.9406,6.9406,6.9406,6.9406,6.9406,6.9406,6.9406,6.9406,6.9406,6.9406,6.9406,6.9406,6.9406,6.9406,6.9406,6.9406,6.9406,6.9406,6.8926,6.8424,6.797,6.7464,6.7087,6.7012,6.6538,6.6212,6.609,6.609,6.609,6.609,6.609,6.609,6.609,6.609,6.609,6.609,6.609,6.609,6.609,6.609,6.609,6.609,6.609,6.609,6.609,6.609,6.609,6.609,6.609,6.609,6.609,6.609,6.609,6.6187,7.3569,7.3971,7.4298,7.4373,7.4398,7.4398,7.4398,7.4398,7.4574,7.5051,7.5101,7.5277,7.5803,7.5878,7.5878,7.5878,7.5929,7.5979,7.5979,7.6054,7.6104,7.6104,7.6104,7.6104,7.6104,7.6104,7.6104,7.6104,7.6104,7.6104,7.6104,7.6104,7.6104,7.6104,7.6104,7.6104,7.6104,7.6104,7.6104,7.6104,7.6104,7.6104,7.6104,7.6104,7.6104,7.6104,7.6104,7.6104,7.6104,7.6104,7.6104,7.6104,7.6104,7.6104,7.5978,7.5277,7.4725,7.3946,7.2263,7.1384,7.0755,6.9657,6.9406,6.9406,6.9406,6.9406,6.9406,6.9406,6.9406,6.9406,6.9406,6.9406,6.9406,6.9406,6.9406,6.9406,6.9406,6.9406,6.9406,6.9406,6.8926,6.8575,6.85,6.802,6.7514,6.7037,6.6937,6.6639,6.6137,6.609,6.609,6.609,6.609,6.609,6.609,6.609,6.609,6.609,6.609,6.609,6.609,6.609,6.609,6.609,6.609,6.609,6.609,6.609,6.609,6.609,6.609,6.609,6.609,6.609,6.609,6.6187,7.4423,7.4674,7.4951,7.5301,7.5351,7.5351,7.5351,7.5351,7.5427,7.5653,7.5703,7.5803,7.6079,7.6104,7.6104,7.6104,7.6104,7.6104,7.6104,7.6104,7.6104,7.6104,7.6104,7.6104,7.6104,7.6104,7.6104,7.6104,7.6104,7.6104,7.6104,7.6104,7.6104,7.6104,7.6104,7.6104,7.6104,7.6104,7.6104,7.6104,7.6104,7.6104,7.6104,7.6104,7.6104,7.6104,7.6104,7.6104,7.6104,7.6104,7.6104,7.6104,7.6104,7.6104,7.5979,7.5377,7.5051,7.4474,7.2792,7.2164,7.1661,7.0255,6.9903,6.9828,6.9481,6.9406,6.9406,6.9406,6.9406,6.9406,6.9406,6.9406,6.9406,6.9406,6.9406,6.9406,6.9406,6.9406,6.9406,6.9406,6.918,6.9029,6.9029,6.855,6.817,6.7919,6.7339,6.6887,6.6635,6.6287,6.609,6.609,6.609,6.609,6.609,6.609,6.609,6.609,6.609,6.609,6.609,6.609,6.609,6.609,6.609,6.609,6.609,6.609,6.609,6.609,6.609,6.609,6.609,6.609,6.609,6.6237]},{"header":{"parameterUnit":"m.s-1","parameterCategory":1,"la1":30.6,"la2":28.766,"lo1":-90.7593,"lo2":-88.6598,"dx":0.0162,"dy":0.0183,"nx":116,"ny":114,"refTime":"2022-11-14T06:00:00:Z","depth":0,"parameterNumber":3,"parameterNumberName":"V-component_of_WINDS"},"data":[0.0,0.0,0.0,0.0,0.0,0.0,0.0,0.0,0.0,0.0,0.0,0.0,0.0,0.0,0.0,0.0,0.0,0.0,0.0,0.0,0.0,0.0,0.0,0.0,0.0,0.0,0.0,0.0,0.0,0.0,0.0,0.0,0.0,0.0,0.0,0.0,0.0,0.0,0.0,0.0,0.0,0.0,0.0,0.0,0.0,0.0,0.0,0.0,0.0,0.0,0.0,0.0,0.0,0.0,0.0,0.0,0.0,0.0,0.0,0.0,0.0,0.0,0.0,0.0,0.0,0.0,0.0,0.0,0.0,0.0,0.0,0.0,0.0,0.0,0.0,0.0,0.0,0.0,0.0,0.0,0.0,0.0,0.0,0.0,0.0,0.0,0.0,0.0,0.0,0.0,0.0,0.0,0.0,0.0,0.0,0.0,0.0,0.0,0.0,0.0,0.0,0.0,0.0,0.0,0.0,0.0,0.0,0.0,0.0,0.0,0.0,0.0,0.0,0.0,0.0,0.0,0.0,0.0,0.0,0.0,0.0,0.0,0.0,0.0,0.0,0.0,0.0,0.0,0.0,0.0,0.0,0.0,0.0,0.0,0.0,0.0,0.0,0.0,0.0,0.0,0.0,0.0,0.0,0.0,0.0,0.0,0.0,0.0,0.0,0.0,0.0,0.0,0.0,0.0,0.0,0.0,0.0,0.0,0.0,0.0,0.0,0.0,0.0,0.0,0.0,0.0,0.0,0.0,0.0,0.0,0.0,0.0,0.0,0.0,0.0,0.0,0.0,0.0,0.0,0.0,0.0,0.0,0.0,0.0,0.0,0.0,0.0,0.0,0.0,0.0,0.0,0.0,0.0,0.0,0.0,0.0,0.0,0.0,0.0,0.0,0.0,0.0,0.0,0.0,0.0,0.0,0.0,0.0,0.0,0.0,0.0,0.0,0.0,0.0,0.0,0.0,0.0,0.0,0.0,0.0,0.0,0.0,0.0,0.0,0.0,0.0,0.0,0.0,0.0,0.0,0.0,0.0,0.0,0.0,0.0,0.0,0.0,0.0,0.0,0.0,0.0,0.0,0.0,0.0,0.0,0.0,0.0,0.0,0.0,0.0,0.0,0.0,0.0,0.0,0.0,0.0,0.0,0.0,0.0,0.0,0.0,0.0,0.0,0.0,0.0,0.0,0.0,0.0,0.0,0.0,0.0,0.0,0.0,0.0,0.0,0.0,0.0,0.0,0.0,0.0,0.0,0.0,0.0,0.0,0.0,0.0,0.0,0.0,0.0,0.0,0.0,0.0,0.0,0.0,0.0,0.0,0.0,0.0,0.0,0.0,0.0,0.0,0.0,0.0,0.0,0.0,0.0,0.0,0.0,0.0,0.0,0.0,0.0,0.0,0.0,0.0,0.0,0.0,0.0,0.0,0.0,0.0,0.0,0.0,0.0,0.0,0.0,0.0,0.0,0.0,0.0,0.0,0.0,0.0,0.0,0.0,0.0,0.0,0.0,0.0,0.0,0.0,0.0,0.0,0.0,0.0,0.0,0.0,0.0,0.0,0.0,0.0,0.0,0.0,0.0,0.0,0.0,0.0,0.0,0.0,0.0,0.0,0.0,0.0,0.0,0.0,0.0,0.0,0.0,0.0,0.0,0.0,0.0,0.0,0.0,0.0,0.0,0.0,0.0,0.0,0.0,0.0,0.0,0.0,0.0,0.0,0.0,0.0,0.0,0.0,0.0,0.0,0.0,0.0,0.0,0.0,0.0,0.0,0.0,0.0,0.0,0.0,0.0,0.0,0.0,0.0,0.0,0.0,0.0,0.0,0.0,0.0,0.0,0.0,0.0,0.0,0.0,0.0,0.0,0.0,0.0,0.0,0.0,0.0,0.0,0.0,0.0,0.0,0.0,0.0,0.0,0.0,0.0,0.0,0.0,0.0,0.0,0.0,0.0,0.0,0.0,0.0,0.0,0.0,0.0,0.0,0.0,0.0,0.0,0.0,0.0,0.0,0.0,0.0,0.0,0.0,0.0,0.0,0.0,0.0,0.0,0.0,0.0,0.0,0.0,0.0,0.0,0.0,0.0,0.0,0.0,0.0,0.0,0.0,0.0,0.0,0.0,0.0,0.0,0.0,0.0,0.0,0.0,0.0,0.0,0.0,0.0,0.0,0.0,0.0,0.0,0.0,0.0,0.0,0.0,0.0,0.0,0.0,0.0,0.0,0.0,0.0,0.0,0.0,0.0,0.0,0.0,0.0,0.0,0.0,0.0,0.0,0.0,0.0,0.0,0.0,0.0,0.0,0.0,0.0,0.0,0.0,0.0,0.0,0.0,0.0,0.0,0.0,0.0,0.0,0.0,0.0,0.0,0.0,0.0,0.0,0.0,0.0,0.0,0.0,0.0,0.0,0.0,0.0,0.0,0.0,0.0,0.0,0.0,0.0,0.0,0.0,0.0,0.0,0.0,0.0,0.0,0.0,0.0,0.0,0.0,0.0,0.0,0.0,0.0,0.0,0.0,0.0,0.0,0.0,0.0,0.0,0.0,0.0,0.0,0.0,0.0,0.0,0.0,0.0,0.0,0.0,0.0,0.0,0.0,0.0,0.0,0.0,0.0,0.0,0.0,0.0,0.0,0.0,0.0,0.0,0.0,0.0,0.0,0.0,0.0,0.0,0.0,0.0,0.0,0.0,0.0,0.0,0.0,0.0,0.0,0.0,0.0,0.0,0.0,0.0,0.0,0.0,0.0,0.0,0.0,0.0,0.0,0.0,0.0,0.0,0.0,0.0,0.0,0.0,0.0,0.0,0.0,0.0,0.0,0.0,0.0,0.0,0.0,0.0,0.0,0.0,0.0,0.0,0.0,0.0,0.0,0.0,0.0,0.0,0.0,0.0,0.0,0.0,0.0,0.0,0.0,0.0,0.0,0.0,0.0,0.0,0.0,0.0,0.0,0.0,0.0,0.0,0.0,0.0,0.0,0.0,0.0,0.0,0.0,0.0,0.0,0.0,0.0,0.0,0.0,0.0,0.0,0.0,0.0,0.0,0.0,0.0,0.0,0.0,0.0,0.0,0.0,0.0,0.0,0.0,0.0,0.0,0.0,0.0,0.0,0.0,0.0,0.0,0.0,0.0,0.0,0.0,0.0,0.0,0.0,0.0,0.0,0.0,0.0,0.0,0.0,0.0,0.0,0.0,0.0,0.0,0.0,0.0,0.0,0.0,0.0,0.0,0.0,0.0,0.0,0.0,0.0,0.0,0.0,0.0,0.0,0.0,0.0,0.0,0.0,0.0,0.0,0.0,0.0,0.0,0.0,0.0,0.0,0.0,0.0,0.0,0.0,0.0,0.0,0.0,0.0,0.0,0.0,0.0,0.0,0.0,0.0,0.0,0.0,0.0,0.0,0.0,0.0,0.0,0.0,0.0,0.0,0.0,0.0,0.0,0.0,0.0,0.0,0.0,0.0,0.0,0.0,0.0,0.0,0.0,0.0,0.0,0.0,0.0,0.0,0.0,0.0,0.0,0.0,0.0,0.0,0.0,0.0,0.0,0.0,0.0,0.0,0.0,0.0,0.0,0.0,0.0,0.0,0.0,0.0,0.0,0.0,0.0,0.0,0.0,0.0,0.0,0.0,0.0,0.0,0.0,0.0,0.0,0.0,0.0,0.0,0.0,0.0,0.0,0.0,0.0,0.0,0.0,0.0,0.0,0.0,0.0,0.0,0.0,0.0,0.0,0.0,0.0,0.0,0.0,0.0,0.0,0.0,0.0,0.0,0.0,0.0,0.0,0.0,0.0,0.0,0.0,0.0,0.0,0.0,0.0,0.0,0.0,0.0,0.0,0.0,0.0,0.0,0.0,0.0,0.0,0.0,0.0,0.0,0.0,0.0,0.0,0.0,0.0,0.0,0.0,0.0,0.0,0.0,0.0,0.0,0.0,0.0,0.0,0.0,0.0,0.0,0.0,0.0,0.0,0.0,0.0,0.0,0.0,0.0,0.0,0.0,0.0,0.0,0.0,0.0,0.0,0.0,0.0,0.0,0.0,0.0,0.0,0.0,0.0,0.0,0.0,0.0,0.0,0.0,0.0,0.0,0.0,0.0,0.0,0.0,0.0,0.0,0.0,0.0,0.0,0.0,0.0,0.0,0.0,0.0,0.0,0.0,0.0,0.0,0.0,0.0,0.0,0.0,0.0,0.0,0.0,0.0,0.0,0.0,0.0,0.0,0.0,0.0,0.0,0.0,0.0,0.0,0.0,0.0,0.0,0.0,0.0,0.0,0.0,0.0,0.0,0.0,0.0,0.0,0.0,0.0,0.0,0.0,0.0,0.0,0.0,0.0,0.0,0.0,0.0,0.0,0.0,0.0,0.0,0.0,0.0,0.0,0.0,0.0,0.0,0.0,0.0,0.0,0.0,0.0,0.0,0.0,0.0,0.0,0.0,0.0,0.0,0.0,0.0,0.0,0.0,0.0,0.0,0.0,0.0,0.0,0.0,0.0,0.0,0.0,0.0,0.0,0.0,0.0,0.0,0.0,0.0,0.0,0.0,0.0,0.0,0.0,0.0,0.0,0.0,0.0,0.0,0.0,0.0,0.0,0.0,0.0,0.0,0.0,0.0,0.0,0.0,0.0,0.0,0.0,0.0,0.0,0.0,0.0,0.0,0.0,0.0,0.0,0.0,0.0,0.0,0.0,0.0,0.0,0.0,0.0,0.0,0.0,0.0,0.0,0.0,0.0,0.0,0.0,0.0,0.0,0.0,0.0,0.0,0.0,0.0,0.0,0.0,0.0,0.0,0.0,0.0,0.0,0.0,0.0,0.0,0.0,0.0,0.0,0.0,0.0,0.0,0.0,0.0,0.0,0.0,0.0,0.0,0.0,0.0,0.0,0.0,0.0,0.0,0.0,0.0,0.0,0.0,0.0,0.0,0.0,0.0,0.0,0.0,0.0,0.0,0.0,0.0,0.0,0.0,0.0,0.0,0.0,0.0,0.0,0.0,0.0,0.0,0.0,0.0,0.0,0.0,0.0,0.0,0.0,0.0,0.0,0.0,0.0,0.0,0.0,0.0,0.0,0.0,0.0,0.0,0.0,0.0,0.0,0.0,0.0,0.0,0.0,0.0,0.0,0.0,0.0,0.0,0.0,0.0,0.0,0.0,0.0,0.0,0.0,0.0,0.0,0.0,0.0,0.0,0.0,0.0,0.0,0.0,0.0,0.0,0.0,0.0,0.0,0.0,0.0,0.0,0.0,0.0,0.0,0.0,0.0,0.0,0.0,0.0,0.0,0.0,0.0,0.0,0.0,0.0,0.0,0.0,0.0,0.0,0.0,0.0,0.0,0.0,0.0,0.0,0.0,0.0,0.0,0.0,0.0,0.0,0.0,0.0,0.0,0.0,0.0,0.0,0.0,0.0,0.0,0.0,0.0,0.0,0.0,0.0,0.0,0.0,0.0,0.0,0.0,0.0,0.0,0.0,0.0,0.0,0.0,0.0,0.0,0.0,0.0,0.0,0.0,0.0,0.0,0.0,0.0,0.0,0.0,0.0,0.0,0.0,0.0,0.0,0.0,0.0,0.0,0.0,0.0,0.0,0.0,0.0,0.0,0.0,0.0,0.0,0.0,0.0,0.0,0.0,0.0,0.0,0.0,0.0,0.0,0.0,0.0,0.0,0.0,0.0,0.0,0.0,0.0,0.0,0.0,0.0,0.0,0.0,0.0,0.0,0.0,0.0,0.0,0.0,0.0,0.0,0.0,0.0,0.0,0.0,0.0,0.0,0.0,0.0,0.0,0.0,0.0,0.0,0.0,0.0,0.0,0.0,0.0,0.0,0.0,0.0,0.0,0.0,0.0,0.0,0.0,0.0,0.0,0.0,0.0,0.0,0.0,0.0,0.0,0.0,0.0,0.0,0.0,0.0,0.0,0.0,0.0,0.0,0.0,0.0,0.0,0.0,0.0,0.0,0.0,0.0,0.0,0.0,0.0,0.0,0.0,0.0,0.0,0.0,0.0,0.0,0.0,0.0,0.0,0.0,0.0,0.0,0.0,0.0,0.0,0.0,0.0,0.0,0.0,0.0,0.0,0.0,0.0,0.0,0.0,0.0,0.0,0.0,2.5384,0.0,0.0,0.0,0.0,0.0,0.0,0.0,0.0,0.0,0.0,0.0,0.0,0.0,0.0,0.0,0.0,0.0,0.0,0.0,0.0,0.0,0.0,0.0,0.0,1.4615,1.4718,1.4718,1.4718,0.0,0.0,0.0,0.0,0.0,0.0,0.0,0.0,0.0,1.5937,1.6348,1.7411,1.9139,2.1436,2.0078,1.8896,1.7879,0.0,0.0,0.0,0.0,0.0,0.0,0.0,0.0,0.0,0.0,0.0,0.0,0.0,0.0,0.0,0.0,0.0,0.0,0.0,0.0,0.0,0.0,0.0,0.0,0.0,0.0,0.0,0.0,0.0,0.0,0.0,0.0,0.0,0.0,0.0,0.0,0.0,0.0,0.0,0.0,0.0,0.0,0.0,0.0,0.0,0.0,0.0,0.0,0.0,0.0,0.0,0.0,0.0,0.0,0.0,0.0,0.0,0.0,0.0,0.0,0.0,0.0,0.0,0.0,0.0,0.0,0.0,0.0,0.0,0.0,0.0,2.6228,0.0,0.0,0.0,0.0,0.0,0.0,0.0,0.0,0.0,0.0,0.0,0.0,0.0,0.0,0.0,0.0,0.0,0.0,0.0,0.0,0.0,1.4936,1.5021,1.5312,1.5559,1.563,1.563,1.563,1.563,1.563,0.0,0.0,0.0,0.0,1.6327,1.673,1.7308,1.8055,2.0127,2.2236,2.4355,2.4445,2.3331,2.1181,1.9345,0.0,0.0,0.0,0.0,0.0,0.0,0.0,0.0,0.0,0.0,0.0,0.0,0.0,0.0,0.0,0.0,0.0,0.0,0.0,0.0,0.0,0.0,0.0,0.0,0.0,0.0,0.0,0.0,0.0,0.0,0.0,0.0,0.0,0.0,0.0,0.0,0.0,0.0,0.0,0.0,0.0,0.0,0.0,0.0,0.0,0.0,0.0,0.0,0.0,0.0,0.0,0.0,0.0,0.0,0.0,0.0,0.0,0.0,0.0,0.0,0.0,0.0,0.0,3.3023,3.3234,3.3313,3.3313,3.3313,3.3215,3.146,3.1416,3.2296,2.9232,0.0,0.0,0.0,0.0,0.0,0.0,0.0,0.0,0.0,0.0,0.0,0.0,0.0,0.0,0.0,0.0,0.0,0.0,0.0,1.5476,1.5889,1.5968,1.6148,1.65,1.6531,1.6531,1.6531,1.6531,0.0,0.0,0.0,0.0,1.7223,1.7609,1.8771,2.0693,2.4293,2.6238,2.6589,2.6998,2.6998,2.6568,2.4066,2.2109,2.0674,0.0,0.0,0.0,0.0,0.0,0.0,0.0,0.0,0.0,0.0,0.0,0.0,0.0,0.0,0.0,0.0,0.0,0.0,0.0,0.0,0.0,0.0,0.0,0.0,0.0,0.0,0.0,0.0,0.0,0.0,0.0,0.0,0.0,0.0,0.0,0.0,0.0,0.0,0.0,0.0,0.0,2.4172,2.6316,0.0,0.0,0.0,0.0,0.0,0.0,0.0,0.0,0.0,0.0,0.0,0.0,0.0,3.2242,3.3926,3.4512,3.5566,3.7072,3.7131,3.7363,3.777,3.777,3.777,3.7654,3.5918,0.0,3.388,3.4118,0.0,0.0,0.0,0.0,0.0,0.0,0.0,0.0,0.0,0.0,0.0,0.0,0.0,0.0,0.0,0.0,0.0,0.0,0.0,0.0,0.0,1.7321,1.8055,1.8459,1.9387,1.9659,1.8935,1.8887,0.0,0.0,0.0,1.8474,1.8474,1.9824,2.206,2.5183,2.7383,2.8959,2.9936,3.0126,3.0224,3.0185,2.9031,2.6738,2.3677,2.3027,0.0,0.0,0.0,0.0,0.0,0.0,0.0,0.0,0.0,0.0,0.0,0.0,0.0,0.0,0.0,0.0,0.0,0.0,0.0,0.0,0.0,0.0,0.0,0.0,0.0,0.0,0.0,0.0,0.0,0.0,0.0,0.0,0.0,0.0,0.0,0.0,0.0,0.0,0.0,2.3758,2.5847,2.8496,2.7982,2.7259,0.0,0.0,0.0,0.0,0.0,0.0,0.0,0.0,0.0,3.3633,3.3903,3.4938,3.6873,3.7324,3.8027,3.9005,3.9005,3.9141,3.9335,3.9335,3.9335,3.9296,3.8516,3.7871,3.7283,3.6191,3.5508,3.5019,0.0,0.0,0.0,0.0,3.1172,3.1294,0.0,0.0,0.0,0.0,0.0,0.0,0.0,0.0,0.0,0.0,0.0,0.0,1.7648,1.9258,2.0498,2.1006,2.2363,2.2578,2.1172,2.1192,2.0478,1.875,1.9501,1.998,1.998,2.25,2.541,2.8627,2.9735,3.0928,3.2198,3.2198,3.2198,3.2198,3.2198,3.0151,2.6667,2.6016,2.4687,2.298,0.0,0.0,0.0,0.0,0.0,0.0,0.0,0.0,0.0,0.0,0.0,0.0,0.0,0.0,0.0,0.0,0.0,0.0,0.0,0.0,0.0,0.0,0.0,0.0,0.0,0.0,0.0,0.0,0.0,0.0,0.0,0.0,0.0,0.0,0.0,0.0,0.0,2.6316,2.7884,3.0684,3.0229,2.9696,0.0,0.0,0.0,0.0,0.0,0.0,3.3555,3.3453,3.4333,3.6484,3.6641,3.7461,3.9081,3.9375,3.9766,4.0215,4.0117,4.0117,4.0215,4.0215,4.0215,4.0215,4.0215,4.0215,4.0059,3.7873,3.6994,3.6955,3.6506,3.553,3.4417,3.4499,3.4538,3.4652,0.0,0.0,0.0,0.0,0.0,0.0,0.0,0.0,0.0,0.0,0.0,1.9471,2.0302,2.1965,2.3323,2.411,2.466,2.4242,2.2509,2.2771,2.2225,2.0537,2.1309,2.1778,2.1778,2.5493,2.8132,2.954,3.124,3.212,3.2198,3.2198,3.2198,3.2198,3.2198,3.1162,2.9403,2.9364,2.8099,2.6028,2.4347,0.0,0.0,0.0,0.0,0.0,0.0,0.0,0.0,0.0,0.0,0.0,0.0,0.0,0.0,0.0,0.0,0.0,0.0,0.0,0.0,0.0,0.0,0.0,0.0,0.0,0.0,0.0,0.0,0.0,0.0,0.0,0.0,0.0,0.0,0.0,0.0,0.0,0.0,3.2992,3.4297,0.0,0.0,0.0,0.0,3.2101,3.2476,3.3652,3.5725,3.623,3.7459,3.9609,4.004,4.0293,4.041,4.043,4.0684,4.1133,4.0684,4.0703,4.1133,4.1133,4.1133,4.1133,4.1133,4.1133,4.1054,4.0117,3.9707,3.9531,3.7871,3.7187,3.7148,3.7541,3.766,3.8029,0.0,0.0,0.0,0.0,0.0,1.4681,1.511,1.5706,1.63,1.686,1.8796,2.0478,2.1329,2.3957,2.5996,2.6836,2.8099,2.8334,2.7154,2.6438,2.5285,2.3568,2.3264,2.4035,2.5989,2.847,3.0522,3.2051,3.2965,3.4147,3.5483,3.5483,3.607,3.7114,3.5977,3.5129,3.4425,3.2485,3.0581,2.8822,2.8509,2.6262,0.0,0.0,0.0,0.0,0.0,0.0,0.0,0.0,0.0,0.0,0.0,0.0,0.0,0.0,0.0,0.0,0.0,0.0,0.0,0.0,0.0,0.0,0.0,0.0,0.0,0.0,0.0,0.0,0.0,0.0,0.0,0.0,0.0,0.0,0.0,0.0,0.0,3.3133,3.4082,0.0,3.4919,3.5019,3.5195,3.5449,3.6641,3.7812,3.8849,3.8809,3.9219,4.0254,4.043,4.0664,4.0957,4.1211,4.1543,4.1973,4.1797,4.1816,4.1953,4.1953,4.1953,4.1953,4.1953,4.1953,4.1953,4.164,4.1211,4.0683,4.0058,3.9804,3.9823,3.9961,4.0019,4.0175,0.0,0.0,0.0,0.0,1.4583,1.4995,1.5554,1.6031,1.6766,1.8066,2.0253,2.2169,2.3488,2.6426,2.8613,2.9316,3.084,3.0996,2.9272,2.864,2.7291,2.4965,2.4863,2.638,2.9545,3.131,3.3015,3.4715,3.5616,3.6886,3.8452,3.8452,3.917,4.0369,3.9038,3.8452,3.8308,3.6118,3.3771,3.148,3.1069,2.8666,2.5273,0.0,0.0,0.0,0.0,0.0,0.0,0.0,0.0,0.0,0.0,0.0,0.0,0.0,0.0,0.0,0.0,0.0,0.0,0.0,0.0,0.0,0.0,0.0,0.0,0.0,0.0,0.0,0.0,0.0,0.0,0.0,0.0,0.0,0.0,3.0542,3.2148,3.3871,3.4844,3.5723,3.6601,3.6916,3.7365,3.8125,3.9375,4.0293,4.0723,4.0605,4.0723,4.1133,4.1152,4.123,4.1406,4.1797,4.207,4.2187,4.2343,4.2402,4.2402,4.2402,4.2402,4.2402,4.2402,4.2402,4.2402,4.2402,4.209,4.1601,4.1601,4.1601,4.1621,4.1777,4.1836,4.1856,0.0,0.0,0.0,1.4662,1.4819,1.5099,1.5975,1.6445,1.7495,1.9649,2.2227,2.4668,2.6823,2.9375,3.1094,3.1528,3.2699,3.1992,2.87,2.9201,2.8126,2.4757,2.6305,2.8859,3.2306,3.4007,3.5695,3.7424,3.9119,4.0251,4.0841,4.0841,4.116,4.167,4.1099,4.0841,4.0803,4.0213,3.7785,3.4137,3.2016,3.0102,2.8296,0.0,0.0,0.0,0.0,0.0,0.0,0.0,0.0,0.0,0.0,0.0,0.0,0.0,0.0,0.0,0.0,0.0,0.0,0.0,0.0,0.0,0.0,0.0,0.0,0.0,0.0,0.0,0.0,0.0,0.0,0.0,0.0,0.0,3.2061,3.3352,3.445,3.5391,3.6916,3.8244,3.9121,3.9219,3.9434,3.9902,4.0313,4.0762,4.1211,4.1621,4.2031,4.2421,4.2421,4.2246,4.1855,4.2226,4.2226,4.1855,4.2246,4.2441,4.2441,4.2441,4.2441,4.2441,4.246,4.246,4.246,4.248,4.248,4.248,4.2441,4.2421,4.248,4.295,4.3126,4.3184,0.0,0.0,0.0,1.476,1.5046,1.5437,1.6007,1.6735,1.8077,2.0518,2.3125,2.5676,2.8112,3.0142,3.1743,3.2797,3.3207,3.312,3.2476,3.092,2.9764,2.9153,3.1351,3.3761,3.6274,3.7729,3.9046,4.0208,4.0685,4.2004,4.4102,4.4102,4.4833,4.609,4.4714,4.4102,4.4014,4.2299,4.0691,3.9214,3.7826,3.535,3.2446,0.0,0.0,0.0,0.0,0.0,0.0,0.0,0.0,0.0,0.0,0.0,0.0,0.0,0.0,0.0,0.0,0.0,0.0,0.0,0.0,0.0,0.0,0.0,0.0,0.0,0.0,0.0,0.0,0.0,0.0,0.0,3.2554,3.3574,3.4411,3.4528,3.5329,3.7459,3.7832,3.8244,3.9121,3.9766,4.0351,4.08,4.1484,4.1933,4.205,4.25,4.2794,4.2891,4.2891,4.2988,4.3183,4.2988,4.2988,4.3183,4.3301,4.3339,4.3339,4.3339,4.3339,4.3358,4.3711,4.3867,4.3866,4.4159,4.4295,4.4198,4.3262,4.2891,4.2949,4.3379,4.3535,4.3555,0.0,0.0,0.0,1.5019,1.5247,1.5625,1.625,1.6777,1.8351,2.1835,2.375,2.6067,2.9394,3.0976,3.2226,3.3304,3.3549,3.3528,3.3223,3.219,3.2356,3.4142,3.5851,3.7782,3.999,4.1536,4.2764,4.3695,4.4429,4.5717,4.7491,4.7491,4.8016,4.8873,4.769,4.7028,4.6736,4.5215,4.4373,4.3986,4.3144,3.953,3.4609,3.4346,3.1961,2.8699,2.8334,2.8027,2.7624,2.6433,0.0,0.0,0.0,0.0,0.0,0.0,0.0,0.0,0.0,0.0,0.0,0.0,0.0,0.0,0.0,0.0,0.0,0.0,0.0,0.0,0.0,0.0,0.0,0.0,3.4453,3.5876,3.6855,3.6445,3.6738,3.8631,3.8789,3.8985,3.9669,4.0391,4.0976,4.1426,4.2031,4.2558,4.2929,4.3379,4.3653,4.3653,4.3653,4.3652,4.3711,4.3652,4.375,4.4004,4.4159,4.4237,4.4237,4.4237,4.4237,4.4256,4.453,4.4668,4.4687,4.4901,4.4998,0.0,0.0,0.0,0.0,0.0,4.4237,4.4237,1.4792,1.4877,1.4988,1.5344,1.5396,1.5681,1.6578,1.6746,1.8479,2.3253,2.4227,2.6172,3.0581,3.1894,3.2754,3.3476,3.3984,3.3751,3.2532,3.3426,3.5559,3.9007,3.98,4.1281,4.3601,4.5178,4.6431,4.7366,4.8927,4.9992,5.0603,5.0603,5.0628,5.0653,5.0117,4.9631,4.9145,4.846,4.8159,4.8043,4.7516,4.2883,3.6286,3.5557,3.3505,3.0874,2.9855,2.9478,2.94,2.8906,0.0,0.0,0.0,0.0,0.0,0.0,0.0,0.0,0.0,0.0,0.0,0.0,0.0,0.0,0.0,0.0,0.0,0.0,0.0,0.0,0.0,0.0,0.0,0.0,3.5527,3.7498,3.8984,3.8575,3.8419,3.9199,3.9687,4.0117,4.0469,4.0996,4.1484,4.1836,4.2343,4.2987,4.3788,4.4297,0.0,0.0,0.0,4.4355,4.3926,4.4297,4.4473,4.4473,4.4822,4.4998,4.4998,4.4998,4.4998,4.4998,4.5057,4.5096,4.5154,4.5193,4.5252,4.5271,4.5135,4.5096,4.5154,4.5154,4.5154,4.5154,1.5266,1.5286,1.5305,1.5383,1.5396,1.5681,1.6578,1.7023,1.8945,2.3661,2.468,2.6744,3.1436,3.3208,3.4151,3.443,3.5362,3.5586,3.4739,3.6226,3.8401,4.126,4.2877,4.4966,4.7622,4.8006,4.8681,4.9743,5.0079,5.0754,5.1774,5.1774,5.2009,5.2393,5.1875,5.1574,5.1398,5.0368,4.9665,4.9213,4.8702,4.5973,4.2016,3.974,3.7672,3.5692,3.379,3.3082,3.2941,3.1827,3.0913,3.0098,2.9088,2.8502,0.0,0.0,0.0,0.0,0.0,0.0,0.0,0.0,0.0,0.0,0.0,0.0,0.0,0.0,0.0,0.0,0.0,0.0,0.0,3.551,3.7305,3.8828,3.916,3.9375,3.957,3.9746,4.0118,4.041,4.0489,4.1504,4.2187,4.2285,4.3359,4.4238,4.4725,4.5195,4.5607,4.5918,4.5627,4.5412,4.5314,4.5039,4.4881,4.4881,0.0,0.0,4.4998,4.4998,4.4998,4.5018,4.5391,4.5742,4.6074,4.6404,4.6777,4.7014,4.5979,4.5762,4.6055,4.6055,4.6055,4.6055,1.5396,1.5396,1.5396,1.5396,1.5396,1.5681,1.6578,1.6898,1.8507,2.2617,2.3351,2.5267,2.9936,3.1388,3.2497,3.3785,3.5658,3.6952,3.7471,3.9898,4.2402,4.485,4.6356,4.8046,5.0008,5.0033,5.0586,5.1657,5.1381,5.1682,5.2485,5.2226,5.2234,5.2511,5.2511,5.2184,5.1649,5.1096,5.0519,4.9967,4.943,4.8058,4.593,4.2075,3.9389,3.7421,3.5194,3.4274,3.402,3.359,3.316,3.2676,3.2012,3.123,3.0268,0.0,0.0,0.0,0.0,0.0,0.0,0.0,0.0,0.0,0.0,0.0,0.0,0.0,0.0,3.4004,3.3789,0.0,3.6914,3.6699,3.8281,3.9629,3.9805,4.0254,4.0449,4.0234,4.0586,4.0937,4.1133,4.2129,4.2832,4.3047,4.4297,4.5215,4.5623,4.6074,4.6308,4.6308,4.592,4.5705,4.5705,4.5471,4.5545,4.5955,4.5955,4.6072,4.6308,4.6308,4.6308,4.6308,4.6565,4.676,4.6953,4.7168,4.7383,4.7542,4.6897,4.678,4.6933,4.6933,4.707,4.7226,1.5396,1.5396,1.5396,1.5396,1.5396,1.5681,1.6578,1.6707,1.7924,2.1309,2.1991,2.3759,2.794,2.9402,3.0985,3.3215,3.5757,3.7932,3.9606,4.2792,4.558,4.7817,4.8887,5.0033,5.1264,5.1289,5.1825,5.2895,5.236,5.231,5.2737,5.2201,5.2,5.2126,5.2561,5.226,5.1465,5.1339,5.0946,5.0352,4.9816,4.9355,4.8476,4.3973,4.0878,3.8623,3.5907,3.4587,3.4192,3.4684,3.4609,3.4375,3.4609,3.3668,3.2159,3.0757,2.9487,0.0,0.0,0.0,0.0,0.0,0.0,0.0,0.0,3.2711,3.3711,3.4281,3.5039,3.5566,3.5566,3.6797,3.7793,3.7793,3.9139,4.0254,4.0586,4.1094,4.1367,4.1152,4.1445,4.1817,4.2129,4.2949,4.3594,4.3926,4.5098,4.5959,4.6289,4.6677,4.6794,4.6562,4.6133,4.5979,4.6076,4.6076,4.6387,4.7028,4.7028,4.7246,4.76,4.76,4.76,4.76,4.7679,4.7718,4.7737,4.7815,4.8128,4.8556,4.8658,4.897,4.9221,4.8137,4.791,4.8164,1.5396,1.5396,1.5396,1.5396,1.5396,1.5681,1.6578,1.6707,1.7798,2.0869,2.2372,2.422,2.7058,3.0239,3.2806,3.4374,3.6474,3.8273,3.9603,4.2769,4.5603,4.7805,4.8526,4.9647,5.1264,5.1289,5.1825,5.2895,5.236,5.2126,5.2176,5.1624,5.1624,5.2101,5.2159,5.2126,5.1975,5.1515,5.0946,5.0352,4.9816,4.9565,4.9237,4.6648,4.4173,4.1546,3.7368,3.5098,3.4231,3.5056,3.4297,3.3203,3.4336,3.4043,3.2934,3.1289,3.017,2.9168,2.7839,2.8744,3.0078,3.0176,3.1562,3.3246,0.0,3.5603,3.6616,3.7772,3.8379,3.8691,3.8691,3.9199,3.9609,3.9609,4.0429,4.1074,4.1113,4.1777,4.2538,4.3262,4.3398,4.3437,4.3476,4.4276,4.4803,4.4862,4.5723,4.625,4.6308,4.6677,4.7067,4.7444,4.7012,4.6973,4.7386,4.7386,4.7444,4.7522,4.7522,4.7561,4.76,4.76,4.76,4.762,4.7969,4.8144,4.8164,4.8578,4.9979,5.1923,5.2387,5.3864,5.5071,4.9997,4.8164,4.8262,1.5396,1.5396,1.5396,1.5396,1.5396,1.5681,1.6578,1.6707,1.7428,1.9416,2.0942,2.2478,2.4106,2.7739,3.0912,3.305,3.6425,3.8806,3.9645,4.368,4.6619,4.7851,4.8476,4.943,5.0745,5.1113,5.1674,5.2435,5.2209,5.226,5.2561,5.1699,5.1749,5.2561,5.2561,5.2385,5.2101,5.185,5.1247,5.0352,4.9816,4.959,4.9249,4.6153,4.4346,4.2922,3.8724,3.6035,0.0,3.5192,3.4919,3.4492,3.5544,3.5095,3.3828,3.2144,3.1206,3.0859,3.1577,3.1577,3.191,3.4141,3.4808,3.5257,3.6545,3.7361,3.8006,3.8788,3.9297,3.9609,3.9609,3.9766,4.0077,4.0585,4.0957,4.1543,4.252,4.2949,4.3475,4.4354,4.4707,4.4746,4.4471,4.5039,4.541,4.541,4.6426,4.7073,4.7073,4.7441,4.7754,4.793,4.7519,4.7402,4.76,4.76,4.7737,4.7949,4.7949,4.8089,4.8366,4.8366,4.8366,4.8385,4.8538,4.8617,4.8636,4.9062,5.0682,5.2918,5.3359,5.5028,5.6888,5.4485,5.3763,5.3953,1.5396,1.5396,1.5396,1.5396,1.5396,1.5649,1.641,1.6637,1.7077,1.8138,1.9637,2.1115,2.2474,2.56,2.8568,3.0914,3.506,3.8091,3.9383,4.355,4.6486,4.7616,4.8234,4.9079,5.0167,5.0745,5.1322,5.1875,5.1875,5.1983,5.2192,5.1423,5.1473,5.2209,5.2209,5.1983,5.1632,5.1632,5.1055,5.0167,4.9766,4.929,4.8526,4.5868,4.4001,4.2328,3.879,3.6224,3.4567,3.4766,3.4609,3.4492,3.5485,3.4977,3.3785,3.257,3.187,3.1918,3.3812,3.3824,3.3981,3.6975,3.7404,3.7287,3.8068,3.8613,3.9042,3.9336,3.9668,3.9922,4.0059,4.0176,4.0507,4.125,4.1562,4.2188,4.3516,4.3808,4.4219,4.5098,4.5586,4.6042,4.6449,4.6209,4.6074,4.6213,4.719,4.7718,4.76,4.7969,4.8203,4.8203,4.791,4.7835,4.7952,4.7952,4.8109,4.8379,4.8379,4.8578,4.8913,4.9007,4.9066,4.9066,4.9203,4.9183,4.9132,5.0242,5.2121,5.4426,5.5558,5.7514,5.9668,5.9807,5.9128,5.8075,1.5396,1.5396,1.5396,1.5396,1.5396,1.5559,1.6046,1.6445,1.6879,1.7371,1.9008,2.1025,2.3396,2.4986,2.6561,2.8261,3.188,3.5442,3.8705,4.1557,4.4317,4.6998,4.7641,4.846,4.959,5.0151,5.072,5.1314,5.1314,5.1021,5.0477,5.0452,5.0452,5.0477,5.0477,5.0477,5.0452,5.0452,5.0126,4.9615,4.9615,4.851,4.6865,4.6749,4.3734,3.9239,3.6898,3.5226,3.4039,3.3597,3.2641,3.184,3.3109,3.293,3.2276,3.2218,3.187,3.1782,3.309,3.4632,3.6116,3.709,3.8555,3.9668,3.9258,3.9512,3.9863,3.9883,3.9883,4.0019,4.041,4.084,4.1289,4.1699,4.25,4.3204,4.3633,4.4082,4.4687,4.5568,4.6035,4.7324,4.9967,4.8181,4.7048,4.7522,4.793,4.8008,4.762,4.7969,4.8203,4.8203,4.8203,4.8398,4.8855,4.8855,4.8874,4.8894,4.8894,4.8894,4.8913,4.9316,4.9488,4.9508,4.9961,4.9902,4.9695,5.2503,5.506,5.7469,6.0414,6.2994,6.5117,6.5668,6.2551,5.8165,1.5396,1.5396,1.5396,1.5396,1.5396,1.5442,1.5605,1.6004,1.6559,1.7301,1.8395,0.0,0.0,0.0,0.0,0.0,3.0355,3.329,3.5453,3.9895,4.3215,4.483,4.6486,4.7716,4.846,4.9389,4.9967,5.0184,5.0937,5.1188,5.0987,5.0578,5.0603,5.0971,5.0578,5.0201,4.9866,4.9866,4.9339,4.8485,4.8485,4.6898,4.4403,4.321,4.0479,3.6903,0.0,3.3105,3.3219,3.3047,3.2715,3.2637,3.4238,3.3926,3.3105,3.3688,3.375,3.4144,3.6601,3.7695,3.8418,3.9589,4.0098,4.0254,4.0098,3.998,3.9902,3.9902,4.0371,4.08,4.0937,4.1523,4.2148,4.2598,4.3125,4.375,4.4452,4.4961,4.6149,4.8542,4.7547,4.852,5.3145,4.9798,4.8721,5.1981,4.9733,4.8828,5.0222,5.0741,5.0262,4.8702,5.0171,5.032,4.8894,4.8913,4.8913,4.8913,4.916,5.0298,5.2164,5.2305,5.3245,5.4822,5.4971,5.495,5.4888,5.6138,5.8075,6.0415,6.1751,6.3727,6.586,6.6015,6.4967,6.3419,1.5396,1.5396,1.5396,1.5396,1.5396,0.0,0.0,0.0,0.0,0.0,0.0,0.0,0.0,0.0,0.0,0.0,0.0,3.0336,3.2915,3.6934,4.0069,4.1982,4.3776,4.489,4.5257,4.616,4.6728,4.6944,4.8677,4.9615,4.9816,5.0444,5.0921,5.1264,5.067,5.0201,4.9834,4.8801,4.795,4.7187,4.5914,4.3754,4.113,3.9639,3.7108,0.0,3.2172,3.1582,3.1675,3.1816,3.1973,3.2398,3.3965,3.4101,3.3906,3.5234,3.5312,3.5566,3.8437,3.9316,3.9726,4.0898,4.1074,4.0918,4.0781,4.0664,4.0586,4.0586,4.1269,4.1836,4.166,4.2305,4.3007,4.3497,4.3906,4.4452,4.533,4.6394,4.7911,5.0139,4.9893,5.1398,5.6009,5.2886,5.1814,5.483,5.2509,5.1612,5.312,5.3487,5.2947,5.1419,5.205,5.2072,5.1417,5.0575,5.0679,5.1689,5.2142,5.3403,5.5341,5.5341,5.6206,5.7716,5.7896,5.7873,5.7828,5.9133,6.0593,6.2148,6.3345,6.4718,6.609,6.609,6.609,6.609,1.5396,1.5396,1.5396,0.0,0.0,0.0,0.0,0.0,0.0,0.0,0.0,0.0,0.0,0.0,0.0,0.0,0.0,0.0,3.1056,3.2866,3.5235,3.8492,3.9797,4.0411,4.037,4.0936,4.1542,4.2098,4.4744,4.6311,4.6873,4.954,5.0787,5.0761,5.0127,4.986,4.9711,4.6924,4.5747,4.5475,4.202,3.9261,3.7107,3.6264,3.3757,3.0742,3.1157,3.0527,2.9598,3.0053,3.0586,3.1284,3.2559,3.357,3.4681,3.6777,3.6543,3.6133,3.8652,3.9742,4.0346,4.1209,4.17,4.1896,4.1523,4.1582,4.1738,4.1738,4.2363,4.2813,4.2343,4.3047,4.3808,4.4258,4.4811,4.5482,4.6346,4.8397,5.006,5.0739,5.2966,5.5619,5.8629,5.7201,5.6118,5.6226,5.6031,5.5944,5.6074,5.6074,5.5988,5.5813,5.3815,5.3792,5.5924,5.3769,5.405,5.675,5.7267,5.7828,5.8368,5.8368,5.8458,5.8616,5.9068,5.9,5.8797,6.1638,6.2764,6.3008,6.5298,6.6187,6.6187,6.6187,6.6187,6.6162,0.0,0.0,0.0,0.0,0.0,0.0,0.0,0.0,0.0,0.0,0.0,0.0,0.0,0.0,0.0,0.0,0.0,0.0,2.7688,3.0581,3.3028,3.4933,3.7779,3.9047,3.8489,3.9939,4.0789,4.0927,4.2044,4.2643,4.2794,4.351,4.3837,4.3794,4.2739,4.2554,4.2857,4.0287,3.9498,3.9786,3.7992,3.5541,3.3004,3.277,3.0736,2.8053,2.8509,2.8646,2.8783,2.9858,3.1577,3.3512,3.4769,3.5781,3.6795,3.8281,3.8496,3.8652,4.0605,4.2352,4.3744,4.4323,4.455,4.4592,4.4488,4.2593,4.082,4.082,4.0781,4.0664,4.0566,4.2031,4.3302,4.3419,4.5995,4.8187,4.8829,5.1058,5.3648,5.6273,5.5636,5.6779,6.131,5.9742,5.9161,6.091,5.7799,5.6594,5.8354,5.8439,5.7671,5.5944,5.696,5.7185,5.6504,5.6287,5.651,5.7133,5.7694,5.9361,6.1951,6.1951,6.3198,6.5326,6.5428,6.5451,6.5395,6.6143,6.6438,6.6504,6.7148,6.7367,6.7367,6.7367,6.7116,6.6786,0.0,0.0,0.0,0.0,0.0,0.0,0.0,0.0,0.0,0.0,0.0,0.0,0.0,0.0,0.0,0.0,0.0,0.0,0.0,2.7323,2.9281,3.0526,3.2872,3.4055,3.3834,3.5369,3.637,3.6801,3.8615,3.9621,3.9872,4.0851,4.1289,4.1235,4.0049,3.9704,3.988,3.6947,3.591,0.0,0.0,3.1755,3.0044,2.9667,2.8358,2.6797,2.7226,2.7891,2.8867,3.0918,3.2969,3.4919,3.6369,3.7324,3.8162,3.9629,3.9823,3.9844,4.1387,4.3588,4.5537,4.581,4.6706,4.7132,4.5622,4.3814,4.2012,4.0542,4.0215,4.0313,4.0879,4.2148,4.3419,4.4357,4.7391,4.9701,4.9953,5.3335,5.6438,5.8144,5.8258,5.9408,6.2481,6.1618,6.1366,6.27,6.0365,5.9436,6.0761,6.0844,6.0236,5.895,5.9183,5.895,5.8259,6.0025,6.1,6.1171,6.1735,6.3159,6.5275,6.5275,6.6182,6.7794,0.0,6.7794,6.7794,6.7794,6.7794,6.7794,6.7794,6.7794,6.7794,6.7794,6.7593,6.7364,0.0,0.0,0.0,0.0,0.0,0.0,0.0,0.0,0.0,1.7692,1.791,1.8264,0.0,0.0,0.0,0.0,0.0,0.0,0.0,0.0,2.5206,2.6304,2.7353,2.8072,2.8455,2.9648,3.0733,3.1659,3.4797,3.6509,3.6899,3.9,3.987,3.9661,3.8457,3.8003,3.7939,3.4592,3.3268,3.312,2.9801,2.8268,2.7871,0.0,2.6608,2.6367,2.6823,2.778,2.9302,3.2446,3.4394,3.5801,3.7599,3.8697,3.9587,4.0819,4.0895,4.081,4.1974,4.4408,4.6685,4.7044,4.8779,4.9528,4.6079,4.4964,4.3703,4.0334,3.9844,4.0391,4.166,4.2524,4.3689,4.5736,4.8621,5.0676,5.0762,5.5311,5.8598,5.8461,6.0603,6.2275,6.2752,6.2802,6.2802,6.2802,6.2802,6.2802,6.2802,6.2802,6.2852,6.2927,6.1088,6.0366,6.0888,6.4048,6.5835,6.6237,6.6836,6.7389,6.7919,6.7919,6.7945,6.802,6.802,6.802,6.802,6.802,6.802,6.802,6.802,6.802,6.802,6.802,6.797,6.7919,0.0,0.0,0.0,0.0,0.0,0.0,0.0,0.0,0.0,0.0,1.8693,1.8801,0.0,0.0,0.0,0.0,0.0,0.0,0.0,0.0,0.0,2.5073,2.6222,2.6815,2.6748,2.7931,2.8816,2.9374,3.0982,3.1453,3.0916,3.2308,3.2416,3.1397,3.0203,3.0227,3.0983,2.8321,2.7814,2.8616,2.6933,2.6213,2.6135,2.5979,0.0,0.0,2.6726,2.7617,2.8965,3.273,3.4824,3.633,3.8789,4.1224,4.2871,4.1577,4.2471,4.4003,4.4763,4.6805,4.926,5.1377,5.2229,5.167,4.8231,4.532,4.2363,3.8951,3.7773,3.7752,3.9022,4.1134,4.3186,4.4658,4.8789,5.2264,5.3663,5.7006,5.9811,6.1124,6.2097,6.2701,6.2802,6.2802,6.2802,6.2802,6.2802,6.2802,6.2802,6.2802,6.3028,6.3525,6.4023,6.4306,6.4406,6.639,6.7191,6.6861,6.7392,6.7945,6.845,6.845,6.8701,6.9105,6.9105,0.0,6.9105,6.9105,6.9105,6.9105,6.9105,6.9105,6.9105,6.9105,6.8851,6.845,0.0,0.0,0.0,0.0,0.0,0.0,0.0,1.8598,1.884,1.9522,1.9424,1.9435,1.9844,1.9912,2.0098,0.0,0.0,0.0,0.0,0.0,0.0,2.2909,2.3732,2.4314,2.4678,2.5861,2.6813,2.751,0.0,2.9092,2.8746,2.9333,2.9415,2.9037,2.7802,2.757,2.7976,2.6161,2.5742,2.6244,2.5622,2.5503,2.5706,0.0,0.0,0.0,2.6687,2.7422,2.8484,3.166,3.3578,3.5296,3.9043,4.2158,4.4018,4.1998,4.2962,4.4858,4.5605,4.7528,4.9896,5.2467,5.3913,5.3378,4.8177,4.576,4.3142,3.7972,3.6604,3.7072,3.9499,4.0252,4.1713,4.5308,4.9122,5.2217,5.3915,5.7986,6.0989,6.1517,6.23,6.2802,6.2802,6.2802,6.2802,6.2802,6.2802,6.2802,6.2802,6.2802,6.3203,6.4099,6.4902,6.5584,6.6183,6.7241,6.7819,6.7844,6.8073,6.85,6.9027,6.9027,6.9155,6.9406,6.9406,6.9406,6.9406,6.9406,6.9406,6.9406,6.9406,6.9406,6.9406,6.9406,6.923,6.9027,0.0,0.0,0.0,0.0,0.0,0.0,1.8693,1.8812,1.9152,1.9961,2.0049,2.0049,2.0049,2.0049,2.0205,0.0,0.0,0.0,0.0,0.0,0.0,0.0,0.0,0.0,2.3029,0.0,0.0,2.5746,2.6976,0.0,0.0,0.0,0.0,0.0,2.6808,2.636,2.6291,2.5356,2.4945,0.0,0.0,2.5195,0.0,0.0,0.0,0.0,0.0,2.7226,2.7962,3.0723,3.2426,3.4144,3.8361,4.1793,4.3936,4.2212,4.3478,4.5689,4.6868,4.8551,5.0589,5.327,5.5158,5.4589,4.772,4.6139,4.417,3.7157,3.5725,3.6777,4.028,3.9676,4.0499,4.6208,4.8914,5.1146,5.3531,5.7964,6.0989,6.1185,6.2144,6.2802,6.2802,6.2802,6.2802,6.2802,6.2927,6.2978,6.2978,6.3103,6.3676,6.4802,6.5505,6.6312,6.7317,6.7869,6.8349,6.8776,6.8776,6.8979,6.9406,6.9406,6.9406,6.9406,6.9406,6.9406,6.9406,6.9406,6.9406,6.9406,6.9406,6.9406,6.9406,6.9554,6.9604,6.9604,0.0,0.0,0.0,0.0,0.0,0.0,1.916,1.9551,1.9951,2.0478,2.0537,2.0537,2.0537,2.0537,2.0556,0.0,0.0,0.0,0.0,0.0,0.0,0.0,0.0,0.0,0.0,0.0,0.0,2.4039,2.5246,0.0,0.0,0.0,0.0,0.0,0.0,2.4634,2.4623,2.4507,0.0,0.0,0.0,0.0,0.0,0.0,0.0,0.0,0.0,2.7018,2.7585,3.0991,3.2711,3.3832,3.6287,3.9698,4.2705,4.2255,4.4821,4.8269,5.0491,5.1534,5.2782,5.5869,5.678,5.5077,4.7896,4.6285,4.4093,3.6406,3.4824,3.5881,3.938,3.9348,4.0641,4.636,4.7332,4.9053,5.3857,5.6216,5.8384,6.0909,6.2144,6.2802,6.2802,6.2802,6.2802,6.2802,6.3324,6.3626,6.3626,6.4073,6.4852,6.5936,6.7015,6.7869,6.845,6.8979,6.928,6.9331,6.9331,6.9356,6.9406,6.9406,6.9406,6.9406,6.9406,6.9406,0.0,6.9406,6.9406,6.9406,6.9406,6.9406,6.9456,7.0026,7.0202,7.0277,0.0,0.0,0.0,0.0,0.0,0.0,1.9228,1.9639,2.0078,2.0537,2.0605,2.0605,2.0605,2.0605,2.0605,2.0605,0.0,0.0,0.0,0.0,0.0,0.0,0.0,0.0,0.0,0.0,2.2559,2.3376,2.3874,0.0,0.0,0.0,0.0,0.0,0.0,2.4043,2.4043,2.4043,0.0,0.0,0.0,0.0,0.0,0.0,0.0,0.0,0.0,0.0,2.7331,2.9492,3.0781,3.1777,3.3453,3.5908,3.8519,4.0377,4.3712,4.7307,4.9726,5.1365,5.3099,5.6222,5.6502,5.4335,4.7781,4.6519,4.4718,3.7619,3.6925,3.8325,4.0758,4.0396,4.1338,4.6367,4.7382,4.9434,5.4824,5.7273,5.9413,6.1873,6.2873,6.2948,6.1943,6.2425,6.2952,6.3324,6.355,6.4128,6.5082,6.5053,6.5656,6.7091,6.7568,6.8199,6.9055,6.928,6.9406,6.9406,6.9406,6.9406,6.9406,6.9406,6.9406,6.9406,6.9406,6.9406,0.0,6.9406,6.9406,6.9406,6.9406,6.9629,6.9953,7.0202,7.03,7.0277,0.0,0.0,0.0,0.0,0.0,1.8956,1.9414,1.9853,2.0224,2.0566,2.0605,2.0605,2.0605,2.0605,2.0605,2.0605,2.0605,0.0,0.0,0.0,0.0,0.0,0.0,0.0,0.0,0.0,2.2411,2.3101,2.3101,2.3101,0.0,0.0,2.3279,2.3594,0.0,0.0,0.0,0.0,0.0,0.0,0.0,0.0,0.0,0.0,0.0,0.0,0.0,0.0,0.0,0.0,0.0,3.0405,3.146,3.304,3.5162,3.857,4.2171,4.5746,4.8794,5.095,5.3065,5.6202,5.5924,5.347,4.8046,4.6553,4.463,3.8649,3.8316,3.9681,4.1556,4.0915,4.1644,4.6352,4.7279,4.9409,5.5156,5.7725,5.9784,6.1823,6.2727,6.2672,6.1336,6.2169,6.3053,6.3651,6.3847,6.4651,6.6287,6.6162,6.6639,6.7995,6.8173,6.8625,6.9381,6.9406,6.9406,6.9406,6.9406,6.9406,6.9406,6.9406,6.9406,6.9406,6.9406,6.9406,0.0,6.9406,6.9406,6.9406,6.9406,6.9777,7.03,7.03,7.03,7.0227,0.0,0.0,0.0,0.0,0.0,0.0,1.9825,2.0293,2.0595,2.0605,2.0605,2.0605,2.0605,2.0605,2.0605,2.0605,2.0605,0.0,0.0,0.0,0.0,0.0,0.0,0.0,0.0,0.0,2.2693,2.3101,2.3101,2.3101,2.3101,2.3101,2.3101,2.3112,0.0,0.0,0.0,0.0,0.0,0.0,0.0,0.0,2.4489,0.0,0.0,0.0,0.0,0.0,0.0,0.0,0.0,0.0,0.0,3.1792,3.3542,3.7247,4.0606,4.4093,4.8495,5.0859,5.2895,5.6182,5.5347,5.2707,4.8862,4.6291,4.3474,3.9085,3.8216,3.8857,4.1017,4.0485,4.133,4.6293,4.6588,4.8367,5.4548,5.6846,5.8529,6.0141,6.1341,6.1793,6.126,6.2169,6.3053,6.3651,6.4199,6.5204,6.6887,6.7467,6.802,6.8575,6.9127,6.9381,6.9406,6.9406,6.9406,6.9406,6.9406,6.9406,6.9406,6.9406,6.9406,6.9406,6.9406,6.9406,0.0,6.9406,6.9406,6.9406,6.9406,6.9777,7.03,7.03,7.03,7.03,0.0,0.0,0.0,0.0,0.0,0.0,1.9834,2.0303,2.0605,2.0605,2.0605,2.0605,2.0605,2.0605,2.0605,2.0605,2.0605,0.0,0.0,0.0,0.0,0.0,0.0,0.0,0.0,0.0,2.2693,2.3101,2.3101,2.3268,2.3574,2.3574,2.3719,2.3981,2.3981,2.3836,0.0,0.0,0.0,0.0,0.0,2.4402,2.45,0.0,0.0,0.0,0.0,0.0,0.0,0.0,0.0,0.0,0.0,0.0,0.0,3.4024,3.7303,4.0914,4.3422,4.6374,4.9098,5.0502,5.0601,4.9542,4.6448,4.5504,4.4217,4.0578,4.0707,4.1789,4.284,4.3047,4.3952,4.667,4.7595,4.9843,5.5193,5.7072,5.893,6.1697,6.1692,6.1667,6.2225,6.2275,6.2822,6.4149,6.4752,6.5781,6.7442,6.7693,6.8199,6.9105,6.9306,6.9406,6.9406,6.9406,6.9406,6.9406,6.9406,6.9406,6.9406,6.9406,6.9406,6.9406,6.9406,6.9406,6.9406,6.9406,6.9406,6.9406,6.9406,6.9777,7.025,6.9853,6.9679,6.9579,0.0,0.0,0.0,0.0,0.0,0.0,0.0,2.0303,2.0605,2.0605,2.0605,2.0605,2.0605,2.0605,2.0605,2.0605,2.0605,0.0,0.0,0.0,0.0,0.0,0.0,0.0,0.0,2.2695,2.3114,2.3357,2.3513,2.3747,2.4023,2.4023,2.4149,2.4402,2.4402,2.4266,0.0,0.0,0.0,0.0,2.3953,2.4375,2.4746,0.0,0.0,0.0,0.0,0.0,0.0,0.0,0.0,0.0,0.0,0.0,0.0,0.0,3.4537,3.7292,3.988,4.2789,4.5477,4.726,4.7321,4.6663,4.5571,4.4918,4.3972,4.1924,4.2464,4.3402,4.374,4.4579,4.5934,4.8002,4.8937,5.1147,5.6143,5.7255,5.8635,6.1522,6.1466,6.1441,6.2144,6.2471,6.3169,6.4421,6.5003,6.6036,6.7719,6.7794,6.8274,6.9356,6.9406,6.9406,6.9406,6.9406,6.9406,6.9406,6.9406,6.9406,6.9406,6.9406,6.9406,6.9406,6.9406,6.9406,0.0,6.9406,6.9406,6.9406,6.9406,6.9629,6.9878,6.9303,6.8977,6.8675,0.0,0.0,0.0,0.0,0.0,0.0,0.0,2.0263,2.0556,2.0605,2.0605,2.0605,2.0605,2.0605,2.0605,2.0605,0.0,0.0,0.0,0.0,0.0,0.0,0.0,0.0,2.2518,2.3359,2.3809,2.3828,2.4219,2.4422,2.4461,2.4461,2.4461,2.4489,2.4489,2.4481,0.0,0.0,0.0,0.0,2.3828,2.4359,0.0,0.0,0.0,0.0,0.0,0.0,0.0,0.0,0.0,0.0,0.0,0.0,0.0,0.0,0.0,0.0,0.0,3.9854,4.1954,4.5633,4.5103,4.4078,4.5704,4.4493,0.0,4.3065,4.3478,4.3865,4.3915,4.5321,4.7315,4.9875,5.0452,5.2234,5.6997,5.7405,5.8033,6.0166,6.0939,6.1336,6.1386,6.2818,6.3998,6.45,6.5053,6.6086,6.7769,6.7819,6.8274,6.9356,6.9406,6.9406,6.9406,6.9406,6.9406,6.9406,6.9406,6.9406,6.9406,6.9406,6.9406,0.0,6.9406,6.9406,6.9406,6.9406,6.9406,6.9406,6.9406,6.9381,6.928,6.8751,6.8221,6.7668,0.0,0.0,0.0,0.0,0.0,0.0,0.0,0.0,0.0,0.0,2.0605,2.0605,2.0605,2.0605,2.0605,0.0,0.0,0.0,0.0,0.0,0.0,0.0,0.0,0.0,2.2936,2.3516,2.3945,2.4266,2.4352,2.4578,2.4945,2.4945,2.5098,2.5394,2.5394,2.5222,0.0,0.0,0.0,0.0,2.4266,2.4601,0.0,0.0,0.0,0.0,2.5706,2.5764,0.0,0.0,0.0,0.0,0.0,0.0,0.0,0.0,3.1953,3.3034,3.4007,0.0,3.766,3.9785,4.0843,4.1783,0.0,4.3704,4.3614,4.3614,4.4027,4.4554,4.502,4.6818,4.8426,4.9079,5.0946,5.3013,5.5082,5.7775,6.0041,6.1441,6.2074,6.2621,6.3073,6.3847,6.4526,6.5078,6.5609,6.6639,6.8324,6.802,6.8274,6.9356,6.9406,6.9406,6.9406,6.9406,6.9406,6.9406,6.9406,6.9406,6.9406,6.9406,6.9406,6.9406,6.9406,6.9406,6.9406,6.9406,6.9406,6.9406,6.9406,6.9155,6.8726,6.8196,6.7643,6.7113,0.0,0.0,0.0,0.0,0.0,0.0,0.0,0.0,0.0,0.0,0.0,2.0605,2.0605,2.0605,0.0,0.0,0.0,0.0,0.0,0.0,0.0,0.0,0.0,2.2763,2.3407,2.4074,2.4504,2.4719,2.491,2.5125,2.5371,2.5371,2.5496,2.5706,2.5706,2.5476,0.0,0.0,0.0,2.4707,2.4481,0.0,0.0,0.0,0.0,0.0,2.5706,2.5706,0.0,2.6491,2.6855,2.7194,0.0,0.0,0.0,0.0,3.1523,3.2305,3.2695,3.4272,3.6204,3.7805,3.9405,4.1081,4.2924,4.3589,4.3865,4.4127,4.4805,4.5482,4.5799,4.7672,4.9757,5.154,5.308,5.4787,5.6915,5.9458,6.1296,6.1943,6.2722,6.3229,6.3279,6.4023,6.4726,6.5279,6.581,6.6818,6.85,6.8095,6.8274,6.9356,6.9406,6.9406,6.9406,6.9406,6.9406,6.9406,6.9406,6.9406,6.9406,6.9406,6.9406,6.9406,6.9406,6.9255,6.9029,6.9029,6.8901,6.8675,6.8675,6.8324,6.7819,6.7518,6.7066,6.6538,0.0,0.0,0.0,0.0,0.0,0.0,0.0,0.0,0.0,0.0,0.0,0.0,0.0,0.0,0.0,0.0,0.0,0.0,0.0,0.0,0.0,0.0,2.2732,2.3357,2.3867,2.4691,2.5121,2.52,2.5523,2.5706,2.5706,2.5706,2.5706,2.5706,2.5706,2.5515,0.0,0.0,2.4766,2.5149,2.4687,0.0,0.0,0.0,0.0,0.0,0.0,0.0,0.0,2.625,2.666,2.7136,2.7949,0.0,0.0,0.0,0.0,0.0,3.2787,3.4595,3.6566,3.8177,3.9596,4.1225,4.3622,4.4041,4.4116,4.4729,4.5909,4.6863,4.7139,4.9138,5.18,5.5114,5.586,5.6997,5.979,6.124,6.1994,6.1994,6.2923,6.34,6.2978,6.3898,6.4726,6.5279,6.5886,6.6918,6.8525,6.817,6.8374,6.9356,6.9406,6.9406,6.9406,6.9406,6.9406,6.9406,6.9406,6.9356,6.928,6.928,6.923,6.9177,0.0,0.0,6.8475,6.8475,6.8221,6.7794,6.7794,6.7467,6.6987,6.6987,6.6614,6.609,0.0,0.0,0.0,0.0,0.0,0.0,0.0,0.0,0.0,0.0,0.0,0.0,0.0,0.0,0.0,0.0,0.0,0.0,0.0,0.0,0.0,2.2962,2.3064,2.3482,2.4285,2.4828,2.5266,2.562,2.5667,2.5706,2.5706,2.5706,2.5706,2.5706,2.5706,2.5679,2.5581,2.5168,2.5234,2.5581,2.5168,0.0,0.0,0.0,0.0,0.0,0.0,0.0,0.0,2.625,2.666,2.7097,2.7611,0.0,0.0,0.0,0.0,0.0,3.3843,3.6009,3.8229,3.9886,4.0457,4.1528,4.5092,4.5181,4.4765,4.5834,4.7682,4.9515,5.0946,5.3766,5.6057,5.6677,5.7932,5.9056,5.9558,6.0989,6.1994,6.1994,6.2551,6.3103,6.3525,6.4124,6.4726,6.5279,6.6284,6.7367,6.8525,6.8525,6.8776,6.9381,6.9406,6.9406,6.9406,6.9406,6.9406,6.9406,6.9406,6.9155,6.8726,6.8726,6.8475,6.8045,0.0,6.7995,6.7919,6.7919,6.7869,6.7794,6.7794,6.7467,6.6987,6.6987,6.6614,6.609,0.0,0.0,0.0,0.0,0.0,0.0,0.0,0.0,0.0,0.0,0.0,0.0,0.0,0.0,0.0,0.0,0.0,0.0,0.0,0.0,2.2287,2.3158,2.3594,2.411,2.4758,2.5195,2.5503,2.5706,2.5706,2.5706,2.5706,2.5706,2.5706,2.5706,2.5706,2.5706,2.5686,2.5503,2.5535,2.5686,0.0,0.0,0.0,0.0,0.0,0.0,0.0,0.0,0.0,0.0,2.6452,2.7038,2.7246,0.0,0.0,0.0,0.0,0.0,3.401,3.6156,3.8829,4.2783,4.3723,4.4289,4.6635,4.7707,4.7933,4.6938,4.8971,5.1197,5.1975,5.3791,5.6,5.8409,6.0191,6.1492,6.2114,6.2617,6.2923,6.2923,6.34,6.3827,6.4099,6.4877,6.571,6.6589,6.7138,6.7894,6.8954,6.8776,6.8851,6.9381,6.9406,6.9406,6.9406,6.9406,6.9406,6.9406,6.9406,6.9105,6.86,6.86,6.8321,6.7794,0.0,6.7618,6.7389,6.7668,6.7442,6.6915,6.7241,6.7015,6.6513,6.6513,6.6338,6.609,0.0,0.0,0.0,0.0,0.0,0.0,0.0,0.0,0.0,0.0,0.0,0.0,0.0,0.0,0.0,0.0,0.0,0.0,0.0,2.1699,2.2374,2.344,2.4082,2.4629,2.5094,2.5496,2.5706,2.5706,2.5706,2.5764,2.5874,2.5874,2.5874,2.5854,2.5745,2.5706,0.0,2.5706,2.5706,2.5706,0.0,0.0,0.0,0.0,0.0,0.0,0.0,0.0,0.0,0.0,0.0,0.0,0.0,0.0,0.0,2.9715,3.0918,3.2687,3.4677,3.6852,3.9833,4.5223,4.643,4.6813,4.8812,5.0334,5.0837,4.9197,5.1205,5.3389,5.3916,5.4913,5.6771,6.0141,6.1773,6.3003,6.4149,6.3973,6.3651,6.35,6.3973,6.435,6.4496,6.5459,6.6538,6.7543,6.7844,6.8349,6.9155,6.8929,6.8977,6.9381,6.9406,6.9406,6.9406,6.9406,6.9406,6.9406,6.9255,6.8926,6.8399,6.8274,6.7922,6.7392,6.7392,6.7241,6.7012,6.7292,6.6965,6.6338,6.6664,6.6513,6.609,6.609,6.609,6.609,0.0,0.0,0.0,0.0,0.0,0.0,0.0,0.0,0.0,0.0,0.0,0.0,0.0,0.0,0.0,0.0,0.0,0.0,0.0,2.1885,2.2617,2.4246,2.4363,2.4629,2.5094,2.5496,2.5706,2.5706,2.5706,2.5913,2.636,2.636,2.636,2.634,2.5893,0.0,0.0,0.0,2.5706,2.5706,2.5706,0.0,0.0,0.0,0.0,0.0,0.0,0.0,0.0,0.0,0.0,0.0,0.0,0.0,2.9676,3.0053,3.2207,3.4887,3.6857,3.9286,4.2227,4.6086,4.6671,4.7516,5.2226,5.2251,5.1816,5.3692,5.544,5.7261,5.9338,6.0643,6.1517,6.1843,6.1994,6.2471,6.3601,6.3726,6.35,6.2927,6.34,6.3948,6.445,6.5459,6.6363,6.7012,6.797,6.8575,6.865,6.908,6.9356,6.9406,6.9406,6.9406,6.9406,6.9406,6.9406,6.9381,6.8901,6.8374,6.7844,6.7339,6.6789,6.6216,6.6216,6.6513,6.6962,6.6438,6.6488,6.6887,6.6363,6.6137,6.609,6.609,6.609,6.609,0.0,0.0,0.0,0.0,0.0,0.0,0.0,0.0,0.0,0.0,0.0,0.0,0.0,0.0,0.0,0.0,0.0,0.0,0.0,2.1905,2.2637,2.4324,2.4402,2.4734,2.5457,2.562,2.5706,2.5706,2.5991,2.6355,2.6777,2.6516,2.6399,2.638,0.0,0.0,0.0,0.0,0.0,2.5706,2.5706,2.5706,0.0,0.0,0.0,0.0,0.0,0.0,0.0,0.0,2.6284,2.6999,2.6999,2.8197,2.9886,3.1279,3.3059,3.5231,3.8273,4.1263,4.4426,4.8197,4.9784,5.0804,5.2352,5.4612,5.6061,5.4848,5.6714,5.8811,5.9659,6.0738,6.1592,6.1943,6.1718,6.1893,6.2978,6.3128,6.3053,6.2827,6.335,6.4153,6.5383,6.6187,6.7166,6.8399,6.8876,6.908,6.908,6.928,6.9406,6.9406,6.9406,6.9406,6.9406,6.9406,6.923,6.8901,6.8701,6.8123,6.7314,6.7087,6.6686,6.609,6.609,6.6237,6.6438,6.6589,6.6564,6.6413,6.6187,6.609,6.609,6.609,6.6959,6.8106,0.0,0.0,0.0,0.0,0.0,0.0,0.0,0.0,0.0,0.0,0.0,0.0,0.0,0.0,0.0,0.0,0.0,0.0,2.1846,2.2022,2.2773,2.4344,2.4402,2.4801,2.5686,2.5706,2.5706,2.5706,2.6296,2.6809,2.7207,2.6777,2.6582,0.0,0.0,0.0,0.0,0.0,0.0,0.0,2.5706,2.5706,0.0,0.0,0.0,0.0,0.0,0.0,0.0,0.0,2.6284,2.6999,2.6999,2.8197,3.0018,3.2197,3.4012,3.6024,3.9301,4.2918,4.639,4.897,5.1783,5.3891,5.369,5.6018,5.7801,5.6438,5.8478,6.0487,6.0311,6.0808,6.1336,6.1692,6.1461,6.1567,6.2651,6.2802,6.2802,6.2802,6.3475,6.4526,6.5939,6.6789,6.7844,6.928,6.9406,6.9406,6.9406,6.9406,6.9406,6.9406,6.9406,6.9406,6.9406,6.923,6.8876,6.8349,6.8196,6.7719,6.6987,6.6811,6.6488,6.609,6.6312,6.6388,6.6413,6.6836,6.6639,6.609,6.609,6.6515,6.7103,6.7103,6.8456,7.0319,0.0,0.0,0.0,0.0,0.0,0.0,0.0,0.0,0.0,0.0,0.0,0.0,0.0,0.0,0.0,0.0,0.0,0.0,2.1866,2.2285,2.3075,2.4332,2.4402,2.4801,2.5686,2.5706,2.5706,2.5706,2.6589,2.7246,2.7695,2.7226,0.0,0.0,0.0,0.0,0.0,0.0,0.0,0.0,2.5706,2.5706,2.5706,0.0,0.0,0.0,0.0,0.0,0.0,0.0,2.6284,2.6999,2.6999,2.8197,3.0091,3.2621,3.5161,3.7649,4.0038,4.4357,4.8127,4.7995,5.2134,5.6351,5.6885,5.62,5.6194,5.893,6.1271,6.2651,6.2099,6.1567,6.121,6.1235,6.121,6.1567,6.2651,6.2802,6.2802,6.2802,6.3802,6.4927,6.6011,6.7141,6.8224,6.9306,6.9406,6.9406,6.9406,6.9406,6.9406,6.9406,6.9406,6.9406,6.9406,6.8876,6.8324,6.7794,6.7263,6.6987,6.6962,6.6363,6.609,6.614,6.6736,6.6987,6.6987,6.6987,6.666,6.6133,6.6133,6.7437,6.9315,6.9315,7.0678,7.2545,0.0,0.0,0.0,0.0,0.0,0.0,0.0,0.0,0.0,0.0,0.0,0.0,0.0,0.0,0.0,0.0,0.0,0.0,2.1866,2.2285,2.3075,2.4332,2.4402,2.4801,2.5686,2.5706,2.5998,2.6615,2.6869,2.737,2.8099,2.735,0.0,0.0,0.0,0.0,0.0,0.0,0.0,0.0,2.5706,2.5706,2.5706,0.0,0.0,0.0,0.0,0.0,0.0,0.0,0.0,0.0,2.6999,2.8197,3.0624,3.5801,3.8245,4.041,4.5552,4.9735,5.2741,5.3092,5.5584,5.8121,5.8654,5.8504,5.8523,5.9332,6.1893,6.3596,6.2245,6.1868,6.2019,6.2822,6.1964,6.1567,6.2651,6.2802,6.2802,6.2802,6.3475,6.4505,6.5939,6.6789,6.7844,6.928,6.9406,6.9406,6.9406,6.9406,6.9406,6.9406,6.9406,6.9406,6.9406,6.8876,6.8324,6.7794,6.7263,6.6786,6.6363,6.6187,6.6338,6.6736,6.6912,6.6987,6.6962,6.6538,6.7154,6.8352,6.8352,6.9644,7.1543,7.1543,7.2873,7.4686,0.0,0.0,0.0,0.0,0.0,0.0,0.0,0.0,2.0605,2.0605,2.0605,2.0605,0.0,0.0,0.0,2.0605,2.1143,0.0,2.1885,2.2441,2.3162,2.4121,2.4305,2.4801,2.5686,2.5706,2.605,2.6758,2.6758,2.7109,2.7773,0.0,0.0,0.0,0.0,0.0,0.0,0.0,0.0,0.0,2.5706,2.5706,2.5706,0.0,0.0,0.0,0.0,0.0,0.0,0.0,0.0,0.0,2.6999,2.9199,3.256,3.6512,4.0064,4.3593,4.7546,5.1716,5.5056,5.5566,5.7524,5.9483,6.0055,6.018,6.0256,6.0437,6.2466,6.3873,6.2847,6.2496,6.2601,6.355,6.2647,6.2144,6.3028,6.2952,6.2902,6.3128,6.3676,6.4576,6.5939,6.684,6.7819,6.8979,6.928,6.9406,6.9406,6.9406,6.9406,6.9406,6.9406,6.9406,6.9406,6.865,6.812,6.7794,6.7015,6.6564,6.6463,6.6463,6.666,6.6987,6.6987,6.7113,6.7329,6.7375,6.8148,6.9377,7.0237,7.1863,7.3713,7.3713,7.5049,7.6914,0.0,0.0,2.0098,0.0,0.0,0.0,0.0,2.0605,2.0605,2.0605,2.0605,2.0605,0.0,0.0,0.0,2.0605,2.1368,2.1846,2.1905,2.2615,2.3279,2.3781,2.4238,2.482,2.564,2.5686,2.5913,2.634,2.638,2.6602,2.6999,0.0,2.6399,0.0,0.0,0.0,0.0,0.0,0.0,0.0,2.5764,2.5745,2.5706,2.5706,0.0,0.0,0.0,0.0,0.0,0.0,0.0,0.0,2.6999,3.0601,3.4949,3.5686,4.0808,4.6456,4.7517,5.1473,5.5516,5.6351,5.8535,6.0643,6.1361,6.1461,6.1512,6.1793,6.2898,6.3776,6.3576,6.3178,6.3078,6.3676,6.3274,6.3078,6.3626,6.3229,6.3078,6.3626,6.4174,6.4927,6.6011,6.7141,6.802,6.855,6.908,6.9406,6.9406,6.9406,6.9406,6.9406,6.9406,6.9381,6.9331,6.8299,6.7769,6.7719,6.6639,6.6413,6.6987,6.6987,6.7168,6.7439,6.7389,6.7775,6.8431,6.926,6.9706,7.0074,7.2002,7.407,7.5892,7.5892,7.7166,7.8968,0.0,0.0,2.0478,2.0576,0.0,0.0,2.0605,2.0605,2.0605,2.0605,2.0605,2.0605,2.0605,2.0605,0.0,2.0605,2.1055,2.1513,2.1876,2.2363,2.2977,2.3761,2.4535,2.5043,2.5227,2.5542,2.5745,2.5854,2.623,2.6602,0.0,0.0,0.0,2.6399,0.0,2.625,0.0,0.0,0.0,0.0,2.625,2.6042,2.5706,2.5706,2.5706,0.0,0.0,0.0,0.0,0.0,0.0,0.0,2.6999,2.9531,3.3257,3.7084,4.0629,4.4725,5.1221,5.3851,5.5509,5.8654,6.0543,6.2019,6.3446,6.3471,6.2697,6.0995,6.2948,6.445,6.2697,6.2998,6.3676,6.4249,6.3873,6.355,6.3676,6.3576,6.355,6.3676,6.4174,6.4927,6.6011,6.7141,6.802,6.855,6.908,6.9406,6.9406,6.9406,6.9406,6.9406,6.9406,6.9205,6.8776,6.8145,6.7593,6.7163,6.6438,6.6413,6.6987,6.6987,6.8412,7.0812,7.0351,7.119,7.285,7.2122,7.2774,7.4293,7.4734,7.6241,7.8113,7.8113,7.8725,7.9608,0.0,0.0,0.0,0.0,0.0,0.0,0.0,0.0,2.0605,2.0605,2.0605,2.0605,2.0605,2.0605,0.0,0.0,2.1172,2.1641,2.1885,2.245,2.3095,2.3781,2.4242,2.4672,2.5094,2.5305,2.5515,2.5706,2.5952,2.6179,0.0,0.0,0.0,2.6399,0.0,2.6516,0.0,0.0,0.0,0.0,0.0,2.655,2.6323,2.6323,2.6323,2.6323,2.6323,0.0,0.0,0.0,0.0,0.0,0.0,0.0,3.4982,3.787,4.1919,4.6629,5.1956,5.4177,5.591,5.9759,6.1547,6.2747,6.4174,6.4099,6.3425,6.2496,6.35,6.4078,6.2651,6.2852,6.345,6.4023,6.3877,6.3797,6.4048,6.3873,6.3877,6.4404,6.4475,6.4927,6.6011,6.7141,6.7919,6.8196,6.8929,6.9406,6.9406,6.9406,6.9406,6.9406,6.9406,6.913,6.86,6.807,6.7518,6.6987,6.6664,6.7522,6.9364,6.9364,7.0425,7.2369,7.2862,7.3717,7.4755,7.455,7.5094,7.6145,7.6872,7.8017,7.9297,7.9297,7.9716,8.0326,0.0,0.0,0.0,0.0,0.0,0.0,0.0,0.0,0.0,2.0605,2.0605,2.0605,2.0605,2.0605,2.0605,0.0,0.0,0.0,2.1885,2.2654,2.3268,2.3652,2.3761,2.4172,2.4965,2.5055,2.5305,2.5706,2.5706,2.5706,0.0,0.0,0.0,2.6399,0.0,0.0,0.0,0.0,0.0,0.0,0.0,0.0,0.0,0.0,2.7057,2.7116,2.7116,2.7116,2.7116,2.7116,0.0,0.0,0.0,0.0,3.695,3.8159,4.2776,4.8074,5.067,5.3482,5.6595,6.0406,6.2019,6.2952,6.4099,6.3948,6.3701,6.4249,6.4023,6.3525,6.2902,6.2802,6.3003,6.3601,6.3776,6.3998,6.4446,6.4274,6.4404,6.5229,6.5003,6.5128,6.599,6.7141,6.7794,6.7794,6.8801,6.9406,6.9406,6.9406,6.9406,6.9406,6.9406,6.908,6.8475,6.802,6.7665,6.7395,6.7983,6.9746,7.25,7.2982,7.3452,7.4015,7.5276,7.6069,7.647,7.7096,7.7324,7.7466,7.8677,7.9477,7.9967,7.9967,8.0405,8.1033,0.0,0.0,0.0,0.0,0.0,0.0,0.0,0.0,0.0,0.0,2.0605,2.0605,2.0605,2.0605,2.0605,2.0605,2.1035,2.1474,2.1866,0.0,0.0,2.319,2.3583,2.4035,2.4481,2.4887,2.5305,2.5706,2.5706,2.5706,0.0,0.0,0.0,2.6419,0.0,0.0,0.0,0.0,0.0,0.0,0.0,0.0,0.0,0.0,0.0,2.7604,2.7604,2.7604,2.7604,2.7604,2.7643,0.0,0.0,0.0,3.4975,3.7706,4.0289,4.3209,4.734,5.2536,5.7606,6.104,6.1994,6.2421,6.355,6.335,6.3078,6.3676,6.3751,6.3525,6.2902,6.2802,6.3003,6.3601,6.4099,6.44,6.4496,6.5233,6.566,6.5333,6.5634,6.5936,6.6086,6.7141,6.7794,6.7794,6.8801,6.9406,6.9406,6.9406,6.9406,6.9406,6.9406,6.8926,6.7919,6.7844,6.819,6.9018,7.1945,7.3876,7.4925,7.7291,7.8457,7.8486,7.8157,7.9104,8.0909,8.043,8.0225,8.0262,8.0462,8.0584,8.0674,8.0674,8.1093,8.168,0.0,0.0,0.0,0.0,0.0,0.0,0.0,0.0,0.0,0.0,0.0,2.1045,2.129,2.1329,2.1329,2.1329,2.1699,2.2108,2.2537,2.2897,2.3101,2.3101,2.3298,2.3719,2.4383,2.4609,2.5027,2.5706,2.5706,2.5706,0.0,2.5706,2.6069,0.0,0.0,0.0,0.0,0.0,0.0,0.0,2.8758,2.864,0.0,0.0,0.0,0.0,0.0,0.0,0.0,2.8758,2.9319,3.0324,3.2207,0.0,0.0,0.0,4.0884,4.2699,4.6803,5.2829,5.8227,5.9408,6.1341,6.3073,6.3576,6.35,6.3375,6.3651,6.3701,6.3525,6.2902,6.2802,6.2902,6.3153,6.3948,6.4496,6.4496,6.5409,6.6137,6.6234,6.6162,6.6237,6.6564,6.7317,6.7794,6.7794,6.8801,6.9406,6.9406,6.9406,6.9406,6.9406,6.9105,6.8575,6.7819,6.8654,7.0083,7.2125,7.5231,7.7039,7.7674,8.0171,8.061,7.9441,8.0454,8.1434,8.2309,8.165,8.1381,8.1302,8.0943,8.1033,8.1381,8.1381,8.177,8.2357,0.0,0.0,0.0,0.0,0.0,0.0,0.0,0.0,0.0,0.0,0.0,2.1513,2.1866,0.0,0.0,0.0,2.2266,2.2674,2.3062,2.3101,2.3101,2.3101,2.3101,2.3502,2.4371,2.4402,2.482,2.5706,2.5706,2.5706,2.5706,2.5706,2.6167,0.0,2.6999,0.0,0.0,0.0,0.0,0.0,2.9715,2.9741,0.0,0.0,0.0,0.0,0.0,0.0,0.0,0.0,0.0,0.0,3.4348,3.6225,0.0,0.0,0.0,4.3254,4.7094,5.2068,5.6488,5.7794,6.0186,6.2446,6.3274,6.3375,6.335,6.3626,6.3701,6.355,6.3103,6.2902,6.2802,6.2802,6.3751,6.4496,6.4496,6.5555,6.6488,6.6937,6.6714,6.6714,6.7163,6.7693,6.7995,6.7995,6.8876,6.9406,6.9406,6.9406,6.9406,6.9406,6.8876,6.8612,6.862,7.0687,7.2981,7.5439,7.8132,7.9696,8.0307,8.2013,8.1879,8.0346,8.2081,8.2806,8.2747,8.2249,8.2039,8.2009,8.15,8.162,8.2039,8.2039,8.2368,8.2806,0.0,0.0,0.0,0.0,0.0,0.0,0.0,0.0,0.0,0.0,0.0,2.1866,2.1905,2.1905,2.1905,2.1905,2.2266,2.2674,2.3062,2.3101,2.3101,2.3101,2.3101,0.0,2.4371,2.4402,2.482,2.5706,2.5706,2.5706,2.5706,2.5706,2.6167,2.6999,2.6999,2.7721,2.8912,0.0,0.0,0.0,3.0014,3.0156,0.0,0.0,0.0,0.0,0.0,0.0,0.0,0.0,0.0,0.0,0.0,0.0,3.8292,0.0,0.0,0.0,4.7713,4.9019,5.0828,5.7091,5.8422,5.9031,6.2149,6.245,6.2395,6.3475,6.3701,6.3676,6.3651,6.3178,6.2802,6.2802,6.3751,6.4496,6.4496,6.5907,6.6962,6.6987,6.7417,6.7719,6.7744,6.8224,6.855,6.855,6.908,6.9406,6.9406,6.9406,6.9406,6.9406,6.8876,6.9334,7.0815,7.4445,7.6971,7.8383,8.0586,8.1979,8.2625,8.2769,8.275,8.2625,8.2769,8.2806,8.2806,8.2747,8.2747,8.2747,8.2717,8.2717,8.2747,8.2747,8.2776,8.2806,0.0,0.0,0.0,0.0,0.0,0.0,0.0,0.0,0.0,0.0,0.0,0.0,0.0,0.0,0.0,0.0,2.281,2.2956,2.3092,2.3101,2.3101,2.3101,2.3101,2.3502,2.4371,2.4402,2.482,2.5706,2.5706,2.5706,2.5706,2.5706,2.6167,2.6999,2.6999,2.7858,2.935,2.935,0.0,0.0,0.0,0.0,0.0,0.0,0.0,0.0,0.0,0.0,0.0,0.0,0.0,0.0,0.0,0.0,0.0,4.2312,4.2838,4.3377,4.5135,4.7421,4.9983,5.2678,5.5114,5.7204,5.8716,6.0041,6.102,6.1421,6.2968,6.4099,6.3751,6.3525,6.3229,6.2877,6.3751,6.4496,6.4496,6.5932,6.6987,6.6987,6.7467,6.7794,6.7794,6.8274,6.86,6.86,6.908,6.9406,6.9406,6.9406,6.9406,6.9406,6.855,6.9549,7.2566,7.5706,7.8407,8.0673,8.1868,8.2567,8.2806,8.2806,8.2806,8.2806,8.2806,8.2806,8.2806,8.2806,8.2806,8.2806,8.2806,8.2806,8.2806,8.2806,8.2806,8.2806,0.0,0.0,0.0,0.0,0.0,0.0,0.0,0.0,0.0,0.0,0.0,0.0,0.0,0.0,0.0,0.0,0.0,2.3541,2.3541,2.3415,2.3337,2.3337,2.3337,2.3669,2.4371,2.4539,2.4988,2.5706,2.5706,2.5706,2.5706,2.5706,2.6167,2.7018,2.7155,2.8119,0.0,0.0,0.0,3.1645,0.0,0.0,3.4609,0.0,0.0,0.0,0.0,0.0,0.0,0.0,0.0,0.0,0.0,0.0,0.0,0.0,4.3014,4.3126,4.3639,4.5824,4.8284,4.975,5.2209,5.4644,5.6125,5.8158,5.9885,6.0217,6.2395,6.4174,6.3998,6.3973,6.3847,6.345,6.4174,6.4777,6.4777,6.5882,6.6786,6.6987,6.7314,6.7668,6.8045,6.8374,6.8675,6.8851,6.9205,6.9406,6.9406,6.9406,6.9565,6.9935,7.0156,7.1737,7.4858,7.7635,8.0053,8.2129,8.2597,8.2806,8.2776,8.2567,8.2597,8.2776,8.2567,8.2597,8.2806,8.2806,8.2806,8.2806,8.2806,8.2806,8.2806,8.2806,8.2806,8.2806,0.0,0.0,0.0,0.0,0.0,0.0,0.0,0.0,0.0,0.0,0.0,0.0,0.0,0.0,0.0,0.0,0.0,2.4402,2.4402,2.4043,2.382,2.382,2.382,2.4004,2.441,2.4867,2.5305,0.0,0.0,0.0,2.5706,0.0,2.6186,2.7018,2.7493,2.8439,2.9637,0.0,3.0742,3.1626,0.0,3.3015,3.3391,0.0,0.0,0.0,4.1967,4.351,0.0,0.0,0.0,0.0,0.0,0.0,0.0,0.0,0.0,4.3101,0.0,0.0,0.0,4.8661,4.9916,5.1205,5.4561,5.699,5.8874,6.0085,6.2069,6.3776,6.4396,6.45,6.45,6.45,6.4953,6.5283,6.5283,6.576,6.6312,6.6912,6.6987,6.7414,6.845,6.8575,6.8801,6.9331,6.9381,6.9381,6.9406,6.9474,6.9939,7.0968,7.3708,7.5964,7.7597,8.0405,8.2129,8.2806,8.2806,8.2806,8.2776,8.2118,8.2178,8.2747,8.2069,8.2129,8.2747,8.2776,8.2806,8.2806,8.2806,8.2806,8.2806,8.2806,8.2806,8.2806,0.0,0.0,0.0,0.0,0.0,2.4266,2.4371,2.4402,0.0,0.0,0.0,0.0,0.0,0.0,0.0,0.0,0.0,2.4402,2.4402,2.4305,2.4227,2.4227,2.4227,2.4453,2.4906,0.0,0.0,0.0,0.0,0.0,0.0,0.0,0.0,2.7038,2.7793,2.8842,3.0059,3.0522,0.0,3.2715,3.5779,3.8339,0.0,0.0,0.0,0.0,0.0,5.0629,0.0,0.0,5.2932,4.8628,0.0,0.0,0.0,0.0,0.0,0.0,4.3176,0.0,0.0,0.0,0.0,0.0,5.2837,5.4067,5.5742,6.006,6.1115,6.1918,6.4099,6.4827,6.5078,6.5078,6.5204,6.5283,6.5283,6.576,6.614,6.6338,6.6736,6.7113,6.7392,6.7794,6.8224,6.8776,6.8826,6.8979,6.9381,7.0956,7.1592,7.101,7.522,7.7526,7.7616,8.0405,8.2129,8.2806,8.2806,8.2806,8.2776,8.2118,8.189,8.2039,8.1381,8.1183,8.1441,8.2417,8.2806,8.2806,8.2806,8.2806,8.2806,8.2806,8.2806,8.2806,0.0,0.0,2.4461,2.4668,2.4687,2.4746,2.4918,2.4937,0.0,0.0,0.0,0.0,0.0,0.0,0.0,0.0,0.0,2.5144,2.4957,2.4805,2.4687,2.4687,2.4687,2.4816,2.5082,2.5266,0.0,0.0,0.0,0.0,0.0,0.0,0.0,0.0,2.8086,2.9277,3.0527,0.0,0.0,0.0,3.6743,0.0,0.0,4.5486,4.7784,0.0,0.0,0.0,5.5246,5.8951,5.7148,0.0,0.0,0.0,0.0,0.0,0.0,0.0,0.0,0.0,0.0,4.498,0.0,0.0,5.0277,5.1732,5.3816,5.8202,5.9012,5.979,6.2592,6.2818,6.2843,6.3776,6.4103,6.458,6.5509,6.5911,6.609,6.609,6.6413,6.6736,6.6987,6.7288,6.7693,6.8246,6.8475,6.8826,6.9356,7.1549,7.2765,7.2719,7.6663,7.8977,7.935,8.1266,8.2417,8.2806,8.2507,8.2238,8.1919,8.0992,8.0692,8.0913,8.0255,8.0285,8.0853,8.165,8.1949,8.1949,8.1949,8.2129,8.2417,8.2687,8.2806,8.2806,0.0,0.0,2.4687,2.509,2.516,2.5305,2.5718,2.5776,2.5932,0.0,0.0,0.0,0.0,0.0,0.0,0.0,0.0,2.6348,2.5874,2.5481,2.5239,2.5239,2.52,2.516,2.516,2.5515,2.5706,0.0,0.0,0.0,0.0,0.0,0.0,0.0,2.8424,2.9825,3.1274,3.1921,0.0,3.6167,3.7094,3.8704,0.0,0.0,4.8627,4.9759,5.6072,5.802,5.7855,5.9801,5.8654,0.0,0.0,0.0,0.0,0.0,4.4141,0.0,0.0,0.0,0.0,0.0,0.0,0.0,4.7892,4.995,5.2503,5.5573,5.6351,5.733,6.0186,5.9578,5.9251,6.124,6.225,6.348,6.5463,6.5789,6.5814,6.5814,6.5814,6.6112,6.6836,6.6912,6.7138,6.7668,6.8221,6.8837,6.9638,7.1839,7.3798,7.5418,7.8261,8.0435,8.1781,8.2477,8.2747,8.2687,8.2069,8.1471,8.0764,7.9477,7.9238,7.9758,7.9088,7.9495,8.0584,8.0494,8.0614,8.0794,8.0794,8.1153,8.177,8.2357,8.2627,8.2687,2.4965,2.5222,2.5484,2.5562,2.5581,2.5749,2.6191,2.6269,2.6406,0.0,0.0,0.0,0.0,0.0,0.0,0.0,0.0,0.0,2.6784,2.6367,2.6157,2.6157,2.5789,2.5581,2.5581,2.5647,2.5706,2.5706,0.0,0.0,0.0,0.0,0.0,0.0,2.9037,3.0902,3.3281,3.2515,3.5358,4.0485,4.164,0.0,4.9442,5.416,5.7554,5.9899,6.0864,6.1114,6.0502,0.0,5.6639,5.662,0.0,0.0,0.0,0.0,0.0,0.0,0.0,0.0,0.0,0.0,0.0,0.0,4.9473,4.9298,5.0142,5.5171,5.4519,5.4017,5.723,5.7951,5.8202,5.8629,6.0995,6.2952,6.3379,6.3856,6.4178,6.4178,6.4178,6.4731,6.6137,6.6287,6.6513,6.7113,6.7643,6.8983,7.1291,7.3569,7.5733,7.7693,8.0619,8.2031,8.18,8.2477,8.2537,8.1979,8.186,8.1471,8.0764,7.9986,7.9668,7.9758,7.9088,7.8938,7.9148,7.8609,7.9357,8.0794,8.0794,8.0883,8.1003,8.1123,8.153,8.2009,2.541,2.5562,2.5706,2.5706,2.5893,2.6133,2.636,2.6783,0.0,0.0,0.0,0.0,0.0,0.0,0.0,0.0,0.0,0.0,2.7975,2.7383,2.7057,2.7057,2.6589,2.6245,2.6062,2.6042,2.5932,2.5706,0.0,0.0,0.0,0.0,0.0,0.0,0.0,3.2692,3.5482,3.678,3.9921,4.3956,4.3495,0.0,5.1095,5.6105,5.9316,6.1246,6.2099,6.24,6.1798,5.7951,5.7549,0.0,0.0,5.195,5.067,0.0,4.7631,4.5332,0.0,0.0,0.0,4.498,0.0,0.0,0.0,4.8118,4.8695,5.2879,5.2017,5.1373,5.4418,5.4519,5.4536,5.5616,5.7449,5.8704,5.8704,6.227,6.4906,6.4906,6.4906,6.5208,6.6015,6.609,6.6363,6.6962,6.8204,6.9678,7.1353,7.4284,7.6529,7.7912,8.0133,8.1302,8.1302,8.165,8.165,8.1302,8.0943,8.0285,7.9297,7.8968,7.8621,7.8292,7.8292,7.8489,7.8759,7.843,7.8878,7.9806,7.9806,8.0016,8.0345,8.0674,8.1003,8.1302,2.5725,2.5764,2.5823,2.5823,2.6289,2.6673,2.6751,2.7506,2.8269,0.0,0.0,0.0,0.0,0.0,0.0,0.0,0.0,0.0,0.0,0.0,2.8397,2.8067,2.7474,2.71,2.7035,2.6936,2.6841,2.6718,2.8193,0.0,0.0,0.0,0.0,0.0,0.0,3.5015,3.8318,4.1251,4.4497,4.7518,0.0,4.7738,5.1754,5.7021,5.9357,6.0085,6.2074,6.2802,6.245,5.9991,0.0,5.9809,5.6947,5.4737,0.0,0.0,0.0,0.0,0.0,0.0,0.0,0.0,0.0,4.5874,0.0,0.0,0.0,4.9992,4.9405,4.9163,5.1507,5.0929,5.0569,5.2051,5.3499,5.4321,5.4019,6.006,6.4433,6.4208,6.4283,6.4684,6.5559,6.619,6.6862,6.7565,6.9277,7.0797,7.2024,7.4789,7.6895,7.8098,7.9208,8.0117,8.0794,8.0794,8.0734,8.0614,7.9907,7.9058,7.7981,7.7861,7.7574,7.7215,7.7753,7.831,7.8807,7.8807,7.8807,7.8807,7.8807,7.9118,7.9668,8.0225,8.0494,8.0614,2.5842,2.603,2.6309,2.6309,2.7005,2.7663,2.8041,2.8822,2.9813,0.0,0.0,0.0,0.0,0.0,0.0,0.0,0.0,0.0,3.0785,0.0,0.0,2.9452,2.8249,2.8148,2.9286,2.8915,2.9256,3.0406,3.0594,3.0241,0.0,0.0,0.0,0.0,3.4153,3.7936,4.2566,4.2512,4.6253,5.2236,5.3052,5.4511,0.0,6.1279,6.2195,6.114,6.2375,6.2802,6.2601,0.0,6.1943,6.2647,0.0,5.7826,5.6646,0.0,0.0,0.0,0.0,0.0,0.0,0.0,4.5849,0.0,0.0,0.0,4.6612,4.74,0.0,4.7525,4.8319,0.0,0.0,4.7355,5.0896,5.3306,5.1867,5.581,5.8453,5.743,5.7757,5.9589,6.3576,6.6614,6.8707,6.9684,7.0457,7.2386,7.5778,7.5813,7.7134,8.0344,8.0037,8.0117,8.0794,8.0794,8.0494,7.9907,7.9238,7.8819,7.8687,7.8071,7.81,7.8579,7.8639,7.8747,7.8807,7.8807,7.8807,7.8807,7.8807,7.8867,7.8908,7.9016,7.9417,7.9907,2.6518,2.6608,2.6836,2.7115,2.7663,2.8288,2.8939,2.9995,3.1074,0.0,0.0,0.0,0.0,0.0,0.0,0.0,0.0,3.7498,0.0,0.0,0.0,3.6313,3.2537,3.1775,3.462,3.2584,3.1657,3.1997,3.3044,3.2963,0.0,0.0,0.0,0.0,3.8441,4.1818,4.5736,4.9373,5.1877,5.3663,5.7097,5.7876,0.0,6.0177,6.126,6.1436,6.3149,6.3797,6.3701,0.0,6.3124,0.0,0.0,0.0,0.0,0.0,0.0,0.0,0.0,0.0,0.0,0.0,0.0,0.0,4.7516,0.0,4.6823,0.0,0.0,0.0,0.0,0.0,0.0,0.0,4.8987,5.0092,4.9414,5.1239,5.3775,5.6821,5.7656,5.9489,6.3324,6.4684,6.6194,6.824,7.0995,7.3074,7.426,7.5955,7.755,7.8992,7.8412,7.8382,7.9058,7.9447,7.9507,7.9208,7.8938,7.8579,7.822,7.834,7.831,7.825,7.8627,7.8807,7.8807,7.8807,7.8807,7.8807,7.8807,7.8807,7.8807,7.8807,7.8968,7.9238,0.0,0.0,0.0,2.7786,2.849,2.935,3.0341,3.125,3.2168,0.0,0.0,0.0,3.7633,3.6415,0.0,0.0,0.0,4.2062,0.0,0.0,4.0587,0.0,0.0,0.0,0.0,3.6781,3.5082,3.4405,3.5554,3.5399,3.4096,0.0,0.0,0.0,0.0,4.4545,4.8353,5.3648,5.5824,5.6093,6.0035,6.0236,5.8284,5.9508,6.0482,6.1486,6.3717,6.4199,6.3923,6.4676,6.4279,0.0,6.3651,0.0,0.0,0.0,0.0,0.0,5.3565,0.0,0.0,0.0,0.0,0.0,0.0,0.0,0.0,0.0,0.0,0.0,0.0,0.0,0.0,0.0,0.0,4.7255,0.0,4.7471,4.9933,5.4813,5.6696,5.8654,0.0,6.2761,6.4486,6.697,7.0808,7.3214,7.3552,7.5756,7.7322,7.8041,7.7424,7.7394,7.8071,7.8549,7.8807,7.8807,7.8609,7.837,7.81,7.84,7.837,7.81,7.8579,7.8807,7.8807,7.8807,7.8807,7.8807,7.8807,7.8807,7.8807,7.8807,7.8807,7.8807,0.0,2.8842,0.0,2.8275,2.9701,3.1245,3.25,3.2734,3.3082,0.0,0.0,0.0,0.0,0.0,0.0,0.0,0.0,4.5477,4.5588,0.0,4.4724,0.0,0.0,0.0,0.0,0.0,4.0085,3.8705,3.8166,3.7232,3.596,0.0,0.0,0.0,4.0861,4.5231,5.0427,5.226,5.61,6.1059,6.2275,6.2074,6.1085,0.0,6.116,6.1486,6.3717,0.0,0.0,6.5157,6.5685,0.0,0.0,0.0,0.0,0.0,0.0,0.0,0.0,0.0,0.0,5.5498,0.0,0.0,0.0,0.0,4.7716,0.0,0.0,0.0,0.0,0.0,0.0,0.0,0.0,0.0,0.0,0.0,0.0,0.0,0.0,0.0,0.0,6.143,6.5303,0.0,6.9779,7.2751,7.5647,7.53,7.6143,7.8687,7.813,7.81,7.8759,7.8807,7.8807,7.8807,7.813,7.816,7.8747,7.813,7.816,7.8759,7.8807,7.8807,7.8807,7.8807,7.8807,7.8807,7.8807,7.8807,7.8807,7.8807,7.8807,7.8807,0.0,0.0,0.0,3.0019,3.0522,3.1328,3.2613,3.3297,3.4719,0.0,0.0,0.0,0.0,4.4926,4.6195,0.0,0.0,5.1396,5.2565,5.1862,0.0,0.0,0.0,4.7102,0.0,0.0,4.2814,4.0487,4.0273,3.995,3.9531,4.0376,0.0,0.0,0.0,4.7195,5.1197,5.4293,5.7154,5.9684,0.0,6.0864,5.9834,0.0,6.2918,6.2501,6.4375,6.4881,0.0,6.5789,6.6237,6.6234,6.5128,6.4128,6.3023,6.1165,5.9834,0.0,0.0,0.0,5.8911,5.8911,0.0,0.0,0.0,0.0,0.0,0.0,0.0,0.0,0.0,0.0,0.0,0.0,0.0,0.0,0.0,0.0,0.0,0.0,0.0,0.0,0.0,0.0,0.0,0.0,6.7945,0.0,7.3159,7.4719,7.6335,7.8071,7.7921,7.7921,7.813,7.8579,7.8807,7.8807,7.8579,7.8579,7.8807,7.8549,7.8579,7.8807,7.8807,7.8807,7.8807,7.8807,7.8807,7.8807,7.8807,7.8807,7.8807,7.8807,7.8807,7.8807,3.0517,0.0,3.1265,3.0952,3.1269,3.2164,3.3922,3.5326,3.7217,0.0,4.1818,0.0,4.8809,0.0,5.0662,0.0,5.5569,5.5781,5.8095,5.654,0.0,5.8168,5.4436,0.0,0.0,0.0,0.0,4.3346,4.1966,4.1289,4.1289,4.1517,4.1845,0.0,4.4443,4.728,5.0636,5.4293,5.6602,5.7957,0.0,6.0261,0.0,0.0,6.3073,6.2225,0.0,6.5434,6.5333,6.5911,6.6363,6.6538,6.581,6.5107,6.4379,6.345,6.2395,6.1718,6.2466,6.2471,0.0,6.2621,6.0563,0.0,5.7173,0.0,0.0,0.0,0.0,0.0,0.0,0.0,0.0,0.0,0.0,0.0,0.0,0.0,0.0,0.0,0.0,0.0,0.0,0.0,0.0,0.0,0.0,0.0,0.0,7.3762,7.5856,7.81,7.816,7.816,7.816,7.8579,7.8807,7.8807,7.8807,7.8807,7.8807,7.8807,7.8807,7.8807,7.8807,7.8807,7.8807,7.8807,7.8807,7.8807,7.8807,7.8807,7.8807,7.8807,7.8807,7.8807,0.0,3.2415,3.2229,3.1334,3.2296,3.4039,3.6514,3.8824,4.0652,0.0,4.5043,4.7722,4.8824,5.0579,5.3312,5.7475,5.7445,0.0,6.1743,5.9037,0.0,0.0,5.8961,5.7186,5.6985,0.0,0.0,0.0,0.0,4.1414,4.1389,4.197,4.2249,4.2299,4.3327,4.5663,4.9019,5.2201,5.4687,5.6602,5.8359,6.0568,6.2827,6.2927,6.1923,6.097,6.4735,6.5132,6.4053,6.5563,6.609,6.609,6.609,6.609,6.6011,6.5484,6.5333,6.5376,6.5431,6.432,6.3787,6.6585,0.0,0.0,0.0,0.0,5.872,0.0,0.0,0.0,0.0,0.0,0.0,0.0,0.0,0.0,0.0,0.0,0.0,0.0,0.0,0.0,0.0,0.0,0.0,0.0,0.0,0.0,0.0,7.2445,7.4612,7.8519,7.8657,7.8657,7.8657,7.8657,7.8657,7.8657,7.8747,7.8807,7.8807,7.8807,7.8807,7.8807,7.8807,7.8807,7.8807,7.8807,7.8807,7.8807,7.8807,7.8807,7.8807,7.8807,7.8807,7.8807,3.3915,3.548,3.6466,3.5409,3.7167,3.8958,3.9659,4.2225,0.0,0.0,4.9834,5.1518,5.509,5.696,5.8406,5.9534,5.9928,0.0,0.0,0.0,0.0,6.1391,6.1346,5.9946,5.706,5.3874,0.0,4.7691,0.0,0.0,4.2559,4.2724,4.2788,4.2813,4.3503,4.5663,4.8944,5.1038,5.5006,6.0161,6.3028,6.363,6.2978,0.0,6.4233,6.3124,6.5312,6.5814,6.5559,6.5939,6.609,6.609,6.609,6.609,6.6065,6.5936,6.5886,6.6148,6.7365,6.7663,6.8179,7.0569,6.9294,6.7604,0.0,0.0,0.0,0.0,0.0,0.0,0.0,0.0,0.0,0.0,0.0,0.0,0.0,0.0,0.0,0.0,0.0,0.0,0.0,0.0,0.0,0.0,0.0,0.0,6.8826,0.0,7.3539,7.6544,7.6634,7.6634,7.6634,7.6634,7.6634,7.6664,7.81,7.8807,7.8807,7.8807,7.8807,7.8807,7.8807,7.8807,7.8807,7.8807,7.8807,7.8807,7.8807,7.8807,7.8807,7.8807,7.8807,7.8807,3.5729,3.7704,3.9208,3.8569,4.192,4.4433,4.3701,4.7571,0.0,5.398,5.5439,0.0,5.874,6.0417,6.1396,6.1396,6.1943,0.0,6.3299,0.0,0.0,6.2993,6.2647,6.1547,5.957,5.6333,0.0,5.0444,0.0,0.0,4.3689,4.3689,4.3689,4.374,4.4543,4.6075,4.8284,5.1666,5.6086,6.1014,6.3375,6.4002,0.0,6.4931,6.5283,6.5279,6.6162,6.6338,6.609,6.609,6.6725,6.7501,6.7501,6.8148,6.8893,6.8893,6.8893,6.9103,7.0005,7.0651,7.1366,7.2586,7.2237,7.1643,7.197,7.0614,6.9542,0.0,0.0,0.0,0.0,0.0,0.0,0.0,0.0,0.0,0.0,0.0,0.0,0.0,0.0,0.0,0.0,0.0,0.0,0.0,0.0,0.0,0.0,6.9828,7.2116,7.5347,7.5736,7.5497,7.4599,7.6305,7.6754,7.5916,7.7861,7.8807,7.8807,7.8807,7.8807,7.8807,7.8807,7.8807,7.8807,7.8807,7.8807,7.8807,7.8807,7.8807,7.8807,7.8807,7.8807,7.8807,3.815,4.004,4.1571,4.1367,4.633,4.9911,4.8675,5.3399,0.0,5.7501,0.0,6.1848,6.0442,6.1873,6.2902,6.2827,0.0,6.4404,6.581,6.4082,6.3655,6.5132,6.3299,6.2446,6.2902,5.9263,0.0,0.0,0.0,0.0,4.4815,4.4815,4.4815,4.4865,4.5934,4.7039,4.8444,5.3708,5.7851,6.0944,6.2245,6.3626,6.497,6.526,6.6301,6.771,6.801,6.7331,6.6381,6.6657,6.8054,6.97,6.9883,7.1319,7.2857,7.2774,7.2691,7.2696,7.2972,7.3325,7.3706,7.4067,7.4154,7.4342,7.5119,7.4844,7.5146,7.7626,7.424,7.1752,0.0,0.0,0.0,0.0,0.0,0.0,0.0,0.0,0.0,0.0,0.0,0.0,0.0,0.0,0.0,0.0,0.0,0.0,0.0,0.0,7.047,7.4018,7.5018,7.4689,7.2907,0.0,7.7562,7.5916,7.7861,7.8807,7.8807,7.8807,7.8807,7.8807,7.8807,7.8807,7.8807,7.8807,7.8807,7.8807,7.8807,7.8807,7.8807,7.8807,7.8807,7.8807,4.2732,4.4848,4.6224,4.4968,4.9739,5.4088,5.5121,5.6272,5.7847,6.0174,6.0246,6.0116,6.0292,6.2245,6.335,6.2852,6.3751,0.0,0.0,0.0,0.0,6.4626,6.3847,6.345,6.3525,6.0588,5.7524,0.0,0.0,0.0,4.601,4.601,4.601,4.6035,4.6672,4.9314,5.3524,5.7217,6.0708,6.3948,6.5961,6.6965,6.7409,6.9267,7.0476,7.1452,7.3278,7.1169,6.7799,6.9617,7.0836,7.1846,7.3111,7.4139,7.4795,7.4229,7.3711,7.3682,7.5435,7.5555,7.5764,7.8062,7.8648,7.8992,8.0211,7.9993,7.9821,8.086,7.9849,7.8645,7.8202,0.0,0.0,0.0,0.0,0.0,0.0,0.0,0.0,0.0,0.0,0.0,0.0,0.0,0.0,0.0,0.0,0.0,0.0,0.0,6.875,0.0,7.2235,0.0,0.0,0.0,7.6245,7.5916,7.7861,7.8807,7.8807,7.8807,7.8807,7.8807,7.8807,7.8807,7.8807,7.8807,7.8807,7.8807,7.8807,7.8807,7.8807,7.8807,7.8807,7.8807,4.6667,4.8119,0.0,4.8624,5.214,5.5659,5.7606,5.8861,6.0593,6.3375,6.3274,6.3023,6.3279,6.4028,6.4404,6.4128,6.4856,6.5333,6.5333,6.5078,6.4902,6.4902,6.44,0.0,6.4124,6.2792,6.0055,5.5842,0.0,0.0,4.8008,4.8008,4.8008,4.8109,5.0092,5.2628,5.5717,6.0205,0.0,6.5128,6.7643,6.9153,7.0066,7.1491,7.2973,7.444,7.5827,7.4965,7.3211,7.3671,7.4814,7.612,7.6868,7.8069,7.9167,7.885,7.8561,7.8466,7.9114,7.8802,7.8537,7.9568,7.9537,7.9537,8.0554,8.0794,8.0973,8.165,8.153,8.0584,7.822,7.4929,0.0,0.0,0.0,0.0,0.0,0.0,0.0,0.0,0.0,0.0,0.0,0.0,0.0,0.0,0.0,0.0,0.0,0.0,6.7537,0.0,0.0,0.0,7.1351,0.0,0.0,7.4373,7.7382,7.8807,7.8807,7.8807,7.8807,7.8807,7.8807,7.8807,7.8807,7.8807,7.8807,7.8807,7.8807,7.8807,7.8807,7.8807,7.8807,7.8807,5.1497,5.2209,5.2611,5.2997,5.483,5.7022,5.9238,6.1045,6.3053,6.5609,6.5835,6.581,6.5936,6.5559,6.5283,6.5283,6.5785,6.609,6.609,6.571,6.5459,6.5459,6.4953,6.4651,6.4651,6.4651,6.2516,0.0,0.0,0.0,5.0142,5.072,5.1322,5.2,5.4629,5.6614,0.0,0.0,6.5525,6.7085,6.9251,7.1275,7.3112,7.4105,7.5786,7.7737,7.8669,7.9405,7.98,7.8888,7.9287,8.0245,8.0566,8.1946,8.3405,8.3255,8.3087,8.2877,8.2368,8.1721,8.1063,8.0405,7.9716,7.9357,7.9878,8.0416,8.0973,8.165,8.18,8.0973,7.8352,7.6886,0.0,0.0,0.0,0.0,0.0,0.0,0.0,0.0,0.0,0.0,0.0,0.0,0.0,0.0,0.0,0.0,6.468,0.0,6.6475,0.0,0.0,7.1591,7.0544,0.0,7.6814,7.421,7.7293,7.8807,7.8807,7.8807,7.8807,7.8807,7.8807,7.8807,7.8807,7.8807,7.8807,7.8807,7.8807,7.8807,7.8807,7.8807,7.8807,7.8807,5.8792,5.9338,5.9238,5.8805,5.8956,5.9859,6.2074,6.2601,6.3354,6.5132,6.4953,6.4827,6.5308,6.5333,6.5283,6.5283,6.5785,6.609,6.609,6.604,6.6036,6.6036,6.5509,6.5229,6.5229,6.5229,6.4002,0.0,0.0,0.0,0.0,5.4436,5.6903,5.9313,5.9614,0.0,0.0,6.4802,6.7882,7.2134,7.2375,7.4144,7.6842,7.8913,8.0579,8.2083,8.4149,8.5328,8.5883,8.5784,8.414,8.2384,8.3795,8.4767,8.5312,8.4714,8.4096,8.3617,8.3557,8.3068,8.2447,8.177,8.1111,8.0644,8.0704,8.0764,8.0973,8.165,8.18,8.171,8.1381,7.8801,7.5839,0.0,0.0,0.0,0.0,0.0,0.0,0.0,0.0,0.0,0.0,0.0,0.0,0.0,0.0,0.0,0.0,0.0,6.5398,6.8197,6.8974,7.0394,7.2608,7.4988,7.6874,7.8268,7.8627,7.8807,7.8807,7.8807,7.8807,7.8807,7.8807,7.8807,7.8807,7.8807,7.8807,7.8807,7.8807,7.8807,7.8807,7.8807,7.8807,7.8807,5.9408,5.9834,5.9859,5.994,6.0794,6.1898,6.3149,6.4479,6.5559,6.6234,6.6133,6.6083,6.6309,6.661,6.6789,6.6789,6.699,6.7116,6.7116,6.7116,6.699,6.6639,6.6434,6.6158,6.5785,6.5785,6.4705,0.0,0.0,0.0,0.0,5.7173,5.8529,6.0914,0.0,6.3927,6.5188,6.8416,7.0961,7.2962,7.4674,7.6871,7.9218,8.0492,8.217,8.3894,8.478,8.5282,8.5492,8.5492,8.5258,8.5096,8.5714,8.606,8.6259,8.599,8.5701,8.5402,8.5013,8.4444,8.3786,8.3128,8.2469,8.189,8.15,8.171,8.1949,8.183,8.2129,8.2417,8.2417,8.1291,7.9387,0.0,0.0,0.0,0.0,0.0,0.0,0.0,0.0,0.0,0.0,0.0,0.0,0.0,0.0,0.0,0.0,0.0,0.0,7.0829,7.1188,7.2787,7.5809,7.5869,7.6305,7.7083,7.822,7.8807,7.8807,7.8807,7.8807,7.8807,7.8807,7.8807,7.8807,7.8807,7.8807,7.8807,7.8807,7.8807,7.8807,7.8807,7.8807,7.8807,6.1793,6.2044,6.2069,6.2446,6.3354,6.4233,6.4806,6.6212,6.7238,6.7238,6.7367,6.7414,6.7263,6.7568,6.7794,6.7794,6.7794,6.7794,6.7794,6.7794,6.7618,6.7263,6.7238,0.0,6.6614,6.6438,6.5685,6.4258,6.2099,0.0,0.0,5.9558,6.0814,6.3989,6.6205,6.7218,6.749,7.1692,7.3837,7.4624,7.6879,7.9222,8.1425,8.1882,8.3175,8.4694,8.4694,8.4694,8.4694,8.4694,8.5342,8.611,8.611,8.611,8.611,8.611,8.6259,8.6289,8.5821,8.5492,8.5132,8.4455,8.3816,8.3177,8.2499,8.2578,8.2657,8.2189,8.2477,8.2806,8.2806,8.2627,8.1471,7.831,0.0,0.0,0.0,0.0,0.0,0.0,0.0,0.0,0.0,0.0,0.0,0.0,0.0,0.0,0.0,0.0,0.0,0.0,0.0,0.0,7.6317,7.5467,7.5617,7.6784,7.813,7.8807,7.8807,7.8807,7.8807,7.8807,7.8807,7.8807,7.8807,7.8807,7.8807,7.8807,7.8807,7.8807,7.8807,7.8807,7.8807,7.8807,6.7948,6.807,6.7693,6.7719,6.7288,6.7138,6.7668,6.7769,6.7794,6.7794,6.8249,6.8374,6.7844,6.7794,6.7794,6.7794,6.7794,6.7794,6.7794,6.7794,6.7794,0.0,0.0,6.7794,6.7769,6.7263,6.7238,6.7744,0.0,0.0,6.121,6.1718,6.4902,7.024,7.1265,7.1737,7.1887,7.4139,7.6325,7.8381,7.9092,8.1088,8.3649,8.3649,8.4106,8.4694,8.4694,8.4694,8.4694,8.4694,8.4694,8.4724,8.4724,8.4724,8.4724,8.4724,8.5192,8.5701,8.5701,8.617,8.6499,8.5821,8.5162,8.4485,8.3827,8.3217,8.2806,8.2776,8.2806,8.2806,8.2806,8.2249,8.0932,7.825,0.0,0.0,0.0,0.0,0.0,0.0,0.0,6.9915,6.9977,0.0,0.0,0.0,0.0,0.0,0.0,0.0,0.0,6.8944,6.7119,0.0,7.2907,7.2937,7.4899,7.8777,7.8807,7.8807,7.8807,7.8807,7.8807,7.8807,7.8807,7.8807,7.8807,7.8807,7.8807,7.8807,7.8807,7.8807,7.8807,7.8807,7.8807,7.8807,6.7668,6.7919,6.7794,6.7794,6.7643,6.7593,6.7769,6.812,6.8475,6.8851,6.9401,6.9825,7.0026,6.9376,6.8901,0.0,6.8901,6.8901,0.0,6.8901,6.8726,6.8349,6.8349,6.8173,6.7819,6.7618,6.7618,6.7794,0.0,0.0,0.0,6.4802,6.7349,7.0767,7.0666,7.1667,7.3533,7.6209,7.7772,7.8635,8.1273,8.2872,8.3688,8.3688,8.4126,8.4634,8.4186,8.4305,8.4634,8.4186,8.4036,8.3946,8.3536,8.3995,8.4694,8.4694,8.4844,8.5013,8.5013,8.5162,8.5282,8.5073,8.4844,8.4634,8.4425,8.3547,8.2806,8.2806,8.2069,8.1441,8.1441,8.1242,8.0255,7.7544,7.7933,0.0,0.0,0.0,0.0,0.0,0.0,7.1128,0.0,7.026,0.0,0.0,0.0,0.0,0.0,0.0,0.0,0.0,7.3296,0.0,7.825,7.6048,7.6245,7.8807,7.8807,7.8807,7.8807,7.8807,7.8807,7.8807,7.8807,7.8807,7.8807,7.8807,7.8807,7.8807,7.8807,7.8807,7.8807,7.8807,7.8807,7.8807,6.7593,6.7794,6.7869,6.807,6.8271,6.8497,6.872,6.92,6.9677,6.9981,7.0378,7.0729,7.1056,7.048,0.0,7.0031,7.0031,7.0031,7.0031,7.0031,6.978,6.925,6.9225,6.8974,6.8399,6.8221,0.0,6.7794,6.6208,6.5824,6.6619,6.7925,6.9821,7.2158,7.2383,7.3443,7.517,7.8079,7.9305,7.9537,8.2255,8.3497,8.3688,8.3688,8.4126,8.4634,8.4245,8.4335,8.4634,8.4215,8.4096,8.3976,8.3337,8.3696,8.4275,8.4055,8.4145,8.4335,8.4335,8.4515,8.4694,8.4694,8.4694,8.4634,8.4395,8.3726,8.2997,8.2518,8.177,8.1093,8.0853,8.0584,7.9878,7.8202,7.8771,7.816,7.4522,0.0,0.0,0.0,0.0,0.0,0.0,7.2894,7.2116,0.0,0.0,0.0,0.0,0.0,0.0,7.527,7.4971,0.0,7.8938,7.6933,7.6874,7.8807,7.8807,7.8807,7.8807,7.8807,7.8807,7.8807,7.8807,7.8807,7.8807,7.8807,7.8807,7.8807,7.8807,7.8807,7.8807,7.8807,7.8807,7.8807,6.802,6.802,6.8196,6.8675,6.9203,6.9705,7.0202,7.0729,7.1056,7.1056,7.1056,7.1056,7.1106,7.1106,7.1106,7.1106,0.0,0.0,7.1056,7.1006,7.0755,7.0275,7.0227,6.9953,6.9406,6.8876,6.8388,6.796,6.7478,6.8241,7.028,7.0788,7.2196,7.4345,7.5785,7.6579,7.6971,7.9726,8.0883,8.1033,8.2338,8.3217,8.3777,8.3807,8.4245,8.4844,8.4874,8.4933,8.4963,8.4904,8.4874,8.4724,8.4066,8.3777,8.3587,8.2967,8.3187,8.3647,8.3647,8.4096,8.4564,8.4564,8.4604,8.4455,8.3837,8.3658,8.3288,8.2129,8.177,8.1471,8.0853,8.0177,7.9728,7.9728,7.9208,7.81,7.6185,0.0,0.0,0.0,0.0,0.0,0.0,7.4616,7.442,0.0,0.0,0.0,0.0,0.0,7.4061,7.3326,7.3296,7.4193,7.6096,7.6096,7.7023,7.8807,7.8807,7.8807,7.8807,7.8807,7.8807,7.8807,7.8807,7.8807,7.8807,7.8807,7.8807,7.8807,7.8807,7.8807,7.8807,7.8807,7.8807,7.8807,7.0328,7.0328,7.0355,7.048,7.0606,7.0606,7.0328,7.0426,7.0478,7.0478,7.0478,7.0629,7.1056,7.1106,7.1106,7.1106,7.0729,7.0478,7.0478,7.0079,6.9755,6.9629,6.9604,6.9554,6.9406,6.8876,6.8907,6.9567,6.9436,7.0246,7.1922,7.1614,7.3095,7.6009,7.5985,7.7383,7.9868,8.1056,8.186,8.2368,8.3187,8.3886,8.4515,8.5023,8.5641,8.6289,8.6808,8.7317,8.7676,8.7167,8.6659,8.611,8.5432,8.4515,8.3587,8.2967,8.2896,8.2997,8.2997,8.3117,8.3236,8.3236,8.3606,8.3897,8.3748,8.3337,8.2937,8.2627,8.1351,8.0207,8.0057,7.9507,7.9028,7.9028,7.8878,7.81,7.6185,7.6305,0.0,0.0,7.5467,7.6245,7.7729,7.7729,7.7083,0.0,0.0,7.7203,7.3775,7.7143,7.8609,7.7442,7.7382,7.7622,7.81,7.81,7.834,7.8807,7.8807,7.8807,7.8807,7.8807,7.8807,7.8807,7.8807,7.8807,7.8807,7.8807,7.8807,7.8807,7.8807,7.8807,7.8807,7.8807,7.8807,7.8807,7.1106,7.1106,7.1106,7.1106,7.1106,7.1081,7.1031,7.1031,7.1031,7.1031,7.1234,7.1309,7.1131,7.1332,7.1382,7.1131,7.083,7.0654,7.0654,7.0355,7.0056,6.9828,6.9828,6.9679,6.9406,7.0146,7.1156,7.2478,7.2182,7.3006,7.4819,7.4492,7.5822,7.8526,7.8542,7.9388,8.0913,8.2469,8.3158,8.3307,8.4564,8.5472,8.612,8.6479,8.7018,8.7666,8.8035,8.8394,8.8634,8.8274,8.7935,8.7457,8.6469,8.5462,8.4425,8.3487,8.3027,8.2806,8.2806,8.2806,8.2806,8.2806,8.3057,8.3277,8.3277,8.3027,8.2717,8.2417,8.1231,8.0147,7.9848,7.9267,7.8807,7.8807,7.8041,7.7113,7.6066,7.5916,7.5916,7.5916,7.6694,7.7622,7.8699,7.8807,7.834,7.7293,7.8041,0.0,7.5707,7.7472,7.822,7.7502,7.834,7.8807,7.8807,7.8807,7.8807,7.8807,7.8807,7.8807,7.8807,7.8807,7.8807,7.8807,7.8807,7.8807,7.8807,7.8807,7.8807,7.8807,7.8807,7.8807,7.8807,7.8807,7.8807,7.8807,7.1334,7.1334,7.1334,7.1334,7.1334,7.146,7.1836,7.1912,7.1887,7.1786,7.2188,7.2113,7.1207,7.151,7.1585,7.1156,7.1106,7.1081,7.0981,7.0981,7.089,7.0697,7.0694,7.0602,7.0407,7.2228,7.3992,7.5666,7.5233,7.6117,7.8253,7.8427,7.9553,8.1422,8.2099,8.2129,8.1841,8.4055,8.4724,8.4455,8.615,8.7247,8.7856,8.7975,8.8355,8.8863,8.8933,8.8993,8.8993,8.8993,8.8953,8.8654,8.7516,8.6499,8.5492,8.4335,8.3427,8.2806,8.2806,8.2806,8.2806,8.2806,8.2806,8.2806,8.2806,8.2806,8.2627,8.2069,8.1411,8.0764,8.0057,7.9417,7.8819,7.8448,7.6963,7.5796,7.5497,0.0,7.5916,7.5916,7.7622,7.8807,7.8807,7.8807,7.8807,7.8807,7.7263,7.6933,7.828,7.7083,7.6215,7.5916,7.7771,7.8807,7.8807,7.8807,7.8807,7.8807,7.8807,7.8807,7.8807,7.8807,7.8807,7.8807,7.8807,7.8807,7.8807,7.8807,7.8807,7.8807,7.8807,7.8807,7.8807,7.8807,7.8807,7.8807,7.2441,7.2441,7.2441,7.2441,7.2441,7.2315,7.1962,7.1912,7.1736,7.1259,7.1284,7.1259,7.1131,7.1182,7.1207,7.1106,7.1106,7.0905,7.0428,7.0403,7.1008,7.2359,7.242,7.3253,7.501,7.4958,7.5679,7.7245,7.7714,7.9046,8.117,8.2234,8.324,8.4126,8.4803,8.5361,8.581,8.6229,8.6659,8.7107,8.7437,8.7945,8.8624,8.9163,8.9432,8.9612,9.0109,9.0319,9.0319,9.0319,8.998,8.9512,8.9282,8.7606,8.5671,8.5462,8.4164,8.2806,8.2806,8.2806,8.2806,8.2806,8.2806,8.2806,8.2806,8.2806,8.2776,8.2657,8.2099,8.1441,8.0764,8.0105,7.892,7.6724,7.6096,7.5318,7.3595,7.4822,7.5916,7.5916,7.7622,7.8807,7.8807,7.8807,7.8807,7.8807,7.8519,7.7741,7.6425,7.7622,7.7592,7.5946,7.7771,7.8807,7.8807,7.8807,7.8807,7.8807,7.8807,7.8807,7.8807,7.8807,7.8807,7.8807,7.8807,7.8807,7.8807,7.8807,7.8807,7.8807,7.8807,7.8807,7.8807,7.8807,7.8807,7.8807,7.2717,7.2717,7.2717,7.2717,7.2466,7.2265,7.2315,7.2087,7.1811,7.156,7.1786,7.2222,7.2908,7.3225,7.3819,7.4796,7.5145,7.5066,7.4553,7.2132,7.1622,7.3664,7.3774,7.5412,7.8878,7.8697,7.9513,8.1408,8.1752,8.2572,8.3906,8.4504,8.5132,8.5791,8.6479,8.6768,8.6768,8.7866,8.8295,8.8304,8.8972,8.9451,8.975,9.007,9.019,9.0219,9.0498,9.0597,9.0597,9.0597,9.0408,9.013,8.9791,8.8115,8.617,8.581,8.4314,8.2806,8.2806,8.2806,8.2806,8.2806,8.2806,8.2806,8.2806,8.2806,8.2806,8.2806,8.2268,8.171,8.1411,8.0494,7.904,7.6766,7.6108,7.5198,7.3176,7.4612,7.5916,7.5916,7.7622,7.8807,7.8807,7.8807,7.8807,7.8807,7.8807,7.84,7.7502,7.831,7.837,7.7502,7.831,7.8807,7.8807,7.8807,7.8807,7.8807,7.8807,7.8807,7.8807,7.8807,7.8807,7.8807,7.8807,7.8807,7.8807,7.8807,7.8807,7.8807,7.8807,7.8807,7.8807,7.8807,7.8807,7.8807,7.2717,7.2717,7.2717,7.2717,7.2365,7.2215,7.2641,7.2808,7.29,7.29,7.3719,7.4722,7.5686,7.6156,7.6966,7.8346,7.8834,7.8917,7.8496,7.5096,7.4011,7.6071,7.6678,7.8569,8.2079,8.2188,8.3084,8.4933,8.5103,8.5521,8.618,8.6479,8.6918,8.7427,8.8095,8.8095,8.7726,8.9252,8.9612,8.9232,9.0229,9.0597,9.0597,9.0597,9.0597,9.0597,9.0597,9.0597,9.0597,9.0597,9.0597,9.0507,9.007,8.8534,8.6798,8.614,8.4434,8.2806,8.2806,8.2806,8.2806,8.2806,8.2806,8.2806,8.2806,8.2806,8.2806,8.2806,8.2387,8.1979,8.183,8.0823,7.9309,7.7155,7.6288,7.5377,7.3804,7.4929,7.6066,7.6514,7.7891,7.8807,7.8807,7.8807,7.8807,7.8807,7.8807,7.8807,7.8807,7.8807,7.8807,7.8807,7.8807,7.8807,7.8807,7.8807,7.8807,7.8807,7.8807,7.8807,7.8807,7.8807,7.8807,7.8807,7.8807,7.8807,7.8807,7.8807,7.8807,7.8807,7.8807,7.8807,7.8807,7.8807,7.8807,7.8807,7.2717,7.2717,7.2717,7.2717,7.2666,7.2666,7.2692,7.4503,7.5867,7.5867,7.7797,7.9224,7.9316,7.9365,7.9458,7.9577,7.9605,7.9605,7.9577,7.9273,7.9617,8.0841,8.2857,8.4109,8.4451,8.4451,8.4857,8.5611,8.6259,8.6918,8.7586,8.8833,8.9432,8.9512,9.0109,9.0358,9.0328,9.0447,9.0528,9.0447,9.0567,9.0597,9.0597,9.0597,9.0597,9.0597,9.0597,9.0597,9.0597,9.0597,9.0597,9.0597,9.0537,8.9182,8.7496,8.6828,8.4812,8.2806,8.2806,8.2806,8.2806,8.2806,8.2806,8.2806,8.2806,8.2806,8.2806,8.2806,8.2747,8.2537,8.1919,8.1212,7.9848,7.7245,7.6288,7.5856,7.5707,7.5826,7.6574,7.837,7.8699,7.8807,7.8807,7.8807,7.8807,7.8807,7.8807,7.8807,7.8807,7.8807,7.8807,7.8807,7.8807,7.8807,7.8807,7.8807,7.8807,7.8807,7.8807,7.8807,7.8807,7.8807,7.8807,7.8807,7.8807,7.8807,7.8807,7.8807,7.8807,7.8807,7.8807,7.8807,7.8807,7.8807,7.8807,7.8807,7.4875,7.6033,7.7046,7.7046,7.7046,7.7046,7.7046,7.7802,7.8378,7.8378,7.917,8.0257,8.169,8.1887,8.2456,8.3906,8.4038,8.4038,8.4038,8.4038,8.3579,8.2545,8.4711,8.612,8.6569,8.6569,8.6898,8.7576,8.7816,8.8295,8.8953,8.9462,8.9911,9.0259,9.0498,9.0597,9.0597,9.0597,9.0597,9.0597,9.0597,9.0597,9.0597,9.0597,9.0597,9.0597,9.0597,9.0597,9.0597,9.0597,9.0597,9.0597,9.0597,8.9271,8.7317,8.5382,8.3865,8.2806,8.2806,8.2806,8.2806,8.2806,8.2806,8.2806,8.2806,8.2806,8.2806,8.2806,8.2806,8.2717,8.2477,8.186,8.0524,7.7843,7.7933,7.7753,7.6125,7.6933,7.7981,7.8699,7.8807,7.8807,7.8807,7.8807,7.8807,7.8807,7.8807,7.8807,7.8807,7.8807,7.8807,7.8807,7.8807,7.8807,7.8807,7.8807,7.8807,7.8807,7.8807,7.8807,7.8807,7.8807,7.8807,7.8807,7.8807,7.8807,7.8807,7.8807,7.8807,7.8807,7.8807,7.8807,7.8807,7.8807,7.8807,7.8807,7.7315,7.8599,7.9687,7.9687,7.9687,7.9687,7.9687,8.0343,8.0816,8.0816,8.1435,8.2498,8.412,8.4284,8.4955,8.6559,8.6708,8.6708,8.6708,8.6888,8.6288,8.4687,8.6167,8.7317,8.8005,8.8005,8.8334,8.9013,8.9013,8.9342,9.0001,9.0001,9.0219,9.0597,9.0597,9.0597,9.0597,9.0597,9.0597,9.0597,9.0597,9.0597,9.0597,9.0597,9.0597,9.0597,9.0597,9.0597,9.0597,9.0597,9.0597,9.0597,9.0597,8.9271,8.7207,8.4754,8.3576,8.3027,8.2866,8.2806,8.2806,8.2806,8.2806,8.2806,8.2806,8.2806,8.2806,8.2806,8.2806,8.2806,8.2806,8.2249,8.1201,7.9357,7.9656,7.9399,7.7412,7.828,7.9028,7.8837,7.8807,7.8807,7.8807,7.8807,7.8807,7.8807,7.8807,7.8807,7.8807,7.8807,7.8807,7.8807,7.8807,7.8807,7.8807,7.8807,7.8807,7.8807,7.8807,7.8807,7.8807,7.8807,7.8807,7.8807,7.8807,7.8807,7.8807,7.8807,7.8807,7.8807,7.8807,7.8807,7.8807,7.8807,7.8807,7.8807,7.9709,7.9731,7.9731,7.9731,7.9731,7.9731,7.9731,8.1711,8.3215,8.3215,8.5238,8.6708,8.6708,8.6708,8.6708,8.6708,8.6708,8.6708,8.6708,8.7317,8.7706,8.7736,8.7706,8.8035,8.8684,8.8714,8.9043,8.9722,8.9722,9.001,9.0597,9.0597,9.0597,9.0597,9.0597,9.0597,9.0597,9.0597,9.0597,9.0597,9.0597,9.0597,9.0597,9.0597,9.0597,9.0597,9.0597,9.0597,9.0597,9.0597,9.0597,9.0597,9.0597,8.9271,8.7317,8.5292,8.4245,8.3587,8.2967,8.2806,8.2806,8.2806,8.2806,8.2806,8.2806,8.2806,8.2806,8.2806,8.2806,8.2806,8.2806,8.2249,8.18,8.18,8.1242,8.0584,7.9907,7.9788,7.9548,7.8878,7.8807,7.8807,7.8807,7.8807,7.8807,7.8807,7.8807,7.8807,7.8807,7.8807,7.8807,7.8807,7.8807,7.8807,7.8807,7.8807,7.8807,7.8807,7.8807,7.8807,7.8807,7.8807,7.8807,7.8807,7.8807,7.8807,7.8807,7.8807,7.8807,7.8807,7.8807,7.8807,7.8807,7.8807,7.8807,7.8807,8.2162,8.3493,8.462,8.462,8.462,8.462,8.462,8.5198,8.568,8.568,8.6271,8.6708,8.6708,8.6708,8.6708,8.6708,8.6708,8.6888,8.7377,8.7586,8.8125,8.9073,8.8654,8.8714,8.9372,8.9402,8.9731,9.0319,9.0319,9.0408,9.0597,9.0597,9.0597,9.0597,9.0597,9.0597,9.0597,9.0597,9.0597,9.0597,9.0597,9.0597,9.0597,9.0597,9.0597,9.0597,9.0597,9.0597,9.0597,9.0597,9.0597,9.0507,9.01,8.8933,8.7407,8.5851,8.4574,8.3587,8.2967,8.2806,8.2806,8.2806,8.2806,8.2806,8.2806,8.2806,8.2806,8.2806,8.2806,8.2806,8.2806,8.2627,8.2357,8.189,8.165,8.1291,8.0614,8.0087,7.9728,7.9537,7.9088,7.8807,7.8807,7.8807,7.8807,7.8807,7.8807,7.8807,7.8807,7.8807,7.8807,7.8807,7.8807,7.8807,7.8807,7.8807,7.8807,7.8807,7.8807,7.8807,7.8807,7.8807,7.8807,7.8807,7.8807,7.8807,7.8807,7.8807,7.8807,7.8807,7.8807,7.8807,7.8807,7.8807,7.8807,7.8807,8.4579,8.5741,8.6708,8.6708,8.6708,8.6708,8.6708,8.6708,8.6708,8.6708,8.6708,8.6708,8.6708,8.6708,8.6708,8.6708,8.6948,8.7257,8.7676,8.8185,8.8863,8.9662,8.9531,8.9651,9.004,9.007,9.0249,9.0597,9.0597,9.0597,9.0597,9.0597,9.0597,9.0597,9.0597,9.0597,9.0597,9.0597,9.0597,9.0597,9.0597,9.0597,9.0597,9.0597,9.0597,9.0597,9.0597,9.0597,9.0597,9.0597,9.0597,9.0498,8.9881,8.9133,8.8175,8.6589,8.5342,8.4305,8.3397,8.2967,8.2806,8.2806,8.2806,8.2806,8.2806,8.2806,8.2806,8.2806,8.2806,8.2806,8.2806,8.2806,8.2657,8.2249,8.2189,8.1949,8.1291,8.0853,8.0494,8.0207,7.9597,7.9208,7.9208,7.8938,7.8807,7.8807,7.8807,7.8807,7.8807,7.8807,7.8807,7.8807,7.8807,7.8807,7.8807,7.8807,7.8807,7.8807,7.8807,7.8807,7.8807,7.8807,7.8807,7.8807,7.8807,7.8807,7.8807,7.8807,7.8807,7.8807,7.8807,7.8807,7.8807,7.8807,7.8807,7.8807,8.6708,8.6708,8.6708,8.6708,8.6708,8.6708,8.6708,8.6708,8.6708,8.6768,8.6798,8.6798,8.6858,8.6888,8.6888,8.6888,8.7457,8.7826,8.7885,8.9013,8.9722,8.9761,9.0319,9.0597,9.0597,9.0597,9.0597,9.0597,9.0597,9.0597,9.0597,9.0597,9.0597,9.0597,9.0597,9.0597,9.0597,9.0597,9.0597,9.0597,9.0597,9.0597,9.0597,9.0597,9.0597,9.0597,9.0597,9.0597,9.0597,9.0597,9.0597,9.0498,8.9971,8.9731,8.9333,8.7367,8.6289,8.5402,8.4066,8.3247,8.2806,8.2806,8.2806,8.2806,8.2806,8.2806,8.2806,8.2806,8.2806,8.2806,8.2806,8.2806,8.2806,8.2806,8.2806,8.2597,8.1979,8.183,8.159,8.0943,8.0296,7.9878,7.9818,7.9178,7.8807,7.8807,7.8807,7.8807,7.8807,7.8807,7.8807,7.8807,7.8807,7.8807,7.8807,7.8807,7.8807,7.8807,7.8807,7.8807,7.8807,7.8807,7.8807,7.8807,7.8807,7.8807,7.8807,7.8807,7.8807,7.8807,7.8807,7.8807,7.8807,7.8807,7.8807,7.8807,8.6708,8.6708,8.6708,8.6708,8.6708,8.6708,8.6708,8.6708,8.6888,8.7407,8.7467,8.7676,8.8205,8.8265,8.8265,8.8265,8.8414,8.8714,8.9222,8.9542,8.9911,9.0378,9.0507,9.0597,9.0597,9.0597,9.0597,9.0597,9.0597,9.0597,9.0597,9.0597,9.0597,9.0597,9.0597,9.0597,9.0597,9.0597,9.0597,9.0597,9.0597,9.0597,9.0597,9.0597,9.0597,9.0597,9.0597,9.0597,9.0597,9.0597,9.0597,9.0567,9.0468,9.007,8.9423,8.7915,8.6629,8.5402,8.4066,8.3247,8.2806,8.2806,8.2806,8.2806,8.2806,8.2806,8.2806,8.2806,8.2806,8.2806,8.2806,8.2806,8.2806,8.2806,8.2806,8.2747,8.2597,8.2129,8.174,8.159,8.0973,8.0375,7.9848,7.9178,7.8807,7.8807,7.8807,7.8807,7.8807,7.8807,7.8807,7.8807,7.8807,7.8807,7.8807,7.8807,7.8807,7.8807,7.8807,7.8807,7.8807,7.8807,7.8807,7.8807,7.8807,7.8807,7.8807,7.8807,7.8807,7.8807,7.8807,7.8807,7.8807,7.8807,7.8807,7.8807,8.7127,8.7187,8.7277,8.7606,8.7666,8.7666,8.7666,8.7666,8.7786,8.8125,8.8185,8.8304,8.8654,8.8714,8.8714,8.8714,8.8983,8.9312,8.9692,8.9971,9.0259,9.0597,9.0597,9.0597,9.0597,9.0597,9.0597,9.0597,9.0597,9.0597,9.0597,9.0597,9.0597,9.0597,9.0597,9.0597,9.0597,9.0597,9.0597,9.0597,9.0597,9.0597,9.0597,9.0597,9.0597,9.0597,9.0597,9.0597,9.0597,9.0597,9.0597,9.0597,9.0597,9.0378,8.986,8.8574,8.7437,8.6299,8.4634,8.3726,8.3177,8.2866,8.2806,8.2806,8.2806,8.2806,8.2806,8.2806,8.2806,8.2806,8.2806,8.2806,8.2806,8.2806,8.2806,8.2806,8.2806,8.2507,8.2297,8.2297,8.168,8.1003,8.0345,7.9686,7.9297,7.9297,7.8968,7.8807,7.8807,7.8807,7.8807,7.8807,7.8807,7.8807,7.8807,7.8807,7.8807,7.8807,7.8807,7.8807,7.8807,7.8807,7.8807,7.8807,7.8807,7.8807,7.8807,7.8807,7.8807,7.8807,7.8807,7.8807,7.8807,7.8807,7.8807,7.8867,8.7586,8.7796,8.8035,8.8594,8.8714,8.8714,8.8714,8.8714,8.8744,8.8863,8.8863,8.8923,8.8993,8.9023,8.9023,8.9023,8.9552,8.9851,8.9851,9.0319,9.0597,9.0597,9.0597,9.0597,9.0597,9.0597,9.0597,9.0597,9.0597,9.0597,9.0597,9.0597,9.0597,9.0597,9.0597,9.0597,9.0597,9.0597,9.0597,9.0597,9.0597,9.0597,9.0597,9.0597,9.0597,9.0597,9.0597,9.0597,9.0597,9.0597,9.0597,9.0597,9.0597,9.0597,9.0378,8.9202,8.8394,8.7437,8.5432,8.4395,8.3707,8.2986,8.2806,8.2806,8.2806,8.2806,8.2806,8.2806,8.2806,8.2806,8.2806,8.2806,8.2806,8.2806,8.2806,8.2806,8.2806,8.2806,8.2806,8.2806,8.2189,8.159,8.1003,8.0356,7.9907,7.9818,7.9297,7.8908,7.8807,7.8807,7.8807,7.8807,7.8807,7.8807,7.8807,7.8807,7.8807,7.8807,7.8807,7.8807,7.8807,7.8807,7.8807,7.8807,7.8807,7.8807,7.8807,7.8807,7.8807,7.8807,7.8807,7.8807,7.8807,7.8807,7.8807,7.8878,8.7676,8.8155,8.8594,8.8684,8.8714,8.8714,8.8714,8.8714,8.8923,8.9492,8.9552,8.9761,9.0289,9.0328,9.0328,9.0328,9.0438,9.0498,9.0498,9.0537,9.0597,9.0597,9.0597,9.0597,9.0597,9.0597,9.0597,9.0597,9.0597,9.0597,9.0597,9.0597,9.0597,9.0597,9.0597,9.0597,9.0597,9.0597,9.0597,9.0597,9.0597,9.0597,9.0597,9.0597,9.0597,9.0597,9.0597,9.0597,9.0597,9.0597,9.0597,9.0597,9.0597,9.0597,9.0447,8.9761,8.9103,8.8125,8.612,8.5073,8.4275,8.3106,8.2806,8.2806,8.2806,8.2806,8.2806,8.2806,8.2806,8.2806,8.2806,8.2806,8.2806,8.2806,8.2806,8.2806,8.2806,8.2806,8.2806,8.2806,8.2189,8.177,8.168,8.1063,8.0416,7.9848,7.9728,7.9417,7.8819,7.8807,7.8807,7.8807,7.8807,7.8807,7.8807,7.8807,7.8807,7.8807,7.8807,7.8807,7.8807,7.8807,7.8807,7.8807,7.8807,7.8807,7.8807,7.8807,7.8807,7.8807,7.8807,7.8807,7.8807,7.8807,7.8807,7.8878,8.8744,8.9043,8.9372,8.969,8.975,8.975,8.975,8.975,8.989,9.016,9.0219,9.0289,9.0567,9.0597,9.0597,9.0597,9.0597,9.0597,9.0597,9.0597,9.0597,9.0597,9.0597,9.0597,9.0597,9.0597,9.0597,9.0597,9.0597,9.0597,9.0597,9.0597,9.0597,9.0597,9.0597,9.0597,9.0597,9.0597,9.0597,9.0597,9.0597,9.0597,9.0597,9.0597,9.0597,9.0597,9.0597,9.0597,9.0597,9.0597,9.0597,9.0597,9.0597,9.0597,9.0498,8.9881,8.9492,8.8803,8.6798,8.605,8.5402,8.3726,8.3307,8.3217,8.2896,8.2806,8.2806,8.2806,8.2806,8.2806,8.2806,8.2806,8.2806,8.2806,8.2806,8.2806,8.2806,8.2806,8.2806,8.2806,8.2537,8.2357,8.2357,8.174,8.1242,8.0943,8.0207,7.9668,7.9369,7.8998,7.8807,7.8807,7.8807,7.8807,7.8807,7.8807,7.8807,7.8807,7.8807,7.8807,7.8807,7.8807,7.8807,7.8807,7.8807,7.8807,7.8807,7.8807,7.8807,7.8807,7.8807,7.8807,7.8807,7.8807,7.8807,7.8938]}]]